GFSSGP_925_rhum_000.txt.gz
RH
28 22 20 27 45 58 54 49 35 37 27 18 17 18 20 24 21 20 57 59 58 67 75 82 91 96 89 91 88 86 81 77 71 78 73 87 85 80 77 79 82 81 78 79 82 72 73 77 88
26 22 22 47 51 62 55 39 39 38 28 19 18 21 19 23 45 63 63 57 55 66 71 74 86 97 92 91 88 85 80 79 75 74 85 85 78 82 83 74 78 80 83 84 84 72 73 79 74
26 21 34 46 59 56 52 39 39 31 22 18 17 19 22 22 44 60 52 61 65 67 68 68 87 96 93 89 89 85 82 78 78 72 79 82 80 76 84 81 77 81 82 82 89 79 79 79 75
25 25 32 44 43 39 36 34 30 32 21 16 17 22 27 38 41 43 50 61 66 67 62 70 86 93 91 91 89 85 77 81 75 77 74 80 72 74 81 76 78 82 82 81 81 86 81 82 76
26 33 37 36 33 30 25 25 28 30 24 18 16 25 30 46 44 48 51 57 65 69 64 66 75 80 90 89 91 87 79 80 76 74 78 67 85 76 82 80 78 83 86 87 82 82 87 86 88
39 35 37 37 32 26 23 22 24 28 27 18 19 33 35 45 52 50 52 57 62 67 70 68 68 72 83 83 88 85 82 82 78 74 77 74 81 80 86 82 82 85 94 93 86 82 82 89 88
41 47 42 34 34 27 21 23 30 29 25 19 19 34 42 54 50 48 51 54 59 64 71 77 77 79 86 80 84 77 78 79 75 72 82 83 83 78 90 82 85 89 93 91 86 78 79 84 88
45 44 37 34 32 28 24 30 26 22 21 15 21 32 35 46 48 49 51 53 59 63 67 74 74 79 83 76 81 75 70 66 74 75 82 82 79 78 75 78 73 91 94 90 84 78 72 74 84
36 51 48 34 30 27 27 30 25 23 20 19 34 31 35 37 50 52 51 52 58 69 69 71 70 74 78 78 76 78 69 64 74 73 77 74 75 75 71 69 72 73 88 81 78 76 69 66 68
45 59 49 34 27 35 30 30 28 28 30 22 36 52 53 47 56 58 58 58 58 73 74 68 65 66 71 69 69 74 74 66 72 72 73 74 76 72 72 66 78 75 69 71 75 80 69 62 64
45 53 42 37 36 35 30 30 25 26 28 23 23 47 59 59 60 59 56 56 54 53 60 68 65 63 66 67 64 61 64 64 70 77 73 73 74 73 69 71 79 80 78 77 76 73 66 62 50
50 43 40 38 35 32 29 26 29 27 26 23 24 30 63 63 67 63 60 55 56 55 52 53 60 64 65 64 63 64 67 70 67 66 74 72 69 68 65 71 73 80 78 77 72 65 62 64 53
50 46 41 39 38 32 28 31 31 27 24 24 25 48 62 64 62 56 53 52 50 53 52 53 53 55 60 64 65 62 64 71 64 57 66 67 67 69 66 65 70 73 70 67 66 65 67 68 67
42 37 35 32 31 31 31 31 26 25 23 23 24 40 56 63 60 57 54 52 50 48 47 50 53 53 56 60 62 62 57 59 62 60 64 64 65 70 68 68 66 68 65 62 64 66 62 63 65
36 43 40 34 32 31 25 30 27 24 23 24 24 28 32 46 48 56 51 53 50 44 41 42 48 53 56 58 60 61 60 55 57 56 58 63 64 66 68 66 66 65 66 64 65 69 67 66 67
34 36 45 35 34 32 28 43 30 25 28 27 25 27 24 27 25 26 25 28 34 40 41 38 39 46 51 57 60 62 62 58 55 52 53 58 61 63 66 66 67 66 66 65 63 63 64 62 62
46 51 47 41 32 29 30 35 28 24 23 24 25 24 29 33 36 36 34 30 28 27 34 39 38 40 42 50 54 60 64 63 60 59 56 54 56 58 60 62 62 64 66 67 67 62 63 68 67
53 50 45 41 26 36 34 34 29 26 20 23 28 32 36 37 37 40 40 38 35 32 33 37 41 43 48 51 58 61 66 67 66 66 65 63 61 60 60 60 61 63 67 69 70 70 68 67 72
42 39 40 36 30 32 36 33 31 26 28 31 34 37 38 37 35 41 40 40 38 37 32 32 33 39 45 57 62 67 65 67 66 66 67 68 68 68 68 69 69 69 69 71 74 75 76 74 78
41 42 43 36 29 26 28 30 30 21 28 35 38 39 39 40 44 46 43 40 40 40 40 38 36 39 43 50 57 64 64 67 64 63 67 69 71 73 76 77 78 78 78 78 80 82 82 82 81
45 46 41 41 36 32 32 40 23 26 30 34 35 38 39 43 45 50 52 49 41 39 38 38 42 43 41 50 55 59 64 70 67 66 68 67 70 71 72 74 78 80 83 83 84 85 89 84 81
48 37 36 35 39 45 35 52 30 33 35 36 40 41 40 43 48 52 55 51 45 41 37 36 35 36 38 42 46 50 56 58 59 60 60 58 59 60 64 69 75 81 85 87 84 85 88 92 90
39 34 33 33 40 40 39 44 40 36 39 41 44 42 40 45 52 55 56 50 46 42 40 38 37 37 37 36 36 36 38 40 39 39 38 38 38 38 41 40 44 73 88 91 91 89 92 95 97
36 33 44 47 48 57 46 44 41 43 36 40 42 43 42 47 53 54 50 45 43 40 40 39 38 39 39 40 41 42 43 43 43 43 44 45 44 44 44 43 43 43 49 70 86 90 97 96 90
35 46 60 59 63 62 39 43 38 31 37 33 43 46 44 48 53 56 55 52 46 42 40 40 41 44 43 43 45 47 48 49 51 52 52 52 48 45 43 38 37 38 40 43 46 53 74 91 96
39 44 64 64 70 55 34 42 32 30 33 38 42 45 45 50 53 54 53 50 46 43 43 43 45 47 46 45 48 50 52 53 55 56 55 55 48 46 40 38 36 33 33 34 38 48 53 63 70
35 47 40 50 50 55 49 40 26 44 49 47 50 47 46 50 53 54 51 47 44 47 45 47 50 53 54 56 55 57 58 56 55 52 48 44 42 43 41 40 42 43 45 45 44 53 53 55 60
34 34 46 55 54 53 49 40 41 41 50 50 52 49 47 46 53 55 53 48 49 49 54 55 57 57 55 54 53 53 58 55 52 49 49 48 46 46 48 51 53 55 56 55 54 60 60 62 61
39 38 34 46 52 55 54 46 36 36 43 47 49 49 49 51 54 55 53 52 53 59 60 59 55 52 50 50 50 49 52 52 52 52 51 51 51 54 57 59 61 62 61 57 58 60 59 60 64
38 40 38 47 45 53 52 45 30 34 33 38 45 47 48 52 55 56 58 61 65 65 62 59 57 55 53 53 52 51 52 49 46 42 40 41 46 47 50 57 58 56 51 57 63 61 62 64 58

GFSSGP_925_rhum_003.txt.gz
RH
31 26 21 30 43 56 52 46 38 38 32 20 19 19 20 24 19 21 57 61 59 62 78 81 88 82 94 94 95 90 87 80 72 70 68 83 81 82 80 78 84 74 74 75 76 76 71 77 87
31 23 24 49 52 60 53 41 38 38 34 25 19 21 18 19 44 60 65 63 63 64 73 75 84 91 91 85 94 91 86 82 74 72 78 88 78 78 78 73 78 78 81 83 83 74 74 76 77
28 21 35 50 60 58 51 38 40 32 32 20 18 21 21 20 40 53 52 59 66 69 71 72 84 95 96 95 93 91 85 84 79 74 77 89 84 78 85 83 79 78 84 85 87 79 79 77 77
27 25 33 40 42 40 39 33 26 27 27 20 17 22 27 37 40 43 50 58 64 67 69 71 82 94 96 94 94 90 85 82 79 76 71 85 88 75 84 81 80 84 84 83 84 86 85 84 81
27 32 34 36 33 29 28 24 22 27 29 21 18 21 30 38 42 45 50 62 64 68 70 69 84 92 98 94 94 91 81 82 80 70 71 82 78 69 78 80 79 84 84 87 82 81 87 89 83
41 36 36 35 32 28 26 21 25 24 28 23 18 30 29 42 50 50 52 59 64 67 70 73 86 87 91 94 94 91 84 83 78 75 71 71 73 80 83 87 85 84 90 91 88 84 81 85 90
40 46 41 36 36 27 22 26 32 34 29 24 26 28 36 56 49 49 50 60 64 71 71 74 84 85 86 86 89 92 87 77 83 76 76 79 74 87 89 91 88 88 89 94 93 88 83 82 85
48 47 42 40 33 28 23 29 26 28 23 18 26 28 27 43 48 50 55 58 66 72 72 73 76 78 86 88 85 86 80 74 73 76 73 79 76 82 80 88 80 90 90 93 94 88 83 77 79
40 52 55 41 32 28 28 34 27 25 25 23 33 36 44 41 48 54 57 58 65 75 73 73 77 78 83 87 83 86 80 73 65 73 74 80 76 70 74 72 71 70 90 92 93 90 85 77 71
47 61 53 39 27 32 36 34 30 29 30 25 26 51 54 53 60 61 63 63 61 75 75 77 78 77 80 84 80 81 80 74 62 71 71 76 77 74 71 69 67 68 76 83 90 90 89 82 71
50 55 44 39 33 38 38 35 28 28 29 26 25 26 57 62 66 65 61 58 58 58 67 76 76 74 75 78 76 77 75 72 67 64 70 70 73 72 74 70 68 65 76 79 78 81 82 80 72
51 47 42 40 36 38 39 30 32 29 28 24 26 27 58 65 71 67 61 56 56 56 54 64 69 70 70 71 70 63 62 62 65 62 70 75 72 71 72 71 65 68 73 79 80 80 79 76 70
54 49 45 44 46 44 39 37 34 31 27 26 26 30 55 66 66 58 56 49 50 53 52 54 55 62 66 68 70 66 66 62 62 64 63 63 71 74 70 71 72 70 73 74 80 78 74 71 65
50 50 46 37 37 34 34 35 31 28 26 26 24 26 44 66 63 58 58 58 55 52 49 49 52 53 54 60 66 66 64 62 60 58 58 58 62 69 67 69 71 72 70 68 73 74 72 69 70
41 44 42 40 38 37 30 36 34 27 26 28 27 27 30 39 46 52 53 49 47 44 43 46 47 52 53 52 56 62 62 62 60 54 53 58 60 66 67 66 68 69 69 69 68 69 68 68 68
37 41 47 37 33 34 32 43 34 29 26 28 30 27 32 37 38 37 37 34 32 32 44 44 46 45 50 53 53 55 59 60 60 58 56 55 56 59 63 64 62 61 64 67 69 69 68 68 66
43 54 50 42 33 31 33 40 32 26 25 26 27 34 38 40 45 47 46 43 40 38 34 32 44 46 47 55 58 60 60 62 62 61 59 58 58 58 60 60 59 59 62 66 68 70 72 74 74
57 50 49 48 33 36 35 40 31 27 21 26 33 39 42 45 48 48 45 44 43 39 37 38 41 44 45 53 59 63 65 65 65 65 65 63 63 64 63 62 62 63 65 67 71 73 76 76 77
49 44 42 40 33 34 41 39 33 30 24 32 40 42 44 44 44 46 44 41 40 42 41 42 43 46 45 54 64 68 65 65 67 70 71 72 73 74 74 75 76 75 75 76 80 82 84 84 83
43 44 49 40 35 35 34 38 34 26 27 34 41 44 44 45 51 52 49 43 41 40 40 42 44 48 53 57 66 68 69 70 73 74 75 77 78 78 82 85 87 88 89 88 87 88 90 90 86
48 48 50 43 41 35 38 44 36 26 31 36 36 40 44 49 52 57 56 51 45 44 42 39 38 41 46 60 64 69 68 64 54 53 50 51 53 55 56 56 67 78 92 95 94 92 94 94 90
75 43 42 44 45 52 38 58 39 31 37 39 42 46 47 52 54 56 57 55 49 44 41 40 40 39 39 38 40 42 47 51 49 45 43 42 43 43 42 42 42 43 58 83 96 97 99 100 98
61 36 41 43 43 44 42 51 45 34 41 42 45 44 49 54 55 58 58 51 47 44 44 42 42 42 42 41 42 43 46 48 48 47 46 46 44 42 37 34 33 33 34 38 44 57 88 98 96
37 37 44 50 52 62 50 47 46 43 34 41 42 44 50 57 58 58 53 47 46 44 44 43 43 45 45 46 48 49 50 52 51 52 51 49 43 41 38 35 34 34 37 41 42 41 43 55 81
38 47 66 64 67 68 46 52 37 30 33 34 43 46 49 56 58 58 59 54 50 47 46 47 47 51 49 48 50 52 53 53 52 50 46 44 42 41 40 38 36 37 40 43 48 46 45 51 56
46 48 65 66 73 60 48 51 36 37 38 35 40 44 48 55 59 59 59 54 51 50 52 52 52 52 51 52 54 52 50 49 47 46 46 46 46 46 45 42 44 46 47 51 54 53 55 60 59
38 50 44 54 56 64 54 44 32 46 49 47 47 48 50 54 59 59 56 55 52 56 58 54 50 51 51 50 50 50 48 48 48 46 43 42 41 45 41 42 49 49 53 54 52 59 62 61 63
36 38 50 61 63 60 53 47 45 42 49 52 52 49 49 53 59 59 60 57 59 60 58 51 48 49 49 48 49 51 48 44 40 36 34 33 35 38 41 44 52 54 55 51 54 62 61 63 66
37 38 44 50 57 58 59 49 36 34 50 50 50 47 49 54 60 62 64 60 62 61 56 52 50 49 50 50 47 45 38 33 29 25 22 21 22 28 36 42 46 46 45 51 62 54 58 68 60
38 39 40 53 48 56 56 48 36 36 45 48 47 47 50 54 59 64 66 68 68 63 55 51 49 48 47 44 42 35 29 20 14 14 16 17 22 21 30 34 39 38 42 49 57 46 63 55 55

GFSSGP_925_rhum_006.txt.gz
RH
33 27 21 31 43 57 52 46 40 38 36 24 23 21 21 23 18 23 51 58 58 62 70 85 91 94 94 95 96 93 89 79 76 70 65 73 72 81 79 78 74 70 73 73 73 70 72 69 74
31 23 24 48 52 58 52 43 41 33 33 37 22 22 20 20 42 50 58 58 60 62 72 76 84 88 82 78 88 94 90 86 76 74 71 79 80 71 73 73 76 80 76 82 83 78 72 74 73
30 21 34 54 62 56 50 39 42 34 29 28 19 20 21 20 34 47 48 54 60 66 69 70 80 94 85 85 86 95 90 87 81 76 78 82 85 67 76 75 82 80 86 85 86 84 81 79 79
27 24 32 37 41 41 42 34 26 27 26 27 18 21 26 27 36 42 47 55 58 66 68 67 78 89 95 94 96 94 90 86 81 80 83 85 85 79 73 80 83 83 84 85 84 87 87 81 86
27 33 34 34 34 30 29 26 22 30 30 28 19 19 27 33 45 43 49 53 53 64 69 69 76 89 96 93 96 95 89 84 80 81 76 80 80 80 74 83 78 81 87 86 85 82 83 88 88
44 36 41 40 29 28 27 24 26 31 30 31 20 25 26 37 50 50 52 54 60 61 68 70 77 86 91 96 97 96 86 84 82 80 71 72 73 76 72 81 83 85 85 88 88 88 84 83 86
42 46 45 36 38 33 23 30 28 32 35 29 22 24 26 42 45 52 54 60 64 68 71 70 80 84 87 87 92 92 89 83 80 77 71 72 71 72 78 89 93 90 87 84 91 93 90 87 84
49 49 46 44 39 32 22 34 27 29 31 24 28 26 23 36 48 52 55 61 66 72 74 74 80 85 85 89 90 87 88 84 75 72 68 76 78 78 83 84 88 90 90 86 84 93 91 89 83
41 54 59 45 37 31 28 38 31 26 30 28 27 33 38 47 50 56 61 63 69 75 76 78 78 84 87 90 90 87 86 85 80 66 77 77 77 77 72 72 76 76 82 91 85 91 90 91 84
49 63 55 42 31 29 35 39 35 32 32 27 25 37 47 47 59 64 67 65 64 68 71 76 80 83 87 87 91 90 89 89 82 68 72 74 76 77 74 72 74 76 76 83 91 92 91 90 90
51 58 48 41 36 33 42 44 34 30 34 28 26 26 39 56 63 68 62 56 54 56 65 69 71 79 85 83 84 86 84 87 82 76 66 74 74 73 76 78 78 74 74 73 80 83 83 84 82
51 48 44 41 37 40 45 38 39 34 32 27 28 28 34 57 67 68 66 61 57 56 54 60 64 76 79 79 78 76 78 75 72 68 64 62 66 69 71 73 72 71 69 69 74 77 79 80 77
58 52 47 46 48 50 45 44 40 35 30 29 30 29 31 52 63 61 59 57 54 53 48 52 54 68 70 73 72 72 69 66 62 63 62 63 62 61 64 66 67 67 69 68 66 67 69 73 71
55 53 52 48 44 39 37 40 34 32 28 28 28 29 28 41 61 59 56 52 52 50 49 48 50 55 57 62 66 67 67 64 65 63 61 66 66 63 57 61 66 66 66 69 70 70 71 71 73
47 52 49 42 41 42 40 40 39 31 27 30 31 34 29 32 39 47 47 46 41 37 36 45 50 52 54 54 56 60 62 65 63 62 63 61 62 61 61 62 66 66 64 66 69 72 73 74 73
48 43 56 42 34 34 34 36 32 32 31 31 30 36 41 49 54 52 49 45 41 38 36 31 40 50 51 52 54 56 56 60 63 63 63 64 63 62 62 64 63 63 66 69 70 71 73 74 76
45 55 54 47 34 36 38 46 30 27 27 27 27 38 44 50 53 51 50 48 44 42 42 39 41 47 51 52 54 58 59 59 60 64 66 67 67 65 65 65 65 66 68 70 73 76 80 81 83
64 53 50 52 36 37 39 44 33 31 24 27 29 40 49 54 57 52 48 46 48 45 44 45 46 44 49 56 62 65 68 69 70 72 72 74 76 77 77 77 79 81 83 84 86 86 86 88 87
59 50 59 43 35 36 41 44 36 32 29 28 38 44 50 53 52 51 46 43 42 42 44 46 48 55 50 63 72 72 72 73 79 82 82 81 83 87 88 88 87 87 90 91 94 95 94 93 92
47 49 51 49 38 37 42 42 37 36 29 29 42 48 49 53 57 57 51 46 45 43 41 42 44 52 62 66 74 76 79 73 55 51 52 54 51 50 49 50 51 55 68 81 92 99 100 98 93
53 57 57 58 46 41 45 47 41 30 32 40 43 45 49 54 58 61 60 54 48 46 43 41 40 41 46 57 62 63 46 44 45 48 48 47 44 40 39 37 36 36 38 44 50 78 97 98 96
87 52 46 46 50 59 42 63 48 34 37 43 49 54 56 58 57 60 59 58 52 50 45 44 44 43 43 41 42 45 52 56 57 53 49 45 43 40 37 36 35 35 38 42 46 46 50 70 93
72 47 49 45 51 48 46 55 49 36 42 45 51 52 56 60 62 63 62 57 53 48 48 47 47 48 48 48 48 50 53 53 50 46 43 41 39 39 38 36 35 35 38 41 48 49 48 51 70
51 49 45 52 53 67 52 50 53 42 40 42 46 49 56 63 64 64 57 53 53 51 49 48 48 52 50 49 50 50 50 48 46 46 44 43 41 40 40 37 37 40 42 46 49 48 45 53 59
51 50 77 65 71 72 50 57 49 35 34 38 45 49 57 64 66 65 64 61 56 54 53 52 51 56 53 51 50 49 50 49 49 46 44 41 40 39 39 34 35 39 41 46 46 49 53 56 62
61 57 70 71 75 64 54 59 41 35 48 40 42 46 58 66 66 66 66 61 60 59 56 51 50 52 51 50 48 47 45 43 40 37 33 30 30 33 25 20 21 26 31 36 46 56 58 60 64
51 56 46 61 60 70 62 47 39 43 50 50 49 51 60 65 66 67 66 61 64 61 56 52 50 51 51 50 48 43 38 34 29 23 17 14 14 18 18 22 24 24 26 29 39 61 56 52 66
44 43 54 62 65 68 61 50 49 34 41 51 54 54 59 63 65 68 68 67 68 60 55 52 50 52 49 46 42 37 29 22 15 11 11 13 15 17 20 21 23 23 22 25 31 60 42 53 72
40 45 51 55 62 62 63 50 40 36 39 53 52 50 59 64 66 70 70 71 68 60 55 51 48 47 44 44 36 28 18 12 12 12 13 14 15 19 20 21 22 22 25 26 35 47 42 50 59
36 41 45 61 56 62 60 53 36 44 43 53 52 53 54 58 66 72 74 75 68 60 53 48 46 43 40 38 29 18 12 11 11 13 16 18 19 18 20 20 22 24 28 34 40 37 40 55 50

GFSSGP_925_rhum_009.txt.gz
RH
34 26 21 30 39 48 49 44 39 34 32 27 26 22 20 21 19 23 43 56 54 57 60 79 92 93 89 87 89 82 89 84 80 72 68 68 72 76 74 76 73 69 72 74 73 71 71 70 71
35 24 24 46 46 47 43 40 40 33 26 30 26 23 22 19 32 39 51 53 55 57 62 71 91 91 82 70 78 82 90 86 79 75 66 71 73 71 74 74 75 80 78 81 82 80 74 74 71
32 19 36 51 54 46 42 38 33 26 23 27 21 19 20 20 26 39 44 53 57 61 65 68 80 75 80 76 74 79 90 92 83 77 80 82 87 74 72 70 75 82 83 87 86 88 86 82 77
27 24 28 30 36 38 40 34 27 23 25 29 19 19 22 25 33 42 48 55 57 63 66 65 75 76 92 83 81 84 95 90 86 80 80 84 81 83 70 77 69 75 80 86 84 84 88 88 84
26 32 35 33 31 30 28 26 23 28 29 27 20 20 23 32 43 41 50 57 55 62 66 63 68 88 86 81 83 89 94 89 84 82 83 83 76 81 66 78 76 82 85 88 86 85 83 82 85
45 36 42 46 34 27 26 23 26 30 30 29 22 22 22 37 47 45 55 59 58 59 64 63 66 88 84 85 91 95 95 89 85 81 72 74 84 78 70 73 81 88 86 83 84 84 88 86 85
48 48 49 41 40 36 24 28 28 29 31 27 22 25 22 35 49 52 59 65 65 68 67 66 66 89 87 87 85 90 95 86 83 77 79 69 70 71 75 81 86 94 90 83 81 78 84 87 86
45 45 49 45 43 36 23 31 29 29 28 25 25 25 25 34 47 54 59 69 74 75 74 70 69 81 87 94 88 88 85 84 81 74 64 71 76 74 77 78 82 90 93 90 82 78 77 81 86
42 51 56 46 41 36 26 36 33 28 29 28 25 31 33 43 49 59 61 66 77 82 78 76 73 79 84 89 89 90 83 82 83 82 68 69 77 76 77 77 74 74 79 94 90 85 82 83 83
47 60 54 42 36 32 30 39 36 34 33 29 25 27 36 41 55 60 61 61 67 75 74 74 75 77 80 86 87 92 91 92 92 86 75 72 77 77 77 76 72 74 72 71 71 78 85 83 91
52 56 49 42 37 32 38 43 38 34 38 29 26 24 26 42 50 59 60 63 59 54 62 64 69 73 79 82 83 88 92 90 90 88 80 68 71 73 74 73 70 72 70 70 66 64 70 75 80
54 48 45 42 39 42 44 42 42 36 32 28 28 29 29 27 33 46 59 60 55 52 49 52 61 68 75 80 82 78 84 82 80 76 76 74 65 65 68 69 69 69 64 64 65 65 64 68 69
56 51 48 44 46 50 48 48 44 37 31 27 29 30 28 27 31 50 59 57 54 54 51 51 53 58 67 77 75 76 75 72 70 67 68 67 68 67 66 65 61 62 66 67 67 70 73 74 75
56 52 47 50 47 45 43 42 38 34 31 29 28 28 28 29 37 58 59 60 57 54 52 50 53 54 57 67 67 70 70 67 68 68 67 69 69 70 69 66 63 63 65 69 73 77 83 87 90
55 58 53 49 44 43 44 44 43 31 30 29 29 28 36 44 48 51 52 46 42 39 38 34 33 51 55 56 59 65 65 68 67 68 70 71 73 73 72 70 68 68 69 72 75 75 77 78 82
59 52 70 51 37 35 35 45 31 30 34 31 27 37 46 50 53 56 53 50 46 43 43 38 34 44 56 57 58 63 65 67 69 73 76 76 74 74 74 72 68 68 72 76 79 84 88 90 90
53 76 64 57 42 42 39 41 34 29 29 28 26 38 44 47 49 54 52 51 48 47 47 46 46 49 56 61 63 67 69 70 71 72 74 74 75 76 78 79 80 84 88 90 92 93 95 92 90
64 63 53 52 39 40 41 42 34 32 33 30 27 42 47 50 52 56 51 49 48 48 50 54 48 49 57 60 65 68 74 80 84 86 86 87 88 90 92 92 89 83 82 92 97 99 98 95 91
54 52 51 53 37 38 41 41 34 32 33 34 35 45 47 49 52 57 51 45 44 44 47 57 61 64 63 66 70 82 90 76 63 59 56 53 52 49 47 49 48 48 73 78 82 91 88 87 90
56 55 55 50 40 39 44 42 34 36 35 30 36 47 48 50 51 55 56 50 47 45 44 45 53 67 73 76 84 80 64 56 51 49 46 43 40 38 37 35 35 35 39 47 60 68 72 69 70
63 64 60 60 50 44 46 44 40 32 33 41 43 47 48 50 53 54 56 59 52 51 47 44 43 43 53 66 47 46 47 49 51 48 45 44 40 38 36 36 36 36 38 52 58 65 66 64 60
82 52 52 52 60 68 42 56 46 36 34 44 49 51 52 55 56 56 57 59 60 55 50 47 45 44 44 43 45 49 59 60 60 48 43 39 38 37 35 34 34 36 44 53 59 58 66 66 63
75 61 60 53 55 50 49 50 42 38 38 45 50 54 56 57 57 59 60 63 58 53 52 51 49 49 48 47 46 45 49 49 43 39 37 36 34 32 27 25 26 32 50 52 58 58 62 70 71
49 58 62 54 50 63 52 46 47 39 34 45 48 52 57 59 60 60 63 60 60 56 53 51 50 52 48 45 44 42 42 43 41 38 37 40 38 39 25 16 25 40 43 49 53 59 65 68 68
52 72 98 96 74 67 54 55 42 38 34 38 42 48 57 59 60 60 60 62 65 60 57 55 51 51 46 44 43 42 39 35 33 32 32 27 31 35 27 15 20 36 36 39 43 45 59 57 62
75 72 80 76 71 60 57 58 37 35 42 42 42 45 58 62 61 60 62 66 68 62 57 54 53 53 47 43 39 35 30 24 19 15 15 26 30 33 19 15 18 18 21 24 35 40 60 45 60
78 85 49 62 62 67 60 48 38 39 46 48 49 52 60 62 64 63 64 68 70 63 57 53 52 52 47 41 34 27 21 15 11 9 9 11 15 25 14 12 12 13 19 30 37 37 46 44 43
56 48 77 61 67 70 62 53 48 36 39 53 53 53 61 63 64 64 64 72 73 61 56 53 49 48 42 35 28 20 14 10 8 8 10 11 12 13 15 16 21 32 32 32 34 37 40 39 39
53 74 57 54 61 62 58 46 40 37 37 48 51 53 58 62 63 64 68 77 70 58 53 50 45 43 38 30 22 15 11 10 9 10 12 13 15 18 21 25 27 30 30 31 34 34 34 38 46
42 50 49 59 60 61 56 50 36 44 47 49 50 52 56 59 63 65 74 75 66 58 51 46 42 40 33 24 16 12 10 10 10 13 15 17 18 18 20 21 24 31 32 34 34 35 38 44 48

GFSSGP_925_rhum_012.txt.gz
RH
36 28 24 25 26 27 23 25 29 26 25 18 17 19 18 16 16 22 45 52 57 57 62 89 87 81 94 92 87 80 75 78 81 74 70 68 70 74 71 76 76 73 71 76 76 76 83 71 71
36 23 25 27 22 24 18 26 31 26 19 17 18 19 19 16 16 22 32 52 60 57 61 69 81 84 82 80 65 73 76 84 81 76 67 70 75 74 74 74 74 79 80 83 80 77 84 80 75
31 20 19 24 29 24 24 28 23 19 18 20 18 14 15 16 16 22 43 54 61 59 63 71 87 78 74 71 69 73 81 90 86 77 80 81 86 73 76 74 72 72 81 86 85 84 88 88 84
27 20 18 19 17 24 29 25 18 21 19 20 18 18 14 20 22 36 49 56 56 57 64 78 78 67 77 81 81 80 85 92 91 85 78 82 87 83 82 72 73 68 78 85 86 85 82 85 87
26 22 27 28 26 16 15 17 17 23 21 21 21 19 17 26 41 44 53 57 52 57 63 70 70 75 86 81 78 81 83 88 88 83 82 81 85 85 83 73 75 78 84 87 87 85 85 84 84
29 25 30 33 30 25 21 18 21 21 20 21 20 19 19 31 37 48 58 55 57 61 69 66 73 81 90 79 78 80 83 91 88 82 74 74 85 91 80 78 76 78 88 87 79 75 83 81 86
35 33 32 32 30 30 20 17 20 22 20 21 19 21 17 23 44 54 57 56 64 65 70 68 70 88 85 77 79 80 86 82 86 85 82 74 75 73 72 74 77 75 78 86 79 74 79 81 75
33 32 35 32 29 32 22 18 24 23 21 18 17 20 20 27 39 54 58 59 63 70 71 69 70 75 78 81 84 83 84 80 79 77 71 65 70 74 72 76 77 79 77 85 88 86 76 78 79
32 38 37 34 34 28 20 26 25 24 25 19 18 19 21 34 46 50 51 58 61 68 70 72 69 72 74 74 77 86 80 77 78 82 79 64 64 68 72 72 75 69 66 68 82 83 88 82 77
39 41 35 28 26 27 26 29 30 30 24 21 17 18 19 22 28 34 37 37 46 51 60 68 71 71 76 78 78 79 74 76 72 71 70 64 61 66 77 78 74 71 68 68 64 63 63 72 72
40 42 31 31 28 27 30 31 29 33 32 22 21 17 18 19 20 24 28 36 38 42 48 62 68 71 74 76 76 73 74 74 72 74 74 68 66 66 70 71 74 74 72 74 69 68 68 65 68
46 37 32 31 32 34 34 30 34 32 32 25 22 22 21 19 18 18 22 32 39 45 46 51 61 69 74 73 77 72 74 75 74 75 75 72 69 69 68 68 68 70 69 68 69 68 68 70 70
48 36 35 33 34 34 34 38 35 34 28 24 23 23 21 19 18 20 33 39 41 45 47 52 54 63 72 76 73 73 71 73 71 76 76 74 73 71 69 69 69 69 69 70 70 71 70 70 70
40 41 39 34 36 35 40 35 36 29 23 24 23 23 21 22 25 28 35 38 41 42 45 47 53 56 62 70 73 72 72 71 74 74 77 79 78 76 76 75 72 72 72 72 72 72 72 72 72
42 50 43 40 38 38 36 41 36 26 20 21 20 20 26 32 32 34 38 36 37 36 40 40 42 48 58 65 71 72 74 76 75 75 77 80 81 80 81 79 77 73 74 76 76 75 75 74 73
54 53 56 36 37 37 37 42 26 22 21 22 20 22 30 34 34 38 41 41 43 42 45 51 50 49 57 63 70 71 73 74 76 77 77 78 78 80 80 77 76 77 80 80 80 78 75 73 71
57 62 57 42 36 36 36 36 23 21 22 21 18 23 28 32 33 39 42 44 45 46 51 54 56 56 63 67 70 72 74 73 74 74 75 80 81 83 83 82 83 81 78 74 74 73 74 77 76
60 58 45 48 35 34 36 36 26 22 24 22 20 24 29 31 36 40 43 44 46 48 54 58 64 64 66 69 70 73 77 81 79 76 74 75 71 70 69 61 56 57 57 54 52 54 57 57 57
36 41 47 39 33 36 37 35 28 25 25 24 22 25 29 32 36 41 42 40 42 45 50 59 66 66 63 65 68 67 62 59 56 54 50 48 47 46 47 46 44 45 45 45 44 45 44 41 42
45 48 48 34 35 36 38 40 32 26 24 23 23 26 30 35 34 38 40 40 40 42 43 51 64 73 73 76 68 58 56 54 53 53 52 49 46 46 44 45 44 46 45 45 47 49 49 44 43
51 49 40 42 43 42 39 37 30 25 24 26 23 26 30 32 34 36 38 41 42 47 48 49 56 59 55 52 52 53 54 51 49 49 47 47 46 43 44 45 43 44 45 44 45 44 47 45 40
66 43 46 52 61 57 41 49 32 24 26 29 30 32 32 34 34 37 39 42 48 56 56 54 53 54 54 51 50 48 46 46 47 44 45 42 44 41 35 36 37 37 36 37 37 35 41 42 40
50 47 49 54 60 58 49 48 30 28 26 30 32 33 35 36 37 40 43 49 54 58 58 55 53 52 52 50 46 43 43 44 43 40 38 38 36 37 31 31 31 31 30 33 35 35 37 41 40
50 51 53 49 54 62 41 42 31 26 22 26 32 35 37 38 39 41 48 50 56 61 58 53 50 51 50 47 46 45 42 38 37 35 30 28 26 28 27 28 26 27 29 30 30 32 36 42 36
51 65 98 91 89 60 39 42 29 24 24 25 32 36 37 40 42 45 46 48 53 57 58 52 49 48 47 45 42 41 39 36 31 27 24 22 21 23 24 26 25 24 26 27 28 29 34 39 37
69 53 53 62 58 46 44 44 28 26 28 25 25 32 37 41 40 42 45 49 54 56 54 50 49 47 44 40 36 33 32 29 25 24 23 20 20 21 25 26 25 25 25 25 25 26 27 30 32
84 87 40 45 46 45 36 33 27 29 31 31 30 36 42 42 42 43 47 50 52 52 51 51 51 48 42 36 31 28 26 25 23 21 21 22 22 21 22 23 22 24 24 24 25 23 24 26 28
67 50 68 51 58 54 39 39 29 26 26 34 33 38 41 42 43 44 46 51 51 51 53 50 46 42 38 32 28 26 22 21 20 21 22 22 21 22 23 22 22 22 22 22 23 24 24 26 28
66 78 69 46 44 43 39 32 24 26 26 29 31 33 40 44 44 45 46 53 52 52 50 46 45 40 34 29 25 23 21 20 20 20 20 21 22 22 23 23 23 22 22 22 23 23 24 28 30
47 53 53 59 55 43 39 32 25 28 31 31 31 34 38 41 43 43 49 54 51 49 47 43 42 38 33 27 23 22 22 21 19 20 21 22 22 23 24 24 24 22 23 25 25 26 27 31 33

GFSSGP_925_rhum_015.txt.gz
RH
37 27 24 22 25 20 21 17 22 24 24 17 16 18 18 16 16 24 36 38 41 44 55 80 86 91 96 86 88 83 75 74 78 74 68 67 70 60 70 74 76 77 75 78 83 87 88 76 77
37 24 21 20 20 22 16 14 21 22 18 16 16 16 18 16 13 23 29 41 41 43 53 67 82 81 81 82 75 73 77 81 78 76 69 68 73 72 74 74 74 76 81 84 83 74 89 78 85
31 22 21 22 20 21 22 19 20 18 17 17 18 14 14 16 15 20 34 43 43 44 49 65 72 83 71 75 68 74 78 82 84 76 77 84 83 81 76 74 77 78 76 83 85 83 84 89 88
27 19 18 26 24 16 20 22 17 18 18 17 17 18 14 20 20 31 38 41 40 44 50 77 75 78 70 72 79 78 84 94 94 86 82 81 85 90 81 75 72 71 80 87 87 85 84 82 82
26 22 28 28 25 18 11 14 15 20 20 19 18 20 17 24 31 33 38 39 38 43 50 72 74 76 78 86 79 81 89 86 89 86 80 81 89 90 89 85 77 75 77 85 80 82 80 83 85
31 24 30 29 25 22 16 13 15 17 18 18 19 20 22 26 30 38 41 39 41 46 52 61 67 70 79 84 74 81 80 78 87 83 76 81 84 83 90 91 81 75 72 78 76 78 82 77 76
35 31 34 26 24 25 21 12 16 18 18 18 17 20 18 22 32 41 41 38 45 48 53 54 67 77 83 75 76 76 76 74 78 86 78 68 76 74 73 73 73 73 77 79 76 83 89 89 91
32 30 36 29 29 26 21 17 14 20 19 15 15 20 20 24 30 40 43 41 44 51 53 53 56 67 77 78 72 76 79 79 74 75 74 58 69 65 66 69 72 77 76 68 74 80 81 89 81
31 38 37 31 28 24 20 22 18 20 22 18 15 16 18 21 29 35 40 44 44 50 52 53 52 58 60 61 79 77 77 75 75 77 76 74 62 59 65 62 65 64 59 61 68 82 83 73 73
40 39 33 23 22 24 21 24 24 26 23 20 18 14 16 16 17 20 24 29 37 40 47 50 53 54 60 60 66 72 69 74 76 70 61 63 52 53 62 66 63 64 62 64 63 67 67 71 79
39 41 28 24 22 24 25 26 23 28 30 23 20 17 16 17 16 16 18 22 26 33 37 46 52 54 56 60 62 60 61 61 58 58 58 57 54 54 56 59 62 67 64 72 64 64 67 62 62
43 33 30 26 24 28 30 25 27 27 26 22 22 21 20 20 15 15 15 18 26 32 36 41 47 55 57 58 63 58 58 59 59 60 60 59 57 57 58 56 59 62 61 61 64 64 63 64 64
45 34 29 28 27 28 28 31 30 29 24 22 21 21 22 21 17 15 16 24 26 32 37 41 44 50 58 61 57 59 57 60 59 63 64 63 63 62 62 61 62 63 64 64 64 65 64 62 62
42 36 33 28 30 29 32 31 28 27 23 21 20 20 19 19 19 21 22 26 29 32 37 40 43 45 51 58 60 59 59 58 62 63 66 69 69 69 70 69 66 66 66 66 66 66 66 65 63
40 44 37 34 31 32 28 37 33 24 22 22 16 15 16 21 24 24 28 28 30 30 32 33 34 39 47 54 60 60 61 63 63 65 66 70 71 72 73 72 72 68 68 70 71 72 69 64 61
47 55 66 39 32 30 34 45 25 19 21 18 16 16 21 26 25 28 31 32 34 34 36 43 44 38 44 51 60 60 61 63 66 67 67 68 69 72 74 72 72 75 75 72 66 62 59 58 58
60 68 60 52 29 30 35 40 24 20 19 19 16 16 20 25 26 30 32 34 35 38 42 46 45 45 49 56 60 61 64 62 66 68 71 76 76 77 75 67 56 55 56 50 47 43 44 44 42
67 65 46 53 31 35 36 36 27 23 20 20 17 15 20 24 27 31 34 35 38 43 46 52 53 54 57 59 60 64 68 64 57 53 50 47 46 48 47 44 42 42 42 41 40 39 41 41 39
42 47 44 35 28 32 36 34 28 22 22 21 20 17 21 24 29 33 34 34 38 44 50 53 53 55 56 59 61 58 54 52 50 47 44 43 43 42 44 42 40 42 42 42 43 42 44 42 40
73 49 38 31 30 34 32 33 26 24 24 23 19 18 21 27 29 32 32 32 34 38 48 55 59 61 60 56 56 52 51 49 49 48 45 41 39 39 39 41 39 40 40 40 40 38 39 36 35
65 53 35 37 34 34 36 41 36 28 24 21 20 18 21 27 29 31 31 34 36 40 46 50 50 51 53 54 53 51 49 46 44 41 41 41 39 33 33 34 33 33 32 33 33 31 36 38 34
89 42 35 38 46 53 37 42 25 23 24 24 21 20 24 26 27 30 32 37 44 49 49 47 48 47 46 44 43 42 41 40 39 38 38 36 38 32 28 28 29 29 28 30 30 28 32 34 36
80 39 38 45 49 61 53 52 31 23 24 24 22 23 26 28 29 33 36 42 48 52 51 48 47 46 45 42 40 38 37 37 36 34 32 30 28 29 27 25 26 26 28 29 30 30 31 35 35
70 43 49 48 50 64 43 42 30 26 23 20 23 26 29 30 32 35 41 46 53 54 51 46 44 43 42 40 39 38 36 34 34 31 27 25 23 25 25 25 24 24 27 27 28 28 30 32 34
91 71 92 84 89 51 32 37 29 21 21 19 25 28 30 32 34 39 42 44 50 52 48 43 41 40 39 38 37 38 36 33 30 26 24 22 21 22 23 24 22 22 23 24 25 26 27 26 30
89 65 52 58 55 42 35 43 28 22 22 19 23 27 30 34 35 39 40 43 49 49 44 42 40 38 36 34 33 32 31 29 26 24 23 21 21 20 21 22 21 21 22 22 23 24 23 23 26
83 68 39 42 35 36 38 31 24 22 25 24 24 29 33 35 36 37 40 44 48 46 44 43 40 37 34 32 30 27 26 25 24 22 22 22 20 18 20 21 20 21 21 21 22 22 23 23 24
68 46 56 42 51 46 34 31 29 27 25 26 25 31 34 35 36 38 40 43 44 44 45 43 39 36 33 30 28 26 23 21 21 21 20 20 19 19 20 20 20 20 20 21 21 23 23 23 24
86 79 54 38 37 40 36 31 21 22 23 26 25 29 34 36 37 38 39 43 44 46 45 42 38 34 32 29 27 25 23 21 20 20 19 19 19 19 20 20 20 20 21 22 23 24 24 23 26
55 72 47 49 49 38 36 32 21 22 26 25 25 28 32 35 36 37 39 44 45 45 42 40 38 34 32 28 24 24 24 22 21 20 20 19 19 19 21 22 22 23 23 25 26 25 23 26 30

GFSSGP_925_rhum_018.txt.gz
RH
31 32 24 27 44 36 36 25 17 24 24 19 18 19 22 21 22 43 36 38 42 54 75 84 86 81 82 82 80 68 75 72 77 71 69 69 71 70 75 77 76 79 81 83 82 86 89 87 77
32 31 23 36 35 36 29 18 24 22 21 18 19 18 20 20 26 38 40 40 41 52 66 80 82 86 68 78 80 69 76 79 80 72 69 70 74 74 74 73 76 78 80 83 84 82 87 89 81
33 26 34 41 38 30 27 25 24 20 19 18 20 15 16 26 29 33 41 40 41 46 62 78 72 70 77 77 64 70 84 84 81 68 75 82 78 81 69 76 75 64 70 80 86 84 82 82 84
32 29 29 35 37 28 17 19 20 19 20 17 19 23 24 28 30 34 39 40 42 46 59 74 66 72 76 72 72 73 81 94 91 84 70 82 86 85 82 72 72 71 77 79 88 86 86 79 76
28 36 41 40 35 26 14 12 17 18 21 20 20 24 29 29 31 36 38 38 40 46 63 65 71 71 76 77 78 75 79 87 92 85 74 84 90 90 86 84 79 78 75 74 75 76 77 82 88
42 36 45 44 32 23 18 14 15 17 19 20 20 22 33 31 37 40 38 38 40 47 58 55 70 63 75 83 78 73 76 76 83 77 78 85 84 83 87 92 86 76 78 82 79 76 85 88 93
47 46 46 40 33 26 22 14 14 18 21 21 18 22 31 31 37 39 38 39 42 49 53 61 58 68 74 82 72 74 74 72 68 73 56 77 72 72 70 81 76 71 72 70 73 80 85 90 91
43 44 45 40 39 36 23 19 14 17 22 20 16 24 29 29 34 40 41 40 44 49 52 56 66 67 74 67 74 75 74 76 73 73 70 54 60 67 62 64 69 72 74 70 54 63 76 83 90
36 56 52 42 38 32 21 22 20 19 24 22 20 18 22 23 31 35 40 42 43 50 51 51 56 67 76 76 73 74 73 76 76 73 70 71 49 58 68 70 67 65 59 56 55 55 58 57 57
51 60 49 31 28 27 23 23 23 27 28 26 23 18 16 17 18 21 34 41 42 45 49 52 51 55 60 63 76 76 76 74 71 72 74 64 58 56 62 64 61 62 63 64 65 65 66 67 65
51 61 40 30 25 24 25 28 24 28 34 28 27 27 25 22 20 19 18 20 34 38 43 48 52 52 58 60 62 71 68 68 68 68 60 58 54 54 55 58 60 62 64 64 64 64 64 63 64
54 43 39 36 29 27 31 28 31 29 30 27 26 25 26 25 23 20 17 16 22 32 35 43 47 53 55 60 62 60 59 60 59 59 59 59 58 58 58 57 58 61 62 62 63 64 65 65 64
56 49 37 31 31 30 28 34 35 33 27 25 25 25 27 26 25 19 17 21 24 30 34 38 44 50 56 57 60 60 57 58 60 62 63 62 63 63 63 64 65 65 65 66 67 66 65 65 66
47 49 47 38 31 30 33 34 33 32 26 27 26 27 24 24 22 22 22 23 26 30 36 39 42 45 54 59 59 58 59 58 60 63 67 69 70 70 71 72 69 69 67 68 69 70 72 70 65
40 55 47 46 36 35 32 39 38 30 28 28 27 25 20 23 24 25 28 29 29 31 32 33 36 43 47 58 60 60 60 60 62 65 65 70 71 73 74 74 73 73 72 74 69 64 61 58 57
66 54 73 49 40 36 37 51 36 28 28 28 26 18 25 28 25 27 30 31 32 33 35 40 40 36 44 53 60 60 61 63 66 67 67 69 71 75 75 74 63 57 60 50 52 41 41 42 40
71 78 66 62 41 38 38 46 34 29 27 26 23 20 26 31 28 31 32 34 35 37 43 47 42 38 45 56 60 62 64 66 70 71 68 67 63 57 53 48 44 42 42 41 41 41 43 45 44
78 80 64 68 50 44 46 40 36 30 26 25 24 21 27 32 33 32 33 35 40 45 51 50 52 52 58 61 62 67 65 54 55 50 45 43 44 44 43 40 41 41 42 43 43 41 41 40 40
58 58 66 49 39 45 43 38 36 31 30 31 29 24 28 34 36 33 34 38 46 49 53 56 57 59 60 64 62 55 52 48 46 44 42 40 39 39 37 40 38 37 39 39 36 35 34 36 33
69 73 69 53 40 39 41 41 35 31 29 28 28 27 28 38 40 36 34 36 46 55 59 59 61 58 59 57 55 53 51 49 45 42 40 36 32 32 30 29 31 30 31 31 31 31 35 36 35
60 83 74 79 49 36 41 46 39 31 27 27 27 26 29 36 41 40 41 39 46 51 51 56 60 56 55 52 50 48 47 45 42 41 39 38 32 26 25 25 26 27 28 30 29 30 32 36 35
72 55 68 67 85 78 42 66 42 35 34 31 32 26 34 35 38 39 44 47 49 50 50 50 50 51 50 49 49 48 42 41 40 38 35 33 30 27 22 24 25 26 27 28 28 29 31 34 38
72 61 75 77 87 75 62 62 47 32 38 34 29 28 35 36 38 44 52 51 52 51 49 48 46 44 42 41 40 40 39 36 35 32 28 26 26 25 22 23 23 24 24 24 26 26 28 30 32
63 70 91 89 78 92 62 62 49 37 32 30 28 32 36 36 41 48 50 54 56 50 46 44 42 42 40 38 38 36 36 35 30 27 24 22 23 22 22 22 21 22 23 23 24 24 24 25 27
72 84 100 100 99 79 44 53 45 24 24 25 28 35 37 40 45 53 60 61 56 51 45 43 41 39 38 38 37 35 31 29 26 24 22 22 21 21 20 21 21 21 21 22 22 22 23 24 25
80 97 100 96 92 61 39 54 42 27 24 28 30 35 38 42 47 53 58 58 56 50 42 41 38 37 35 33 32 31 28 26 24 23 23 21 20 18 19 20 20 20 20 20 20 21 23 23 24
87 99 83 70 38 52 50 35 28 29 29 31 35 37 41 43 48 51 56 56 53 46 43 40 37 35 32 30 27 26 25 24 23 23 21 20 19 19 20 20 19 19 20 20 21 22 24 24 24
97 75 95 69 59 65 54 47 43 37 37 30 38 41 43 44 47 50 53 53 48 46 43 39 36 33 31 29 26 24 22 22 21 20 20 19 19 19 19 20 19 20 21 22 23 24 25 25 24
95 96 86 57 49 60 59 46 33 32 32 34 35 38 42 44 46 49 52 49 46 46 44 38 35 32 30 28 25 24 23 22 20 20 19 18 19 19 20 21 22 23 24 24 26 27 27 27 26
81 75 65 58 58 56 50 45 28 31 29 32 32 37 41 43 45 49 51 49 48 47 43 38 34 32 29 26 25 25 23 22 21 20 20 20 20 21 22 23 24 26 27 27 28 28 29 29 38

GFSSGP_925_rhum_021.txt.gz
RH
28 27 31 28 40 46 43 34 19 29 26 21 19 20 23 24 27 45 42 48 53 63 74 87 80 81 73 83 78 64 68 73 74 71 68 72 75 78 77 77 79 80 81 82 84 86 90 84 84
31 31 29 39 35 38 39 25 30 25 22 22 20 20 22 28 37 48 43 48 51 57 67 80 78 80 66 79 81 70 66 77 76 72 67 70 73 79 75 75 81 74 75 78 83 77 73 84 76
36 34 39 45 47 39 32 25 23 20 20 21 22 19 25 35 39 44 40 45 54 62 58 70 80 69 76 82 64 65 72 78 77 69 71 80 73 75 68 78 73 70 72 69 74 79 65 62 65
40 36 38 40 42 34 28 20 20 19 20 22 21 26 34 33 35 41 40 42 54 65 71 68 69 62 83 71 66 72 79 88 82 66 70 79 77 79 78 66 72 74 75 73 79 80 76 77 77
37 48 48 47 44 35 26 14 17 19 20 21 20 25 36 35 38 40 40 43 47 60 72 70 67 66 83 71 76 80 86 94 93 72 73 82 90 76 84 70 74 77 75 76 78 77 78 80 91
52 49 58 58 46 33 27 16 17 17 19 22 22 24 38 40 38 39 38 42 47 57 65 67 72 68 81 79 82 76 78 74 88 78 80 87 77 76 86 88 84 76 75 85 86 82 82 91 93
60 62 62 51 47 40 29 15 17 20 23 24 23 27 35 40 40 40 38 43 50 54 56 50 74 62 72 80 78 73 74 70 67 62 72 76 72 69 70 94 87 76 76 79 79 82 87 86 91
59 61 62 56 51 47 31 20 15 18 22 21 19 28 36 35 39 41 40 40 48 52 55 56 55 63 69 77 73 75 73 71 68 65 57 48 58 64 64 59 67 70 73 73 59 55 59 60 56
54 75 74 62 51 41 32 24 20 20 24 24 22 21 25 31 37 42 41 43 48 52 54 57 59 61 65 63 70 78 74 74 72 66 63 69 42 48 63 71 71 69 62 55 55 57 64 66 66
74 84 67 45 41 38 32 28 24 26 30 29 28 25 24 33 37 44 46 46 46 50 52 56 58 65 69 73 72 73 75 69 66 68 69 67 58 59 61 68 62 62 64 64 65 65 66 66 65
68 79 56 44 38 34 32 30 26 30 33 31 31 29 26 24 23 22 30 43 42 46 50 52 56 59 66 80 77 74 72 71 69 72 70 68 62 57 58 59 60 61 63 64 64 65 66 67 66
82 62 56 50 44 42 38 30 32 32 34 29 31 30 28 29 29 24 22 20 26 43 46 50 52 54 61 62 63 64 70 70 69 69 66 64 60 58 58 59 60 63 64 66 67 67 67 66 66
68 59 52 46 44 40 37 39 37 35 32 29 29 28 31 32 31 24 21 22 25 40 42 46 49 53 56 62 62 64 67 64 62 62 62 62 63 64 66 67 68 68 68 68 67 70 70 68 67
50 52 51 51 50 43 40 39 37 36 32 32 31 32 32 31 32 25 23 22 28 33 39 44 46 50 55 59 62 60 60 59 61 61 66 68 68 70 73 73 69 72 67 69 70 64 56 54 52
65 66 53 51 52 53 44 45 42 35 33 35 32 34 30 27 28 28 30 30 30 36 40 40 41 46 54 58 60 61 59 58 60 64 64 71 72 75 76 76 66 63 58 56 54 53 48 44 42
73 71 77 53 50 47 46 63 43 36 37 39 35 36 30 32 30 32 31 32 32 33 34 35 38 45 52 59 61 59 60 60 62 66 68 68 70 74 71 60 49 46 47 46 41 38 39 41 38
85 90 83 67 50 52 49 57 42 37 37 35 37 36 34 37 40 34 33 34 35 37 41 40 38 36 51 61 64 64 66 65 66 66 65 65 55 50 55 43 41 41 41 40 40 36 34 30 34
69 88 83 82 56 54 60 56 46 39 38 37 39 30 36 39 42 35 34 36 40 45 47 47 41 41 64 65 64 64 63 60 56 56 52 48 45 43 40 37 35 34 37 35 29 26 22 32 31
72 79 82 66 53 59 57 56 49 42 35 41 36 33 39 44 45 37 38 44 48 54 54 56 62 65 64 65 61 57 49 48 45 43 41 37 33 31 31 28 25 25 29 27 26 26 23 24 31
77 87 86 67 58 61 56 58 45 40 38 37 37 38 46 50 48 47 44 53 60 63 61 61 63 66 66 64 59 53 47 44 41 36 32 29 26 24 23 22 23 22 24 21 25 28 29 32 32
79 87 80 73 62 60 68 67 52 41 35 34 35 33 41 46 48 52 58 59 57 62 62 61 63 64 61 58 52 49 43 41 39 38 35 29 26 22 21 21 20 21 21 21 22 26 29 36 31
80 58 60 61 75 86 69 87 64 46 40 37 36 41 43 48 46 50 60 62 55 56 57 58 56 55 54 52 48 46 45 43 41 36 32 28 26 24 20 20 21 21 20 20 22 23 25 26 32
68 56 64 62 77 84 85 96 69 45 42 36 34 45 45 46 46 54 63 60 56 52 50 52 53 51 49 47 47 42 40 39 34 31 28 26 24 23 19 19 20 21 21 22 22 22 22 22 28
61 69 69 78 81 97 84 95 68 53 40 36 34 44 45 46 52 62 64 58 55 49 46 43 43 43 45 44 40 37 35 31 28 25 24 23 22 21 19 18 19 20 20 21 21 21 21 22 24
81 85 92 93 95 89 65 85 75 37 34 36 36 44 44 50 60 68 69 67 58 49 44 42 40 40 38 38 37 35 30 27 25 23 22 22 21 19 19 19 18 18 19 19 20 20 21 22 24
89 78 80 90 78 68 77 97 63 38 32 31 37 41 46 58 63 68 69 68 58 49 44 40 39 38 37 34 31 29 28 26 25 24 22 20 19 19 19 18 17 17 18 20 21 22 23 24 25
86 95 59 95 96 83 90 52 32 34 41 43 46 46 52 60 64 69 69 65 55 48 42 39 36 34 33 31 29 27 26 25 24 22 21 20 18 18 16 17 17 18 20 22 24 24 26 26 27
72 59 90 100 98 98 75 53 50 41 45 46 48 49 54 58 62 66 67 64 54 46 40 37 34 31 28 27 26 24 23 22 22 22 20 17 17 17 17 18 19 21 24 25 26 27 27 28 30
94 99 75 83 86 85 78 59 38 38 38 46 48 48 53 57 59 64 65 60 53 45 40 36 33 30 28 26 24 24 22 22 22 21 19 18 17 17 18 20 23 26 27 28 29 29 30 31 35
63 84 72 86 94 74 60 51 36 38 37 41 46 48 52 53 57 62 62 60 56 48 41 35 32 30 27 26 26 24 23 23 22 21 20 18 18 19 20 24 26 28 29 30 31 31 30 34 38

GFSSGP_925_rhum_024.txt.gz
RH
33 29 33 31 36 45 45 37 24 27 27 22 21 21 23 27 27 39 49 54 57 66 86 85 76 86 73 84 84 69 66 70 76 73 74 81 78 82 79 79 80 80 81 80 82 85 89 80 75
35 37 33 45 37 37 38 27 26 23 22 25 24 23 25 40 44 50 62 59 52 63 83 85 81 78 70 78 90 82 66 72 74 71 69 73 77 80 77 81 80 77 72 74 75 70 78 80 76
35 39 43 47 51 44 34 26 26 21 20 24 22 27 34 40 47 47 46 58 57 61 73 82 82 80 73 90 83 72 65 82 77 75 75 76 74 82 80 80 74 72 73 70 78 78 66 63 71
45 41 42 46 47 41 29 31 24 20 18 21 23 34 36 37 38 41 48 55 58 60 63 75 80 79 84 85 73 69 71 84 81 72 73 84 80 76 70 71 72 75 76 78 78 77 78 82 82
44 53 54 52 50 39 32 26 21 20 20 22 24 29 41 39 41 41 49 55 56 63 62 73 81 73 86 78 75 79 81 93 90 80 83 86 84 77 80 77 70 77 73 79 82 79 80 82 88
61 55 66 63 49 38 35 29 20 19 21 23 24 34 40 42 43 42 45 50 53 61 73 72 74 73 83 73 80 81 91 94 94 82 84 89 78 73 82 80 80 74 72 74 82 88 85 88 94
67 68 68 58 52 48 36 28 20 21 25 24 24 37 37 42 41 40 42 47 54 63 74 75 76 72 80 75 80 80 82 71 80 74 82 79 72 69 77 91 87 76 77 84 80 73 77 77 80
65 69 70 63 59 54 36 27 16 19 20 22 21 39 39 36 41 41 44 48 57 63 63 61 73 72 74 78 82 75 75 70 63 57 56 68 66 66 67 78 76 75 77 73 62 55 55 61 66
60 86 87 67 59 47 36 32 25 21 26 25 23 25 24 29 43 43 49 63 66 64 57 55 59 63 67 77 76 75 77 74 69 66 61 64 51 51 65 69 69 68 66 64 63 64 66 68 67
87 94 80 57 50 47 39 34 32 28 31 30 28 26 33 37 46 48 50 52 61 65 62 56 56 55 65 71 71 76 77 74 68 62 66 66 57 52 59 64 68 66 65 65 66 66 67 68 68
82 89 64 54 46 44 44 38 30 31 35 32 30 29 27 35 44 49 49 48 48 53 59 59 57 59 66 72 70 76 76 71 70 70 68 70 70 61 60 62 65 64 64 65 66 68 68 68 67
84 72 65 61 53 54 53 37 43 34 33 28 30 31 29 32 34 33 33 38 45 49 53 55 58 60 66 75 75 75 74 72 72 72 74 73 67 60 62 62 62 64 66 68 69 69 72 73 71
76 70 60 60 59 55 50 53 47 41 34 33 32 31 32 33 34 28 26 23 20 36 46 52 55 58 63 75 74 73 71 70 69 74 72 69 64 63 64 70 72 72 70 72 76 72 68 61 59
60 62 61 55 55 56 59 56 44 40 36 37 34 33 34 34 33 30 28 24 28 27 38 47 54 56 61 66 64 65 66 70 70 66 65 67 68 71 75 76 74 68 66 62 58 50 51 50 48
62 77 69 58 52 58 54 64 61 43 38 38 37 35 36 34 31 29 26 26 29 28 37 44 50 55 59 64 65 66 58 63 67 70 72 72 74 77 78 73 64 53 57 50 52 49 38 33 32
75 75 83 52 53 53 57 75 53 42 43 42 41 41 42 38 32 29 32 33 34 38 41 48 51 54 59 61 64 64 68 67 69 70 70 71 69 69 69 62 55 48 48 44 36 33 28 22 21
84 97 84 72 52 56 61 62 51 44 45 44 42 43 41 38 38 36 34 33 34 34 37 40 44 50 61 65 67 66 69 68 68 67 65 65 66 65 61 48 42 39 35 32 27 21 18 23 16
70 86 83 81 64 58 62 63 54 50 46 44 39 35 41 41 43 39 36 36 38 40 42 41 40 45 67 69 68 64 65 63 61 61 60 59 52 46 38 32 28 26 24 22 18 18 16 27 23
73 77 87 77 62 72 68 61 51 48 50 51 49 47 40 44 44 41 39 42 50 51 50 48 45 64 70 66 61 59 54 52 55 49 45 42 35 31 26 23 22 22 21 19 20 17 18 25 25
85 88 84 70 56 62 68 72 60 50 45 44 43 44 40 50 52 52 54 57 59 60 64 67 67 69 66 63 60 57 52 46 42 36 31 28 24 23 22 21 20 20 18 16 19 21 22 26 28
87 91 79 77 67 56 57 61 60 52 50 43 39 38 43 48 53 59 76 71 68 67 69 73 72 67 63 61 57 50 44 37 32 30 27 25 24 22 21 20 19 18 17 18 21 22 23 29 27
90 69 73 74 75 90 70 80 62 55 52 48 42 44 46 48 52 62 77 74 70 68 67 70 68 65 62 60 54 47 43 40 36 31 28 26 24 22 20 19 19 18 19 19 20 21 21 23 31
74 56 63 71 82 80 72 86 68 57 57 50 43 39 43 50 52 67 72 70 66 63 65 66 63 61 58 56 51 42 39 38 35 30 27 25 23 21 19 18 18 18 19 20 20 20 21 23 26
65 69 70 73 84 92 65 78 68 66 59 46 42 43 44 51 55 70 70 67 63 61 59 58 57 55 53 48 43 39 38 37 32 29 26 24 22 20 19 17 17 17 17 18 20 21 22 24 25
63 79 92 100 96 80 51 72 60 58 54 42 38 46 52 51 66 74 71 67 61 56 55 55 53 54 50 44 40 38 34 29 26 24 24 23 21 20 18 17 16 16 18 20 21 22 23 25 26
79 77 91 91 97 62 67 81 63 50 40 36 39 41 52 60 66 70 68 64 59 53 48 48 48 47 43 39 36 32 28 26 25 24 24 22 20 19 18 17 17 17 20 22 23 24 26 26 26
88 94 61 79 76 96 86 77 57 54 44 45 46 53 58 65 71 71 69 62 57 51 46 42 40 38 36 33 30 27 27 27 26 24 23 20 18 18 16 17 17 20 23 25 26 28 28 28 30
70 64 93 94 98 83 78 91 62 50 48 56 56 58 64 70 74 73 66 62 57 49 43 40 37 34 31 29 28 27 26 26 24 23 20 18 17 16 16 16 19 23 26 28 29 30 30 31 31
94 98 85 66 78 95 78 76 43 38 42 57 60 63 68 73 75 72 68 61 56 47 41 37 34 31 29 28 26 25 24 24 23 22 19 18 17 16 15 20 24 26 28 29 31 31 32 33 34
94 83 79 78 71 96 98 71 39 42 45 48 55 58 64 68 72 72 67 64 56 49 41 36 31 28 26 25 24 24 23 24 23 22 20 18 16 16 20 24 26 28 29 31 31 31 32 35 40

GFSSGP_925_rhum_027.txt.gz
RH
44 35 37 30 39 47 42 37 27 28 27 23 25 26 26 32 28 37 53 58 59 65 82 81 72 85 91 97 95 81 69 69 79 78 85 79 72 79 81 82 81 81 79 76 80 90 96 91 80
40 37 34 47 45 38 38 30 28 25 21 25 25 24 28 42 46 55 63 62 64 68 83 85 74 86 82 88 91 82 79 73 77 73 78 83 81 81 80 80 78 78 80 82 80 80 86 82 75
38 39 42 49 54 51 36 27 28 26 23 24 24 33 36 43 48 55 47 54 69 70 80 83 77 82 75 85 91 88 85 78 76 72 73 74 78 81 80 82 76 81 77 79 83 77 65 61 65
46 45 46 50 52 45 30 29 29 27 19 22 25 35 38 38 42 43 49 55 64 61 73 81 78 79 76 87 86 83 89 88 79 80 82 81 74 83 82 81 72 77 74 72 75 74 74 75 83
44 56 58 57 55 42 35 30 26 25 22 22 23 31 43 40 44 45 52 57 58 61 71 81 79 80 79 90 81 87 88 91 84 80 84 87 81 82 81 77 81 79 67 74 84 81 82 84 88
65 60 71 65 50 40 38 32 26 22 22 24 26 41 42 42 48 50 54 53 58 56 67 79 83 82 82 87 76 86 89 91 93 82 86 88 77 72 78 84 78 80 72 75 79 87 88 86 91
70 69 73 62 54 48 38 31 30 26 24 26 26 40 37 41 43 48 52 56 59 62 65 76 84 80 85 81 78 84 84 94 95 84 86 88 75 70 77 81 86 82 73 81 84 77 74 80 84
72 73 75 70 59 54 36 30 22 22 22 22 26 41 36 35 39 46 50 58 61 65 71 72 78 75 84 81 78 79 80 75 70 66 76 74 72 69 70 85 82 74 74 81 74 67 65 70 72
64 87 89 70 64 50 37 36 31 25 25 26 25 32 27 33 44 48 58 72 78 77 76 77 76 77 77 81 79 82 79 75 65 61 56 63 62 62 65 67 70 72 73 73 71 71 70 71 70
88 95 76 61 55 50 40 38 36 33 35 31 29 30 41 46 47 52 61 74 80 81 78 73 69 74 75 80 84 82 80 79 74 69 68 69 57 46 59 66 69 70 70 70 69 69 69 70 70
87 87 64 61 53 48 50 44 37 36 39 35 32 31 36 43 52 54 54 59 64 65 72 67 63 66 68 75 80 76 81 80 75 70 68 72 67 64 63 63 65 67 68 67 69 70 72 72 69
82 73 72 65 57 60 61 46 46 41 37 32 33 32 30 35 47 51 52 48 52 57 58 61 62 63 62 71 73 72 80 78 75 73 73 75 74 66 63 65 65 66 70 72 72 69 68 64 60
81 74 66 63 67 66 62 66 62 53 43 37 36 36 37 36 36 31 30 30 30 42 50 57 60 62 62 71 75 75 77 75 73 76 78 77 75 66 66 72 77 76 72 73 65 62 60 54 54
63 64 66 59 61 61 64 63 58 52 41 41 40 38 37 36 38 32 31 30 27 25 26 47 56 60 63 69 74 76 74 74 76 79 77 74 70 75 81 79 73 62 63 60 55 53 49 46 40
64 78 70 68 58 59 53 61 63 54 54 50 44 41 38 37 34 35 27 27 24 25 28 37 50 56 62 66 71 75 74 82 85 76 70 76 81 79 76 72 66 60 53 51 46 39 31 26 22
76 78 88 56 62 57 55 67 54 49 52 52 47 46 43 42 38 32 28 27 26 27 31 37 50 56 60 64 72 81 78 80 73 75 77 75 70 70 68 65 58 50 46 38 31 24 18 17 15
84 96 88 71 57 55 67 63 50 50 54 54 51 48 45 44 41 32 29 31 33 36 39 45 52 57 62 71 77 77 75 76 77 75 71 68 68 68 66 54 46 36 29 23 20 17 15 19 14
76 98 84 82 62 66 70 66 54 53 55 59 54 51 46 46 41 33 34 37 37 37 42 48 57 63 71 76 76 74 73 70 66 65 62 62 63 53 44 31 26 23 21 19 16 14 15 26 16
88 86 84 79 64 72 75 72 65 58 55 51 59 54 48 49 40 39 39 40 44 44 44 44 50 68 72 72 66 65 62 60 57 58 55 58 47 32 24 23 22 20 19 15 15 14 14 19 20
89 96 86 75 64 64 69 69 56 50 49 55 51 51 47 45 49 48 46 52 57 53 53 53 51 72 72 69 64 61 55 53 47 40 34 30 25 23 23 22 21 19 16 15 16 17 17 18 28
86 87 69 71 60 63 72 64 45 38 42 49 51 45 43 47 50 55 67 68 66 67 67 64 61 70 68 65 60 54 48 40 31 27 25 24 23 23 22 21 20 18 16 17 18 20 20 25 25
88 72 76 80 86 88 70 81 51 46 46 45 47 49 47 50 47 51 80 83 77 73 78 71 68 69 65 61 58 55 46 37 30 26 25 24 24 22 21 20 18 17 17 17 18 19 21 23 30
73 61 77 78 85 87 75 95 67 51 48 47 59 51 51 50 52 65 79 80 76 75 80 73 70 65 61 59 58 55 44 34 30 27 26 24 23 21 20 18 17 16 16 17 18 19 21 23 26
62 69 74 76 88 97 67 80 56 40 42 55 54 53 51 48 53 66 81 78 78 76 76 70 65 61 59 58 56 54 38 34 29 27 25 23 22 21 18 16 16 15 16 17 20 21 22 24 26
68 91 97 97 96 83 56 71 55 41 49 53 51 49 50 55 65 83 81 79 75 74 72 68 64 61 58 54 48 39 35 32 29 27 25 24 22 20 17 16 15 15 18 20 22 24 25 26 27
86 87 95 90 92 84 49 71 49 39 32 29 28 37 49 60 70 75 76 74 71 69 67 65 61 58 52 45 40 38 35 31 27 25 25 23 21 18 17 16 16 18 21 23 25 26 27 28 28
99 98 72 87 68 89 80 67 56 36 55 56 50 51 60 65 72 76 73 67 65 63 60 60 56 52 46 42 38 32 28 26 25 24 24 21 19 17 17 16 18 22 25 27 28 29 29 30 31
83 65 95 98 96 91 60 68 73 52 40 30 42 55 61 67 74 75 69 63 60 57 56 54 52 46 40 35 31 28 27 26 25 24 21 19 18 17 16 18 23 25 27 29 29 30 30 31 33
93 96 90 75 84 90 75 48 29 42 37 39 58 68 71 75 77 74 66 61 58 52 49 46 44 38 33 29 28 27 26 25 24 23 20 18 17 17 18 23 25 27 28 30 29 29 30 35 38
63 71 77 81 88 76 71 65 45 52 49 49 66 73 79 79 75 70 67 62 55 51 45 40 36 32 29 28 27 26 25 25 24 22 20 18 17 19 23 25 27 28 29 30 30 30 36 41 43

GFSSGP_925_rhum_030.txt.gz
RH
42 36 35 29 40 48 42 37 30 28 28 25 25 26 28 29 33 41 55 61 58 64 79 76 72 84 95 96 92 74 72 73 83 80 81 92 83 73 80 83 82 80 77 80 75 79 91 91 84
44 37 32 48 48 46 41 33 31 26 24 25 28 30 29 39 48 52 64 62 61 64 79 78 74 83 93 98 94 77 76 81 77 80 92 78 75 81 80 80 78 79 82 80 79 83 86 84 79
43 38 41 49 57 55 41 27 28 30 28 24 26 32 37 42 49 53 48 58 68 71 81 82 76 88 88 96 92 82 87 83 77 74 80 83 79 81 82 79 75 82 76 74 73 67 61 59 54
46 45 49 52 54 47 33 24 31 32 23 23 28 35 38 39 44 45 48 57 68 75 81 84 78 85 85 87 88 91 90 84 78 75 76 76 79 80 81 85 78 79 67 68 72 67 66 66 76
46 59 57 59 56 44 38 33 31 31 25 23 24 30 40 41 46 45 51 57 64 77 86 84 79 84 82 88 90 89 92 91 82 82 85 80 79 88 86 85 78 79 63 68 83 84 84 85 89
66 62 72 69 53 42 40 35 32 25 23 24 28 42 41 42 48 54 54 55 60 61 78 82 83 80 77 91 88 83 88 92 88 82 85 86 82 79 80 85 79 81 74 78 85 92 94 92 90
70 73 74 63 57 48 39 33 31 32 26 25 26 36 36 39 47 52 55 58 61 63 69 80 83 81 79 89 85 82 85 86 90 86 86 88 77 70 76 79 80 88 84 88 97 97 95 88 89
78 71 77 72 60 56 36 33 28 22 22 24 29 38 34 34 46 51 65 68 69 70 70 75 81 85 78 91 83 79 83 81 81 76 82 85 78 70 80 83 85 84 85 88 95 91 85 78 75
67 87 93 74 66 54 39 38 34 30 27 30 27 33 28 35 49 51 61 74 76 75 73 76 82 88 80 90 82 82 84 79 72 70 72 80 76 71 68 71 77 76 76 78 80 77 76 75 74
88 97 79 65 58 50 44 43 39 38 42 35 32 30 43 47 54 59 66 74 80 76 75 78 80 85 82 90 84 85 82 79 74 69 66 65 62 55 62 70 73 74 73 73 73 73 72 73 72
88 89 69 65 58 54 55 50 41 42 47 39 34 37 37 52 57 58 59 64 68 72 75 75 79 80 83 88 84 85 80 79 78 73 72 72 68 59 58 63 65 68 71 71 72 73 73 71 65
84 78 77 71 63 68 66 59 64 47 43 34 39 35 35 34 56 59 56 53 56 63 65 71 74 77 79 82 78 80 78 81 78 74 72 73 74 73 68 67 67 68 71 74 71 66 66 60 58
86 80 69 64 64 70 68 73 73 67 52 47 47 42 40 39 38 35 43 45 45 47 50 57 65 70 71 79 74 77 75 80 77 78 77 76 78 78 67 69 76 77 70 67 62 60 58 52 50
66 67 68 63 60 61 67 64 64 60 56 55 48 46 44 43 39 34 32 28 29 27 28 32 51 62 67 72 70 74 75 79 81 81 82 83 83 68 74 81 75 62 60 57 54 52 48 38 28
68 82 75 71 65 62 58 68 69 50 56 58 56 54 47 43 38 38 29 28 26 26 26 27 32 54 65 67 68 74 78 82 85 85 84 73 71 78 82 71 63 60 52 49 44 33 24 20 17
75 80 93 62 65 59 60 71 51 46 53 61 61 60 53 45 39 34 32 29 26 26 26 28 35 49 65 67 68 77 86 87 89 86 74 75 79 71 67 67 58 50 42 32 23 19 17 17 15
78 83 86 75 57 61 73 69 56 52 56 65 65 61 54 48 45 35 32 30 28 28 30 32 39 52 68 71 76 88 90 87 85 78 79 74 67 69 70 63 50 32 24 21 18 16 15 17 14
74 72 62 74 65 69 75 74 60 57 56 55 60 60 59 54 46 37 34 30 31 36 40 42 54 67 73 80 88 88 83 80 79 77 69 66 63 64 63 49 26 22 21 20 17 14 14 17 14
77 93 90 75 66 76 75 69 58 51 59 64 60 55 60 56 45 40 34 35 40 41 45 49 63 76 77 84 80 74 71 70 67 62 60 57 53 48 31 24 22 21 21 17 15 13 12 16 16
85 87 77 70 65 71 71 68 56 52 52 52 58 56 56 54 51 47 42 44 46 45 48 50 67 78 78 77 74 71 66 60 61 55 50 39 32 25 24 23 23 20 18 16 14 13 14 18 22
88 91 84 78 62 63 70 66 44 35 38 40 39 41 46 53 53 52 55 54 56 57 55 54 65 78 76 73 69 62 56 49 40 34 30 25 24 24 24 23 22 18 16 15 15 16 16 20 21
89 74 76 80 88 92 72 82 51 41 41 41 39 44 53 53 55 52 57 73 66 64 65 61 62 75 73 69 64 62 50 39 34 27 25 24 24 24 23 22 18 16 14 14 16 18 20 22 27
76 69 79 83 95 98 85 92 66 48 48 44 50 58 53 50 53 52 60 61 65 71 75 72 66 72 70 64 61 56 47 39 28 26 24 23 23 22 21 18 15 14 14 15 17 20 22 23 25
64 74 76 92 97 95 69 82 58 44 36 33 48 49 51 54 60 53 61 75 78 83 83 76 71 69 66 61 56 54 50 33 27 26 25 23 23 21 18 16 14 14 15 17 20 22 23 25 26
82 100 97 98 97 86 64 79 55 38 34 41 43 51 59 59 62 82 90 91 91 89 83 75 70 65 61 58 55 53 43 33 28 26 25 24 23 20 17 15 15 15 18 21 23 24 25 26 27
82 88 95 92 86 85 59 76 49 39 35 31 32 38 47 55 72 82 84 85 87 88 80 74 69 63 60 57 55 47 38 30 27 26 25 24 22 19 17 16 16 19 22 24 25 26 26 28 29
98 98 72 97 96 96 80 67 52 46 44 48 51 38 35 52 79 84 86 83 84 84 78 73 67 63 58 54 46 38 32 29 27 26 24 22 19 18 17 16 19 22 25 26 26 26 27 28 30
81 79 97 98 96 94 76 68 56 45 30 30 38 33 53 65 82 86 87 82 78 76 73 69 64 58 50 44 38 34 30 27 25 25 22 20 18 17 16 19 22 25 27 28 28 26 26 30 34
97 96 100 89 95 92 72 51 32 29 26 43 50 38 50 75 82 85 80 73 69 66 65 60 55 48 42 36 32 28 26 25 25 23 20 18 17 17 20 22 25 27 28 28 27 26 30 37 40
68 77 78 84 88 86 82 55 32 43 55 58 61 64 73 79 87 80 72 66 62 59 55 51 46 41 35 31 28 27 26 24 23 22 20 18 17 20 22 24 27 28 28 28 26 28 37 44 47

GFSSGP_925_rhum_033.txt.gz
RH
40 37 35 28 37 38 36 31 32 28 28 25 24 25 26 26 32 35 58 64 62 71 80 86 77 84 93 90 75 67 69 70 68 81 83 96 84 75 70 84 81 78 75 70 74 87 93 87 84
43 36 30 43 39 42 36 31 31 28 25 25 27 31 28 33 44 48 58 64 63 73 79 88 77 82 91 92 79 72 74 82 80 81 86 90 73 79 81 79 77 81 81 74 64 77 81 79 75
45 36 38 42 46 42 37 29 29 29 27 25 27 33 32 37 46 48 52 60 65 75 79 78 76 79 93 96 86 75 76 74 79 80 89 79 69 80 80 76 81 81 70 73 72 66 67 64 56
45 43 41 43 44 43 34 25 30 30 23 23 27 33 37 40 45 47 50 61 65 75 82 80 81 88 89 89 86 82 86 84 77 76 80 83 76 80 82 82 76 78 64 71 73 70 67 69 77
45 50 49 53 48 41 37 33 31 31 27 22 25 28 37 43 46 46 58 59 64 76 84 86 79 89 87 88 88 90 91 86 81 78 81 77 78 84 85 85 77 79 65 71 86 86 86 86 90
58 52 58 56 50 43 37 34 32 29 26 22 27 36 35 43 50 57 61 62 65 66 82 84 83 86 86 88 88 88 92 92 85 84 86 74 84 86 84 90 80 80 76 84 92 92 94 94 94
65 62 64 58 54 44 38 30 31 30 30 24 28 33 32 38 48 58 66 70 70 69 75 85 95 89 82 90 88 83 84 87 85 83 84 77 78 74 74 77 78 86 85 92 85 90 97 91 91
66 60 71 63 52 49 36 36 30 25 24 23 28 31 30 34 50 63 67 72 75 74 76 84 86 90 89 95 89 79 81 82 80 74 80 83 80 71 88 83 81 84 86 89 88 95 92 84 79
65 79 79 66 61 48 40 39 34 32 30 33 28 29 36 44 54 66 75 76 75 76 74 81 86 89 88 90 94 82 84 81 77 74 75 84 79 72 70 76 78 79 81 79 83 80 76 75 74
80 91 75 63 54 49 45 45 43 38 40 37 32 30 40 53 63 63 66 73 86 79 76 78 84 89 90 91 94 86 85 85 78 71 66 72 73 68 66 70 74 75 74 73 74 74 74 74 72
85 90 69 64 57 58 60 56 44 44 50 40 35 33 34 48 57 60 60 62 68 72 72 75 82 89 92 88 91 88 87 82 79 72 68 68 66 55 55 62 65 68 70 72 74 74 71 65 60
83 78 79 71 64 67 68 62 66 56 47 36 37 39 38 36 36 54 56 58 60 61 60 67 76 84 91 88 88 86 87 81 80 71 71 72 73 71 70 68 68 69 71 75 71 65 62 59 56
86 78 69 65 60 60 64 68 65 66 55 48 47 48 44 40 37 36 44 51 52 53 54 61 70 78 81 83 86 85 85 81 79 74 70 73 77 75 68 69 73 78 71 66 62 59 55 51 43
68 68 67 64 60 58 62 57 64 54 53 54 54 49 44 41 39 37 35 32 36 31 30 39 53 69 75 75 77 78 82 79 82 77 75 78 81 79 68 76 78 63 60 58 55 52 46 34 22
70 79 71 68 64 63 56 64 68 48 47 46 48 50 49 46 42 40 36 31 29 27 27 28 29 38 67 74 71 73 77 80 83 82 82 82 81 69 76 79 69 60 57 52 44 31 22 19 17
74 74 82 63 61 61 56 60 50 42 50 52 48 44 43 41 38 38 36 34 28 28 28 28 30 32 51 74 70 71 80 82 86 86 86 86 76 79 75 67 62 55 46 31 22 19 18 18 16
79 87 88 68 57 63 67 69 53 53 52 52 53 55 53 50 44 42 37 36 32 30 29 29 30 40 52 80 76 75 84 88 91 89 88 80 82 73 68 65 59 40 24 21 20 19 18 16 14
82 90 72 64 55 66 68 67 54 48 50 48 48 51 51 51 46 42 38 36 33 31 30 33 36 52 72 86 85 86 93 95 94 88 81 83 71 66 63 56 44 22 22 22 19 16 14 14 12
78 86 79 67 59 70 65 64 56 48 48 49 46 45 44 50 43 42 38 36 35 32 36 43 50 68 81 92 93 91 90 88 85 83 76 66 65 56 50 37 23 23 24 19 15 13 14 16 13
79 84 69 56 53 65 66 66 51 48 46 42 41 41 43 39 45 46 45 40 37 36 42 50 66 79 86 87 84 83 81 75 72 64 58 55 56 39 25 24 25 23 19 15 13 12 15 21 20
85 88 82 79 63 59 63 59 37 32 34 36 38 38 37 39 43 43 45 46 39 46 48 52 70 83 85 83 81 77 70 63 54 45 41 34 29 24 24 25 24 19 15 14 14 14 14 30 28
90 73 73 77 82 86 69 67 38 34 33 32 34 37 37 37 37 39 45 48 51 45 52 54 70 81 81 80 77 75 65 55 45 39 33 26 24 24 24 23 19 16 14 14 15 17 18 20 32
75 67 74 77 89 87 76 84 49 47 47 40 34 34 39 38 39 44 46 46 46 52 59 63 71 80 78 75 73 69 69 52 39 31 27 24 24 23 21 19 16 14 14 15 17 19 21 22 28
64 76 78 83 88 96 65 81 55 42 37 34 32 30 39 43 43 44 48 50 62 63 71 74 73 78 74 70 66 65 62 43 34 27 25 24 22 20 18 16 14 14 15 17 19 22 23 23 24
72 100 95 96 98 83 58 80 57 39 34 36 33 32 31 40 50 56 62 72 83 88 86 82 75 74 69 65 61 58 52 42 32 27 24 23 21 19 17 15 14 15 17 20 22 23 23 24 26
86 87 91 92 82 70 62 78 50 40 34 30 29 31 35 45 52 59 64 73 79 91 89 80 76 71 65 60 56 51 42 37 31 26 25 24 22 19 16 15 15 18 21 22 23 23 24 25 27
97 97 72 89 79 95 69 55 44 40 43 39 38 41 42 36 43 59 71 76 84 91 86 79 74 68 62 58 54 50 46 38 28 26 25 23 20 18 16 16 18 21 22 24 24 24 23 24 28
87 72 96 98 96 86 72 72 53 43 31 24 31 51 48 40 46 62 74 79 86 89 86 78 71 65 61 57 55 51 42 28 26 25 23 21 19 17 16 18 21 23 25 25 24 23 23 27 33
91 95 99 89 88 81 66 48 36 31 28 32 55 58 62 56 48 66 80 85 87 83 77 70 65 60 55 51 44 33 29 27 25 24 22 20 17 16 18 21 23 25 26 26 24 23 27 35 42
63 72 76 96 80 92 87 63 29 35 42 54 44 66 78 77 75 85 81 76 76 72 65 61 54 50 45 40 33 29 26 25 23 22 20 18 17 20 21 23 25 27 26 24 22 26 38 47 51

GFSSGP_925_rhum_036.txt.gz
RH
50 44 35 26 27 25 25 17 21 22 21 19 18 20 21 20 25 27 54 58 61 65 76 89 85 86 91 90 71 64 69 74 82 82 88 91 92 86 84 81 77 75 72 74 91 93 86 98 94
50 36 30 23 27 28 21 18 20 22 20 19 19 20 22 22 26 36 43 61 61 67 75 80 82 82 88 88 76 72 78 79 79 81 84 90 80 82 80 75 80 84 78 60 66 78 79 76 73
48 33 26 26 26 26 23 20 18 21 18 18 21 22 21 26 33 33 48 61 64 69 70 74 83 84 90 90 78 74 78 76 80 87 95 82 76 72 74 79 86 75 75 79 71 70 69 66 64
38 28 26 29 27 24 23 18 22 22 18 18 19 24 25 31 33 39 52 64 63 66 72 85 81 85 88 87 83 81 82 79 77 90 87 77 74 77 82 80 75 61 65 83 80 74 69 72 80
38 29 29 32 26 22 22 21 21 22 20 18 17 21 24 31 42 48 58 62 59 65 69 84 82 79 88 87 85 84 86 84 79 80 80 68 80 83 85 84 76 73 65 73 88 89 91 90 90
36 30 32 31 25 24 23 20 22 21 19 18 17 19 21 35 42 55 62 62 63 68 73 78 86 90 88 89 88 88 87 86 82 81 74 77 81 84 88 92 82 80 74 82 85 84 95 93 93
34 33 28 26 24 25 23 20 23 20 19 19 18 21 21 27 45 60 61 62 70 69 74 74 82 91 88 90 89 88 88 86 84 84 84 80 85 81 74 78 82 83 79 83 83 85 95 92 90
37 33 30 33 27 28 22 24 20 22 19 16 19 19 21 29 50 59 62 65 68 71 72 72 75 82 86 97 92 85 84 86 76 75 78 80 79 72 82 82 81 78 81 85 87 88 89 82 78
48 39 35 32 31 27 29 28 20 24 25 24 20 21 28 36 52 57 60 65 66 70 70 72 72 76 75 81 96 90 89 87 81 71 72 77 75 74 79 89 78 78 88 78 79 78 75 74 74
46 44 34 29 30 31 29 30 30 30 26 24 24 24 29 40 47 50 50 50 57 63 67 72 74 74 78 80 89 88 86 86 79 71 70 70 71 71 69 75 72 74 73 73 73 74 74 74 67
48 48 35 44 39 43 41 41 35 32 32 26 24 22 27 30 40 43 42 39 47 54 62 71 76 78 81 81 82 84 83 79 76 69 65 63 66 65 62 68 68 72 71 73 75 76 62 59 56
57 47 47 44 47 51 50 41 44 37 30 23 29 29 32 30 28 33 39 39 41 52 61 71 76 86 86 79 79 75 76 79 75 70 68 67 62 65 66 64 70 70 70 74 69 58 54 50 43
54 43 45 43 49 44 40 43 41 38 33 32 33 34 33 31 30 29 30 38 39 45 52 62 76 85 86 84 76 72 73 80 76 70 72 69 70 70 68 69 71 73 67 59 57 51 44 40 35
50 53 50 48 47 44 48 42 38 35 29 29 29 30 30 29 28 28 29 28 29 35 40 48 62 73 77 81 77 74 74 78 77 72 73 74 78 74 72 69 66 68 57 51 47 43 38 31 24
53 61 47 43 42 45 42 47 43 32 29 30 28 26 26 25 26 28 29 28 26 25 27 30 45 62 70 78 78 75 75 78 78 75 78 82 76 75 66 70 73 63 56 41 40 35 27 24 23
53 52 52 43 46 43 46 41 28 28 31 35 31 27 25 25 24 24 28 29 29 30 29 30 35 46 58 66 74 74 75 78 78 81 89 83 81 74 73 75 66 60 49 38 30 28 29 26 24
53 53 55 50 40 45 49 47 37 38 34 37 33 32 32 31 26 25 25 27 30 30 29 30 35 38 47 59 68 72 73 76 82 88 90 87 85 75 77 64 57 50 40 29 26 32 28 24 23
45 54 48 49 40 44 45 46 39 35 34 36 34 32 31 32 31 30 30 29 28 30 30 30 33 40 49 60 69 72 75 83 87 88 88 88 80 79 67 58 48 36 26 29 28 26 27 26 24
53 54 55 46 42 45 46 44 38 33 33 33 30 29 28 27 25 28 30 31 33 33 33 33 36 44 56 65 70 75 82 94 85 83 90 86 80 69 67 51 33 29 29 26 24 25 26 27 27
59 61 58 46 40 44 43 41 32 29 29 27 26 23 21 20 20 21 26 29 32 33 34 35 41 50 62 68 71 72 83 93 83 80 81 75 68 70 53 37 32 29 27 25 25 26 26 28 30
64 64 55 54 45 42 43 41 27 20 20 21 23 23 22 20 19 18 18 26 29 32 34 40 47 61 67 68 74 81 79 75 67 61 65 59 64 55 37 26 31 28 27 28 27 28 26 25 31
62 45 54 54 59 62 50 52 33 26 24 21 20 20 21 22 22 22 20 21 25 30 38 46 55 66 72 78 73 72 73 74 62 56 56 54 45 37 25 26 29 27 27 29 27 28 28 26 27
60 51 54 56 61 63 58 85 37 30 31 26 22 20 18 20 21 21 24 23 25 32 44 55 61 69 73 73 69 70 70 66 62 55 46 37 32 26 30 27 27 26 27 28 29 31 29 28 24
54 62 62 60 73 90 52 66 41 26 24 23 20 19 17 18 20 22 23 26 28 34 56 62 65 68 71 71 70 70 70 64 54 42 33 29 30 30 29 28 29 28 29 30 32 33 34 30 29
64 89 75 85 93 67 34 42 43 24 24 24 20 18 19 18 19 22 29 32 36 39 61 67 65 67 69 69 69 71 68 64 51 38 32 32 28 29 30 27 27 29 28 30 33 34 35 33 30
79 74 69 68 44 40 43 54 31 22 22 21 20 21 22 21 22 23 28 36 40 47 59 66 64 65 67 67 65 66 62 47 40 36 32 32 29 28 28 27 27 28 29 31 33 34 34 34 33
82 96 58 80 66 76 47 31 24 21 23 23 22 21 25 27 24 27 25 34 42 51 60 64 64 64 65 64 56 49 47 42 39 33 30 28 28 27 27 27 28 30 31 32 32 29 30 32 33
66 53 88 92 78 61 39 36 33 25 25 23 22 24 29 30 28 31 29 33 44 53 63 65 64 62 61 56 50 45 45 43 35 31 28 28 26 26 28 28 29 30 31 32 32 31 32 31 32
82 92 94 63 61 70 52 34 20 22 20 21 19 28 29 36 38 40 36 38 52 61 68 67 62 60 56 52 49 44 40 40 33 30 29 27 26 27 27 28 29 30 31 31 29 29 32 34 38
43 55 61 89 70 79 73 58 27 23 21 28 29 25 31 42 51 54 48 52 63 68 68 64 59 55 52 48 44 39 34 30 30 28 26 26 26 27 27 28 28 30 31 30 28 29 34 39 41

GFSSGP_925_rhum_039.txt.gz
RH
49 34 28 24 27 24 23 18 12 18 16 13 16 18 19 18 22 30 42 47 44 56 71 85 82 79 88 96 90 72 74 84 87 90 97 96 94 89 85 78 74 75 80 87 96 98 98 98 95
48 30 25 22 28 27 21 15 15 14 16 16 16 17 19 20 20 35 40 48 45 54 69 86 83 77 89 90 78 75 80 80 82 81 94 89 84 85 76 76 85 82 76 69 77 78 81 85 82
46 28 25 26 27 25 20 16 13 16 16 17 17 17 18 22 25 28 39 48 48 54 64 86 83 82 92 89 84 88 88 81 82 85 91 82 76 72 76 85 82 69 70 75 65 72 71 65 63
34 25 22 30 27 19 16 16 13 17 15 16 17 20 19 25 26 31 43 46 48 52 58 84 81 84 86 85 85 89 79 80 85 93 90 81 77 76 79 86 75 66 82 80 82 73 68 72 74
35 25 30 27 23 17 15 15 16 17 16 16 16 19 21 27 33 40 45 44 46 51 60 91 81 83 84 85 82 88 81 80 83 91 86 77 76 82 87 84 77 64 73 83 90 92 92 84 80
32 24 30 28 22 16 14 15 17 17 15 15 17 18 20 31 33 41 45 43 44 50 59 79 87 79 83 83 84 89 87 81 82 84 78 79 84 87 89 92 80 74 70 76 85 91 94 91 92
36 31 29 24 20 16 15 15 17 17 15 15 14 18 18 22 38 44 44 43 46 51 58 71 88 95 87 82 84 88 84 83 75 82 85 83 82 82 82 91 85 81 74 78 84 81 92 88 85
32 30 30 24 20 19 14 16 16 16 17 14 15 17 18 27 42 43 43 46 49 52 55 59 68 86 94 97 89 87 87 82 78 76 83 78 75 73 74 78 83 80 78 80 85 82 84 77 75
37 42 35 27 20 20 16 20 17 16 18 17 15 15 24 28 42 42 44 49 50 52 54 54 57 73 77 84 96 90 88 86 76 74 78 74 74 71 83 89 80 76 84 76 74 73 72 72 74
45 41 29 17 16 19 19 22 19 20 22 18 19 18 24 30 37 40 41 43 46 51 51 54 55 59 60 71 91 90 88 88 82 70 72 73 62 64 68 84 70 71 73 71 71 72 71 69 65
40 44 24 21 29 28 27 23 23 25 27 17 17 18 20 25 30 35 36 35 40 45 50 54 57 57 58 61 82 80 86 75 69 64 59 60 60 68 66 70 72 73 67 75 73 75 60 58 55
44 34 30 28 32 39 41 30 29 26 26 18 18 22 24 25 23 27 30 31 32 39 47 54 57 61 60 62 63 74 72 66 63 62 55 55 54 54 55 57 60 63 62 62 65 57 54 49 44
44 38 30 32 35 37 37 37 34 32 26 23 23 23 27 26 23 24 24 29 30 34 42 50 56 63 68 64 63 59 59 63 66 63 58 56 53 56 57 58 60 60 65 60 58 53 46 43 39
37 38 36 35 36 36 40 36 32 28 23 23 24 25 24 25 24 23 24 25 29 30 37 44 54 60 68 67 64 60 58 62 69 63 62 60 60 61 61 62 64 61 57 54 50 46 41 35 25
45 52 42 38 36 37 35 42 39 28 25 25 23 21 20 20 20 22 23 24 25 25 30 34 42 53 60 66 65 60 59 63 71 64 64 65 69 69 68 62 63 66 55 44 44 39 30 26 26
48 45 51 30 34 32 36 44 22 20 24 25 23 22 21 19 18 18 20 23 24 24 23 25 28 41 51 54 62 60 59 61 74 66 64 69 80 79 68 65 64 61 49 43 36 30 30 28 24
44 48 41 33 31 34 41 43 25 30 29 25 24 24 22 20 19 18 19 20 24 25 26 26 28 31 38 48 54 58 58 60 73 70 69 78 84 75 68 65 56 49 43 37 28 32 27 25 25
42 42 38 37 30 37 39 37 29 25 27 29 28 26 25 23 23 22 21 19 19 23 26 26 27 32 32 37 46 55 57 60 72 75 75 85 81 76 68 58 48 42 37 31 30 29 29 27 26
36 43 40 32 30 37 37 34 29 25 25 27 26 26 24 23 21 21 23 25 24 23 25 26 26 28 33 38 46 54 57 67 78 82 84 83 74 72 69 57 44 35 32 30 27 28 29 30 27
47 49 45 36 32 36 36 35 27 24 23 22 22 22 22 20 18 18 20 22 25 25 26 27 26 29 35 42 49 55 67 85 90 85 81 76 67 68 64 56 39 33 31 29 28 29 30 31 30
51 51 45 44 37 34 36 36 25 20 19 19 19 19 19 18 17 15 15 17 22 25 26 28 28 30 38 45 54 64 83 92 87 80 73 71 71 67 59 48 35 32 32 32 32 30 27 28 32
55 37 40 44 51 52 40 51 30 21 20 18 18 17 17 18 17 17 16 15 16 21 26 29 30 34 44 54 62 69 78 78 75 72 66 60 61 56 46 36 31 32 33 33 30 30 29 26 29
49 45 48 49 54 59 51 60 36 19 22 22 19 18 16 16 15 15 17 19 18 17 27 33 35 40 53 60 62 74 68 72 72 71 69 64 54 48 34 30 31 32 32 29 30 32 30 29 24
47 51 57 56 65 86 46 44 34 21 15 14 15 16 16 15 15 15 16 17 19 22 26 36 41 48 57 65 67 67 65 69 67 64 59 56 50 41 33 32 32 32 33 34 33 33 34 30 29
53 73 72 83 88 65 27 32 32 20 18 18 18 16 16 15 16 15 16 18 21 24 27 41 48 53 62 67 63 63 68 66 65 58 57 54 40 35 32 31 31 33 35 34 34 35 36 33 31
60 65 66 61 37 34 29 42 28 17 16 17 17 16 16 17 16 20 21 21 26 29 30 42 52 54 59 62 63 64 68 66 63 59 53 41 41 34 31 29 30 32 32 33 34 36 34 34 34
64 86 54 70 55 63 39 26 21 18 17 16 16 17 19 17 19 21 21 23 21 31 35 46 53 54 58 62 63 68 65 64 55 49 40 34 32 30 29 29 29 30 30 30 31 29 30 31 31
55 47 80 90 82 59 33 29 26 21 19 17 18 17 18 22 22 24 27 30 22 30 38 47 51 55 58 62 63 64 54 51 42 38 36 32 29 28 29 29 30 30 30 30 30 30 31 30 30
68 76 67 54 60 62 52 35 23 28 27 23 18 16 20 22 27 30 35 36 27 32 44 50 52 56 59 57 51 48 46 44 39 35 32 32 29 28 28 29 28 29 29 29 28 28 29 31 33
42 58 58 86 59 62 78 61 29 29 27 26 27 24 21 22 24 39 44 41 37 43 53 54 56 56 56 48 46 46 41 39 37 37 34 32 30 28 27 27 26 27 28 27 26 26 29 33 36

GFSSGP_925_rhum_042.txt.gz
RH
38 41 28 28 46 41 39 30 13 17 16 13 16 18 21 21 34 61 43 45 66 83 88 86 85 79 83 91 84 77 69 77 93 90 97 93 92 89 80 74 74 83 90 97 97 98 95 86 89
38 44 27 40 46 45 34 22 18 14 16 18 18 16 18 24 37 44 48 44 62 77 90 93 82 78 82 73 65 68 77 82 85 91 98 96 89 85 78 86 82 79 81 87 85 82 90 84 82
38 41 40 44 42 42 32 19 17 16 16 16 18 16 18 31 31 40 44 44 57 73 84 89 82 80 82 75 76 83 82 82 84 86 92 86 84 76 86 80 75 75 73 64 69 71 70 65 63
41 34 33 39 38 30 26 19 15 18 15 15 17 20 22 27 28 40 45 45 52 67 85 82 81 79 78 75 79 85 79 81 87 88 86 79 73 80 86 70 53 64 75 80 78 63 54 60 61
35 42 44 38 34 27 20 15 15 18 16 17 18 22 32 32 37 42 43 45 50 71 81 77 75 79 82 78 78 78 80 83 95 95 84 83 79 84 88 77 65 60 70 88 90 92 88 75 76
48 38 45 45 33 22 18 15 16 18 18 16 16 20 35 33 37 41 42 44 49 70 86 83 77 80 80 75 77 79 76 77 94 90 83 79 83 89 94 87 80 68 73 81 89 92 87 81 84
46 46 43 36 31 23 18 14 18 19 19 18 14 18 32 36 40 42 41 41 47 66 84 87 82 79 79 73 76 79 76 71 81 81 82 84 86 86 91 96 84 74 72 81 88 78 80 79 76
41 46 47 37 32 28 18 14 17 18 20 14 15 20 33 43 41 42 41 42 45 55 74 82 90 92 89 84 80 79 74 70 74 82 85 77 76 73 75 83 90 78 72 81 80 75 73 72 71
36 56 53 43 34 27 17 19 17 16 20 17 16 17 28 36 41 42 43 46 47 53 58 73 86 82 89 90 89 85 78 73 66 78 74 70 68 82 74 83 81 70 72 70 70 70 70 71 70
53 64 52 30 25 25 19 19 20 21 22 23 21 20 27 29 40 44 46 48 49 51 53 56 72 75 80 86 88 90 86 84 72 68 70 67 73 72 87 87 79 65 71 66 68 70 68 70 74
47 58 34 28 22 33 35 32 21 27 29 23 22 20 25 30 32 41 41 43 46 50 51 53 56 66 74 82 85 90 88 82 79 72 62 61 70 66 73 68 63 63 61 69 70 67 63 59 57
47 38 36 34 29 36 40 34 36 29 30 25 24 22 25 27 29 33 36 36 41 45 49 52 54 57 58 72 73 82 76 74 75 70 61 62 64 64 65 63 63 68 62 73 70 60 55 48 42
42 39 33 31 34 35 37 43 43 39 30 26 26 26 26 28 29 25 28 30 30 40 46 51 54 57 58 62 73 72 70 71 68 64 56 57 58 56 56 59 63 63 64 62 60 54 47 43 41
36 38 38 34 33 36 38 39 40 33 27 28 28 29 28 29 30 27 24 24 26 30 42 50 54 59 61 62 63 70 71 70 62 63 58 55 52 54 58 59 62 63 61 58 53 49 45 36 27
41 55 47 43 40 41 36 46 44 34 31 30 28 26 25 26 24 27 25 24 24 26 34 43 51 56 64 67 65 62 60 60 63 65 60 58 59 61 60 63 64 63 56 51 46 45 37 27 26
55 56 71 40 39 36 40 54 35 28 31 32 30 27 25 24 23 21 20 22 24 24 26 36 45 53 60 69 68 64 61 60 66 65 62 62 65 64 67 64 62 63 49 44 44 34 29 27 24
53 63 56 44 35 34 41 50 35 28 30 33 30 27 25 24 23 19 18 19 20 23 25 25 34 48 55 60 66 66 61 60 61 63 64 66 70 71 69 63 65 55 48 42 40 29 27 24 23
57 58 51 46 37 37 44 46 36 30 29 31 34 33 31 28 26 21 19 18 19 20 24 25 26 30 39 52 56 63 60 60 55 64 66 68 74 80 68 64 58 49 43 37 29 27 24 23 20
45 45 46 39 30 37 42 39 34 30 28 29 29 29 28 28 26 22 21 22 22 19 20 26 27 28 29 33 48 57 60 62 67 66 70 75 81 80 68 64 48 46 42 31 27 28 29 24 19
46 51 53 43 34 36 40 41 34 29 28 26 26 27 27 27 26 23 22 23 23 24 24 22 26 29 30 32 37 48 62 71 66 73 77 84 85 75 65 57 46 37 34 28 26 27 27 29 19
54 58 54 50 41 39 42 45 36 25 26 25 23 22 22 23 23 23 22 21 22 24 25 26 25 27 31 33 40 54 67 81 87 88 88 83 76 71 62 49 46 39 29 27 27 27 27 30 28
62 43 44 45 54 67 46 76 41 30 27 23 24 25 24 24 22 20 20 20 19 21 24 25 26 28 28 33 51 57 78 90 88 86 80 76 70 68 53 45 44 33 29 28 27 26 22 27 29
51 47 51 52 62 69 60 74 49 24 27 23 22 21 23 22 23 23 24 20 17 16 21 24 25 28 30 36 53 66 78 85 86 80 76 74 74 63 46 46 36 31 29 28 26 24 22 22 25
47 50 56 59 68 93 66 64 59 29 23 19 20 19 21 18 18 17 16 16 19 20 18 18 32 29 34 45 58 74 76 80 82 77 73 72 66 53 42 36 31 31 30 26 28 26 24 22 22
49 62 94 98 93 91 34 56 44 23 20 21 19 17 18 19 17 20 21 25 24 20 22 22 26 37 42 56 65 75 74 73 77 76 75 69 56 41 36 34 33 31 29 27 26 26 24 26 29
60 68 94 86 77 70 43 55 38 23 20 18 17 18 20 21 20 20 23 29 27 26 23 25 34 45 55 64 71 72 74 72 73 73 73 62 52 42 39 35 32 31 30 28 28 29 30 28 30
64 86 58 78 64 86 56 30 24 20 20 20 20 19 22 23 22 23 26 31 32 31 30 28 38 49 61 71 66 69 71 69 69 67 64 60 50 39 35 34 32 30 28 28 29 29 28 27 31
54 49 85 94 96 85 50 44 37 30 36 33 28 25 23 22 24 27 39 42 41 40 31 32 42 52 63 66 68 70 69 66 64 62 57 48 42 33 32 30 29 29 29 27 27 27 28 27 30
68 72 64 64 73 91 80 51 32 37 36 38 35 28 27 27 29 32 45 44 46 44 33 37 49 56 61 66 69 66 65 56 52 48 42 35 31 30 29 29 30 29 28 27 28 27 28 29 31
53 62 64 82 74 77 91 68 33 32 33 35 36 31 29 24 26 33 52 51 51 44 45 46 53 60 63 59 53 54 50 44 44 38 34 32 32 33 30 29 29 28 27 26 26 26 26 31 34

GFSSGP_925_rhum_045.txt.gz
RH
31 30 43 37 49 56 52 44 29 21 17 20 19 20 21 26 34 54 48 53 67 75 80 85 85 81 91 97 94 88 86 86 90 97 94 93 92 83 76 73 87 96 96 97 99 100 99 95 92
32 31 39 48 58 59 54 34 33 19 20 19 19 18 20 45 45 56 69 65 68 73 88 89 79 75 81 82 78 68 72 84 91 94 95 96 89 82 84 80 81 89 96 96 94 91 87 82 83
38 47 49 56 59 60 51 27 23 20 18 17 19 17 21 39 48 51 56 76 75 77 89 90 81 75 63 55 54 60 64 74 83 95 96 92 85 87 81 78 78 82 84 83 80 75 74 68 66
53 46 46 50 55 43 35 29 21 18 18 17 19 22 34 40 43 45 61 76 72 82 89 88 81 72 64 60 64 68 75 82 84 96 89 81 80 88 79 79 79 80 79 80 76 68 57 54 65
51 58 58 55 47 36 32 26 21 19 18 19 19 23 43 44 44 44 57 68 76 85 83 81 78 74 69 70 77 76 83 87 95 91 83 77 84 92 77 67 78 85 88 89 90 90 74 68 68
57 56 66 65 51 33 28 24 19 19 19 18 18 21 42 44 45 45 49 64 77 83 83 78 76 76 74 70 71 64 72 96 92 90 87 82 88 92 77 73 60 65 76 86 92 87 76 73 73
57 61 62 48 46 37 29 21 22 22 19 20 16 20 44 44 44 43 47 56 72 82 82 81 78 78 76 71 73 64 56 91 90 85 80 81 90 93 88 80 76 70 74 80 76 75 75 73 70
54 61 58 53 45 40 27 19 19 22 22 16 16 24 56 48 44 43 44 66 75 82 80 81 83 82 82 78 76 70 59 67 84 84 82 84 85 84 93 90 84 74 68 77 70 69 69 69 68
40 67 73 59 50 40 28 24 18 17 20 20 19 28 37 43 44 44 45 70 85 82 73 77 81 86 87 83 84 77 70 64 76 80 76 72 75 81 83 89 84 68 65 67 66 67 68 71 63
59 74 67 44 40 36 31 35 28 21 21 22 21 32 34 42 45 48 52 53 69 86 84 73 76 82 87 85 87 83 74 67 69 74 70 71 71 83 70 83 80 62 68 62 65 69 71 72 67
53 77 53 49 38 34 41 38 35 30 30 25 23 26 36 41 47 51 53 50 52 58 78 81 79 78 82 88 86 87 79 74 63 62 66 66 76 88 83 87 80 59 63 64 69 69 63 58 52
59 49 47 44 39 38 43 43 45 39 32 33 28 25 27 38 45 51 51 50 52 52 54 72 80 77 83 86 83 84 82 76 70 60 48 64 75 80 78 67 62 60 61 70 74 68 57 48 43
53 48 41 40 40 35 36 44 45 46 39 34 32 32 28 31 31 32 36 40 47 53 52 54 61 73 83 81 85 84 82 71 76 74 60 55 74 72 67 62 63 65 69 73 69 55 50 45 43
40 43 45 43 45 41 41 42 39 39 34 35 32 31 32 33 33 29 29 28 34 46 51 51 54 62 74 77 78 75 72 71 75 77 61 58 66 64 55 60 65 69 70 62 58 51 46 44 35
48 55 54 51 47 48 40 51 51 41 40 40 38 35 30 31 27 31 27 28 26 27 46 50 53 56 61 65 70 69 69 69 72 74 59 57 57 53 55 63 66 65 60 58 54 50 47 38 26
56 58 78 55 46 45 46 59 43 39 42 41 38 35 35 30 29 23 21 22 24 25 30 50 53 56 59 64 65 70 69 70 70 65 62 56 55 54 60 61 64 63 58 55 51 48 39 27 25
62 78 76 64 42 45 51 56 41 36 37 41 39 36 34 30 28 24 22 20 20 21 23 45 53 54 59 62 65 66 66 66 68 65 62 58 60 60 61 63 64 63 54 48 48 40 31 25 23
75 76 64 60 43 43 50 56 46 39 38 38 38 42 40 34 30 24 22 20 20 19 19 22 47 52 56 61 66 67 70 61 64 66 63 61 63 66 64 66 64 64 54 47 43 33 26 23 21
64 61 57 48 39 40 48 51 46 39 39 36 34 38 33 32 31 27 24 22 20 19 19 20 28 51 60 68 74 73 72 66 69 69 63 64 64 69 70 68 64 58 53 48 40 27 26 22 20
67 58 61 51 39 42 46 44 37 35 34 32 31 34 33 29 32 31 25 23 23 23 22 22 27 36 54 59 66 73 73 70 68 67 60 63 67 71 74 67 60 53 47 40 30 26 28 26 19
56 62 62 61 51 45 52 51 44 37 33 30 28 27 27 29 30 30 30 24 22 21 24 23 25 29 37 45 52 62 74 80 87 84 64 69 73 76 79 66 57 49 47 36 27 26 26 28 22
67 51 52 54 62 74 57 87 64 40 33 28 35 32 28 28 28 28 28 26 22 20 19 22 23 25 29 33 33 47 76 90 88 85 76 79 81 81 77 63 50 43 38 30 26 28 27 26 26
59 52 57 60 71 76 72 79 67 50 32 29 26 30 32 29 26 26 26 22 18 17 17 18 23 23 25 33 35 41 74 78 84 89 86 86 84 82 74 57 48 39 34 29 26 24 23 26 24
50 56 58 63 78 96 76 72 60 40 27 23 20 22 24 26 24 24 23 21 21 19 19 19 19 24 28 27 45 53 66 80 91 91 83 77 78 77 55 46 46 44 35 34 29 24 22 22 22
60 70 94 89 95 93 58 74 63 36 28 24 24 22 22 23 20 20 19 27 26 24 23 22 23 23 22 35 52 65 63 74 84 88 85 80 72 62 51 48 43 43 37 29 28 25 23 21 21
64 70 92 93 92 83 57 77 50 32 27 26 22 21 21 22 24 23 22 34 37 36 34 34 29 27 24 51 65 69 71 82 88 87 85 80 71 65 51 45 40 34 35 34 27 24 24 23 23
68 85 65 79 77 94 72 47 33 28 38 34 28 28 31 27 26 23 42 45 42 37 33 36 38 33 38 73 79 79 78 80 85 86 83 80 68 60 47 45 38 38 35 30 28 26 25 24 28
59 59 86 92 94 94 74 58 43 35 38 39 40 38 34 32 28 39 48 45 39 36 36 42 37 38 64 79 78 78 79 80 80 80 78 70 58 46 39 39 43 41 33 30 28 27 27 25 29
72 80 64 72 87 96 96 70 37 39 36 37 39 37 38 33 29 34 52 51 46 38 42 44 41 48 82 79 78 76 77 75 73 73 70 58 46 43 40 42 37 33 31 28 27 27 28 26 29
63 68 65 92 75 89 92 74 36 38 40 39 42 46 43 40 37 52 56 54 52 51 52 51 56 76 79 74 74 74 72 70 67 64 56 44 40 41 44 37 31 29 28 32 35 26 24 28 32

GFSSGP_925_rhum_048.txt.gz
RH
40 32 37 37 48 60 58 51 35 33 22 20 20 21 24 32 37 44 61 74 76 82 84 85 86 87 87 91 89 88 89 88 90 90 92 93 88 81 77 89 94 88 90 90 91 97 98 98 97
40 34 40 55 62 61 56 41 35 30 22 22 19 20 25 47 49 81 82 81 70 73 82 86 86 88 90 91 86 85 86 93 96 96 93 93 86 83 76 86 93 95 97 98 99 97 92 80 72
44 49 49 56 67 66 54 34 25 22 22 19 19 19 32 43 52 67 63 80 73 76 78 84 85 88 95 84 81 81 81 96 94 94 97 94 88 88 82 81 91 97 98 98 95 88 83 75 68
53 50 54 59 66 51 44 31 28 26 20 18 21 26 39 44 52 51 67 74 73 80 83 85 83 79 80 72 66 80 78 88 90 97 97 91 89 80 78 82 85 87 87 89 82 73 75 67 65
54 61 65 62 56 47 39 30 29 28 22 19 21 27 46 46 46 62 73 75 72 82 83 83 81 69 57 57 61 64 79 86 96 98 95 84 89 82 81 78 82 81 82 84 85 76 64 58 70
64 64 77 62 53 40 35 29 25 24 23 19 21 39 47 51 58 83 79 80 66 76 84 84 82 70 61 62 64 56 66 86 93 90 82 84 92 92 84 87 90 92 92 94 94 90 70 63 60
66 68 73 63 56 48 36 28 25 26 24 21 18 36 49 50 54 75 81 80 77 79 83 86 81 72 67 68 66 59 68 82 86 86 83 86 90 93 83 77 84 91 95 93 78 74 69 66 65
56 65 65 57 53 47 32 21 20 25 25 18 20 58 60 50 47 59 79 88 90 90 85 81 80 79 77 78 70 59 80 90 89 87 84 85 84 85 86 77 76 80 76 77 70 71 69 69 68
49 73 82 62 53 42 33 31 25 19 21 20 22 43 47 44 49 63 95 100 100 100 89 84 83 84 80 79 76 62 64 90 89 82 76 80 84 90 94 87 77 67 67 71 68 71 72 68 64
60 81 71 52 46 43 35 36 35 29 23 23 37 38 48 49 51 64 92 99 100 100 98 86 84 84 84 82 83 73 62 76 85 79 76 79 79 80 88 88 83 65 66 65 69 72 74 68 60
61 79 56 52 48 41 42 43 41 36 30 28 30 41 40 53 56 59 72 88 96 95 95 92 83 79 84 84 85 82 72 66 74 75 74 72 76 84 78 87 87 69 72 67 74 74 69 69 62
60 56 51 48 45 42 43 42 47 42 36 38 36 31 30 39 48 61 60 69 82 89 82 83 79 78 84 85 85 83 77 71 64 68 69 74 75 85 79 81 81 65 64 68 73 71 60 55 47
60 53 46 45 47 41 40 44 48 48 43 40 34 33 32 34 41 46 55 55 61 73 80 81 77 77 82 88 86 85 81 75 65 56 62 71 73 79 86 80 72 61 63 71 75 67 54 45 41
49 50 47 45 46 45 46 46 43 41 38 39 38 38 35 33 33 32 34 42 53 55 64 72 79 76 82 86 84 84 82 77 74 63 52 54 69 73 83 74 61 64 68 71 76 59 50 46 42
49 56 54 51 48 49 42 51 55 41 40 43 42 42 38 35 28 30 26 29 30 35 53 60 71 79 83 85 82 81 79 77 72 72 64 58 59 72 75 69 64 67 71 74 62 50 45 44 38
58 62 69 51 46 45 47 56 44 43 47 47 45 41 41 37 32 26 23 24 22 27 31 57 61 74 79 84 82 84 78 76 74 73 72 61 60 65 69 59 62 70 71 63 55 49 47 43 29
65 78 76 66 51 50 57 61 46 36 41 47 44 45 41 40 37 30 25 23 22 21 22 26 59 67 69 79 82 82 76 76 72 72 75 71 60 61 60 56 64 68 61 54 52 49 47 33 25
82 78 69 66 47 49 58 65 51 44 45 45 45 42 41 40 36 31 28 25 22 21 21 23 28 61 68 69 72 80 76 75 72 70 74 67 59 58 54 58 66 62 57 52 50 49 40 27 23
59 66 63 52 42 45 49 52 47 41 44 45 39 40 40 36 32 31 28 26 25 23 21 22 25 35 66 83 85 84 84 78 75 73 70 65 60 58 57 64 66 64 60 56 50 43 32 24 22
74 71 69 55 45 44 50 50 40 36 36 34 33 31 31 34 32 34 28 25 26 24 24 22 23 26 47 72 71 74 75 76 70 75 71 65 63 63 63 64 66 65 61 53 48 43 26 24 23
63 64 62 63 54 46 57 42 38 38 36 33 30 30 30 31 30 29 34 28 24 24 23 23 25 26 30 64 73 71 80 85 86 83 76 68 64 67 69 67 67 66 62 55 46 37 27 27 22
66 52 55 59 62 76 58 74 66 48 43 35 33 38 36 33 33 31 31 30 24 21 20 21 20 25 30 51 72 75 72 86 86 80 79 73 72 73 75 72 70 66 58 51 45 32 27 29 26
61 53 57 61 74 74 72 78 62 48 41 30 28 26 31 36 34 34 33 28 23 21 20 20 19 19 22 37 54 70 76 75 73 82 86 82 82 84 82 80 71 59 53 47 37 30 30 28 28
53 57 68 73 80 93 73 76 63 43 32 24 22 26 24 26 30 31 27 24 23 22 22 22 21 20 20 27 38 44 77 80 86 93 94 91 88 88 85 78 65 59 49 39 36 33 29 28 26
58 73 93 91 95 85 65 83 68 47 38 30 32 31 29 29 27 24 24 28 28 26 28 25 23 22 21 26 34 44 61 69 75 82 90 90 88 84 80 71 56 52 41 40 35 31 27 26 24
67 71 88 79 96 88 64 76 50 38 35 27 29 33 36 35 32 28 27 36 38 36 33 31 30 30 25 23 30 42 55 67 81 84 84 87 87 83 80 70 57 48 46 45 35 28 26 24 23
69 83 65 84 82 96 75 57 33 37 39 40 41 43 44 41 39 37 41 45 42 37 33 30 27 25 30 30 36 60 70 74 75 83 87 86 87 83 67 54 53 53 46 34 38 33 36 26 24
57 62 89 93 83 88 71 68 47 33 39 40 45 45 45 44 41 40 44 49 44 40 36 35 38 37 34 38 58 76 79 82 81 86 92 88 84 75 65 55 48 41 38 41 35 34 35 27 28
75 82 70 77 81 93 95 64 46 36 40 48 50 50 55 59 52 45 41 49 50 45 41 43 46 49 50 68 79 85 91 92 92 94 93 88 79 72 59 48 43 42 39 40 34 32 29 28 29
64 71 69 90 72 92 93 78 42 42 38 44 37 53 62 62 59 49 54 58 56 52 52 54 52 58 71 82 86 89 91 94 94 91 86 80 68 60 52 45 43 42 42 38 34 34 33 33 35

GFSSGP_925_rhum_051.txt.gz
RH
47 38 34 38 50 62 61 51 38 35 26 20 24 24 26 32 33 40 67 84 77 87 89 78 85 84 84 88 88 88 89 87 84 88 87 91 86 85 86 92 86 92 86 80 93 92 92 95 98
44 38 40 57 60 61 56 45 37 32 25 24 22 24 36 45 55 90 91 86 78 83 84 82 78 82 84 88 89 89 93 90 86 88 91 91 85 80 86 93 91 94 90 86 90 96 97 85 72
44 50 50 57 72 64 49 39 31 25 26 24 22 24 34 42 56 83 68 86 88 81 82 79 78 84 89 90 91 89 90 93 96 94 93 90 89 83 80 91 92 85 94 96 98 90 81 78 73
51 54 56 64 67 55 44 33 32 32 25 22 23 37 41 45 58 60 74 85 84 81 81 79 79 82 88 93 94 91 90 92 94 93 98 93 93 85 82 89 96 93 96 97 89 81 78 72 60
55 64 71 69 62 53 42 36 31 33 30 25 24 33 45 50 52 60 82 83 79 85 80 80 82 85 92 88 84 76 87 93 91 96 98 93 85 80 82 86 86 89 88 87 78 68 65 48 67
73 67 78 68 57 44 39 33 27 26 26 25 24 50 48 56 65 86 87 84 78 79 88 81 84 84 75 67 64 65 75 86 91 96 96 90 86 82 81 84 82 84 86 87 84 69 61 59 68
72 76 79 59 46 46 38 31 29 30 28 27 22 54 52 58 83 88 86 84 82 84 88 83 81 70 57 64 65 60 68 77 93 93 84 90 86 76 80 81 90 94 95 96 90 80 74 72 72
64 66 69 63 55 46 32 28 21 25 26 21 34 55 64 55 82 89 89 86 87 87 84 79 80 70 64 69 68 57 66 84 88 84 81 86 80 74 75 63 76 93 94 89 81 80 74 74 73
54 77 85 58 55 44 34 33 28 26 25 22 25 49 45 51 77 93 97 100 100 99 90 87 84 75 70 70 70 58 63 80 85 86 82 82 81 81 83 74 68 73 78 80 79 79 75 77 71
64 83 74 55 48 43 39 40 39 35 34 24 37 46 59 60 91 98 95 94 99 99 100 99 88 78 76 74 72 64 73 93 88 89 83 82 83 89 92 87 77 65 69 73 77 76 76 71 63
66 77 56 54 47 46 45 45 41 42 38 30 33 40 42 64 72 95 98 93 95 97 99 100 91 81 81 79 75 69 59 88 93 87 77 73 84 89 91 93 90 74 72 75 79 77 76 70 64
64 60 56 50 46 45 45 42 46 45 42 38 42 39 34 40 58 70 93 100 98 98 100 100 95 84 84 81 78 76 66 62 84 85 79 78 83 82 87 90 90 83 72 72 76 75 69 65 61
63 56 51 47 48 46 42 47 51 51 44 42 39 36 36 36 36 49 64 82 100 100 100 98 87 86 85 87 81 81 76 66 59 69 77 78 76 78 84 82 86 83 71 71 75 75 62 54 46
56 55 52 47 46 46 48 49 45 44 44 43 42 39 39 37 34 33 43 57 74 89 93 92 86 85 84 86 85 82 81 74 68 61 64 70 74 74 82 82 85 86 70 70 75 73 58 46 39
51 57 55 54 49 51 45 54 62 44 41 44 41 44 44 40 32 32 28 33 47 64 74 90 87 84 85 86 85 86 82 82 76 69 58 59 70 73 78 80 84 76 68 71 76 81 54 44 36
63 62 73 51 51 48 45 57 43 46 47 50 49 45 45 43 39 31 26 26 25 27 37 61 75 92 86 90 90 90 86 83 81 77 72 62 55 65 73 75 81 69 71 74 78 76 50 41 37
66 85 77 62 50 48 57 65 46 40 46 48 46 43 46 43 40 35 29 27 25 25 24 27 55 78 79 90 95 95 90 88 86 79 71 68 58 55 66 73 75 70 72 74 73 55 45 41 36
87 75 72 69 49 55 63 70 54 51 48 52 52 49 48 45 39 32 31 29 26 26 25 25 26 53 65 81 98 100 99 93 92 79 75 71 71 62 61 71 72 67 71 73 64 51 43 43 31
68 68 68 57 45 47 52 53 47 41 44 47 47 44 42 40 34 30 27 25 27 27 28 26 26 27 58 90 100 100 100 95 94 85 78 73 71 75 64 66 66 64 70 65 55 46 44 37 26
76 75 73 60 49 47 55 56 44 39 37 37 34 33 32 32 36 36 29 26 26 24 25 26 25 25 51 74 82 86 81 84 73 79 80 78 73 76 66 66 59 63 67 57 51 49 44 31 25
82 72 64 63 55 50 61 52 44 35 36 35 35 34 33 33 31 29 33 28 25 26 24 23 25 25 33 63 80 90 83 83 93 93 87 81 78 76 69 65 59 64 64 58 54 51 50 31 25
71 54 57 61 62 75 59 74 58 44 46 41 38 36 37 38 35 35 34 33 29 26 23 23 24 24 24 36 83 88 85 89 86 74 65 79 78 75 72 70 64 66 66 59 58 54 49 34 25
63 54 59 64 75 70 70 80 56 44 36 29 27 30 31 31 35 36 36 31 26 25 24 23 23 24 25 30 42 76 87 83 77 82 76 78 81 78 75 75 76 71 68 65 63 57 43 32 28
57 58 69 79 77 89 68 72 54 40 33 30 35 36 38 35 35 32 27 26 26 23 22 20 19 18 19 23 32 61 78 83 81 88 92 81 86 85 83 80 82 77 72 67 65 52 40 31 31
60 71 89 83 91 79 71 79 62 46 42 38 36 40 45 45 44 40 34 33 31 29 25 24 24 21 22 24 27 35 56 76 79 79 90 94 95 90 86 85 85 84 76 66 54 44 38 34 33
64 68 85 68 88 87 67 79 47 41 36 34 37 40 46 50 51 48 40 42 44 42 40 37 33 28 26 27 28 32 42 51 66 80 79 78 79 91 90 93 90 84 70 59 49 42 33 32 29
73 84 64 85 83 93 74 58 32 42 42 43 48 49 52 56 58 57 47 40 39 36 36 38 35 31 26 23 26 32 41 57 61 65 80 86 87 89 91 91 87 75 59 48 43 33 31 31 29
59 64 83 92 66 75 62 70 48 35 39 45 50 50 53 64 67 65 56 44 39 44 45 44 41 42 34 32 32 35 42 61 70 77 88 91 92 92 91 85 77 60 51 46 37 32 35 37 34
75 85 80 80 77 87 88 55 48 37 41 48 50 46 62 60 66 67 61 53 48 50 51 48 50 57 51 44 45 54 67 83 88 92 96 96 94 90 87 80 66 57 49 38 41 36 38 46 46
65 71 72 86 76 94 93 78 44 48 44 46 42 46 52 64 72 69 68 57 57 57 53 56 57 67 79 80 79 87 93 96 98 99 98 95 89 83 74 64 57 50 43 40 42 39 38 46 50

GFSSGP_925_rhum_054.txt.gz
RH
50 42 37 38 48 62 59 48 41 35 29 22 23 26 28 28 36 42 74 86 78 77 81 79 80 85 85 88 90 89 90 90 97 98 97 93 89 74 84 89 84 83 84 92 93 95 95 91 94
48 39 40 58 58 59 54 47 40 35 27 29 25 30 34 39 60 92 92 85 73 75 82 78 84 81 83 87 89 90 91 87 84 84 83 90 85 86 90 93 94 90 78 90 97 93 89 88 71
44 44 52 58 72 62 47 38 39 29 32 26 23 25 32 40 60 83 73 81 81 87 86 75 75 72 81 86 88 88 90 85 80 84 84 90 86 84 89 93 86 88 84 88 86 81 82 75 62
50 53 58 66 67 58 38 31 32 35 27 24 26 37 44 48 56 65 68 83 86 90 82 76 78 78 84 86 87 88 88 88 86 87 92 94 92 82 87 95 84 84 91 95 90 83 77 69 64
52 65 72 72 67 53 47 40 33 34 31 26 24 30 45 55 59 62 77 93 90 86 80 78 80 79 86 86 84 88 87 90 92 95 98 97 88 83 85 95 90 88 92 87 79 75 81 65 94
77 67 78 71 63 45 42 38 30 28 28 28 24 43 51 66 72 87 80 88 87 81 82 81 79 80 79 85 89 90 90 89 85 96 98 96 84 83 86 89 80 86 89 87 86 75 67 68 82
77 80 77 60 52 46 39 34 31 29 29 26 28 44 50 68 86 92 89 87 84 84 85 84 83 80 81 86 78 73 73 74 80 93 94 90 81 83 85 87 83 88 89 91 90 84 77 88 88
73 70 74 67 55 47 32 30 25 25 28 22 31 39 46 59 95 99 95 92 90 86 86 83 83 76 64 60 65 67 65 68 88 86 89 84 69 65 76 74 92 97 95 88 78 83 84 90 79
58 79 84 60 56 43 35 35 31 30 28 25 24 37 48 67 98 100 100 100 99 97 92 86 83 72 60 60 67 64 66 65 87 90 83 83 73 72 71 60 70 84 85 79 78 84 84 79 74
66 86 76 53 46 42 42 41 41 38 42 28 34 47 74 97 100 97 96 94 96 98 98 95 87 79 70 68 69 64 56 79 85 86 83 82 77 74 81 76 69 70 78 87 87 89 81 75 66
68 77 57 54 47 47 47 45 42 43 40 32 35 41 45 84 98 93 89 88 92 96 98 98 97 84 76 75 71 67 53 69 83 86 86 81 81 82 92 93 86 77 78 85 86 88 81 70 63
68 62 55 48 47 46 47 43 46 45 41 36 40 39 35 39 66 95 94 92 91 96 97 99 98 89 82 81 75 70 61 70 89 89 88 83 83 87 92 94 93 88 72 77 79 80 81 76 71
66 58 57 52 51 49 44 48 49 51 46 44 44 40 37 35 34 35 66 97 95 91 94 98 98 100 88 87 80 76 73 62 69 87 89 82 76 83 86 84 87 91 80 76 76 78 77 64 59
61 58 55 51 49 47 50 51 48 45 43 43 45 43 42 40 36 31 31 59 90 97 95 98 98 98 96 87 84 80 76 69 60 65 79 82 77 79 80 81 84 90 88 72 75 77 71 56 46
56 60 56 58 52 53 52 58 63 49 44 46 46 47 44 42 36 35 30 28 44 71 87 99 100 100 100 89 89 87 79 77 72 62 59 71 77 78 77 77 82 84 88 77 77 80 68 52 41
67 61 77 55 57 51 47 58 44 44 51 52 52 53 50 46 40 32 30 29 25 30 66 81 91 98 96 91 93 88 88 83 81 76 67 64 67 70 76 76 82 84 89 84 77 80 81 50 41
72 89 82 65 54 50 59 66 47 44 47 54 52 50 48 48 43 35 31 29 28 27 26 40 69 82 83 96 95 97 93 92 88 84 79 74 68 65 70 73 76 81 88 79 77 80 80 50 39
72 74 76 75 50 58 64 69 51 46 54 55 54 54 53 51 45 36 33 30 27 26 28 28 30 60 72 85 100 100 100 96 95 92 84 82 79 73 64 65 70 76 88 76 83 82 66 46 41
71 74 72 62 48 48 58 57 50 42 45 46 46 44 40 39 38 34 30 28 28 27 27 28 28 26 55 93 100 100 100 100 100 93 88 83 84 77 68 56 63 75 84 73 77 73 52 44 37
72 78 76 63 51 49 57 60 46 38 43 42 39 38 38 38 35 36 31 29 28 27 26 27 28 28 30 73 86 97 98 99 98 91 85 87 87 80 77 69 62 72 81 74 76 71 47 41 35
82 78 70 67 56 53 62 54 45 34 37 36 36 38 37 38 37 34 35 30 29 30 26 25 27 26 28 50 76 100 97 100 100 100 97 80 86 84 79 79 70 68 75 69 73 65 52 42 35
98 61 57 59 63 79 61 76 56 44 40 38 37 37 36 36 37 38 38 35 30 28 28 26 26 27 29 36 83 90 92 97 98 93 75 77 81 80 84 80 84 71 71 68 70 62 53 54 49
66 56 61 64 74 68 67 72 48 40 33 34 42 45 46 45 44 44 36 30 30 28 27 29 27 26 25 29 55 84 94 91 87 85 87 94 84 85 86 84 86 80 72 68 68 64 54 56 60
60 62 69 78 74 85 66 67 45 38 39 38 39 46 50 55 56 51 43 38 36 32 33 28 27 25 23 25 28 44 74 87 91 87 90 88 90 91 87 85 87 83 74 69 70 67 60 58 54
59 69 85 74 87 74 72 74 56 43 41 42 39 49 52 61 63 61 55 50 43 39 37 36 36 32 29 26 26 33 49 85 85 84 86 95 95 96 89 86 89 86 84 77 75 71 66 61 45
68 66 82 59 80 80 70 84 48 44 34 39 43 49 52 61 67 66 63 52 48 40 38 40 36 34 34 35 33 30 33 47 72 84 86 84 84 77 88 94 90 88 86 86 82 75 71 54 38
71 85 64 87 80 94 73 57 29 45 44 43 48 48 49 58 69 71 68 56 51 47 45 45 47 41 39 41 39 38 37 36 39 52 75 88 90 90 89 96 100 98 95 90 84 71 55 42 35
60 65 80 91 64 64 50 60 41 36 38 41 49 50 50 56 71 71 71 62 56 51 47 49 50 55 50 46 50 50 49 49 49 53 68 86 95 98 97 100 100 100 96 85 70 52 43 33 31
74 88 80 77 75 78 64 38 48 38 40 45 49 50 53 65 74 76 74 66 62 61 60 58 59 61 56 59 63 59 62 67 75 84 91 97 100 100 99 100 98 92 83 68 56 42 34 36 38
63 72 72 84 79 93 93 69 42 48 44 43 50 54 66 75 78 81 80 71 75 74 71 73 67 68 71 76 88 85 88 97 100 100 100 100 99 98 95 92 84 71 60 50 40 39 40 46 46

GFSSGP_925_rhum_057.txt.gz
RH
53 42 36 36 41 46 48 39 38 34 30 23 24 25 26 28 37 37 76 86 72 81 78 77 76 74 84 84 87 88 87 82 87 93 98 97 95 89 91 93 90 83 88 88 92 95 95 93 82
50 40 38 50 46 46 40 40 39 34 26 28 27 33 33 34 55 84 89 86 74 80 81 78 76 78 81 86 90 88 88 85 83 84 96 92 89 84 90 90 92 84 89 97 99 94 86 79 75
45 41 46 49 52 45 38 34 34 28 30 26 23 25 29 36 57 76 77 84 81 82 79 79 76 79 84 88 89 87 86 81 79 80 85 89 85 85 97 97 92 87 92 92 88 74 85 78 82
48 48 48 52 56 50 32 30 33 32 27 25 24 25 38 52 58 68 73 87 97 84 78 77 78 76 74 84 87 88 84 80 74 79 86 93 87 87 98 89 83 80 86 88 80 81 77 69 83
48 53 60 64 58 48 43 38 34 32 30 25 24 24 37 56 66 72 80 88 92 88 83 74 75 78 77 80 85 85 81 80 76 79 89 96 90 85 95 86 84 84 85 86 84 81 82 87 94
62 54 64 59 58 48 42 36 33 31 27 24 24 31 40 65 81 97 99 96 96 93 81 79 79 78 76 76 81 84 88 85 78 82 96 99 87 86 93 91 86 84 89 82 76 80 81 77 87
67 63 59 58 50 46 38 34 32 30 27 24 25 32 38 61 88 100 99 96 93 85 82 81 82 81 81 81 81 81 84 88 82 88 93 95 83 82 90 90 87 90 89 89 88 89 90 92 76
66 57 69 61 47 43 33 33 27 27 25 22 28 30 30 60 98 100 98 99 95 82 79 82 81 82 79 78 76 78 74 75 82 93 84 88 71 73 82 75 88 93 96 94 88 96 94 90 74
58 70 70 57 50 40 36 34 32 32 30 26 26 41 56 70 98 98 99 99 98 98 88 85 83 80 72 70 64 64 63 64 71 88 87 85 73 80 81 76 86 90 89 84 91 92 88 79 74
63 74 68 50 45 42 40 39 40 35 40 30 42 38 92 97 98 93 93 95 97 100 99 94 86 84 74 66 69 70 62 61 86 87 89 82 74 70 68 64 73 80 81 79 88 87 86 78 69
67 68 57 53 44 46 48 45 43 42 39 34 36 40 74 91 94 88 87 87 90 94 97 98 91 85 79 71 73 75 66 63 77 88 87 80 81 77 84 80 81 82 82 94 92 86 79 75 64
69 62 54 48 51 49 50 44 45 45 38 35 41 39 35 76 85 91 87 85 88 90 94 96 98 95 86 76 76 75 69 62 79 83 83 82 82 81 82 91 88 80 72 80 84 84 79 70 65
66 60 56 51 53 49 47 49 46 47 43 42 42 42 38 34 36 61 84 89 90 89 91 93 94 99 96 87 81 79 73 62 57 80 86 86 82 78 82 89 94 93 81 76 78 80 79 77 74
61 56 54 52 50 48 51 50 49 45 42 42 42 40 39 38 36 34 36 69 91 88 89 92 94 96 98 99 91 82 77 69 60 66 84 88 86 74 76 85 87 90 93 77 76 77 79 66 61
60 66 60 54 54 51 52 54 61 43 42 42 40 41 41 39 38 35 30 31 38 71 88 89 95 96 97 98 96 87 82 74 70 63 70 83 82 77 72 79 80 86 91 91 80 80 81 63 51
67 62 74 56 56 52 46 56 43 43 49 47 45 45 46 40 39 37 33 32 29 30 45 70 88 98 98 98 99 94 89 85 78 74 66 66 76 77 78 80 77 81 91 95 83 81 80 61 47
75 86 78 63 57 56 50 61 47 46 45 45 44 44 44 41 38 34 30 29 27 28 28 33 67 95 100 100 100 100 100 94 86 81 78 73 67 71 77 78 75 77 88 94 91 82 83 72 49
88 80 78 62 53 60 66 68 55 41 45 47 45 42 44 45 40 35 31 30 30 28 29 29 30 73 84 99 100 99 99 99 99 88 84 84 79 74 69 73 73 76 90 95 95 83 83 78 54
64 73 73 66 50 51 58 59 50 43 44 43 40 38 35 34 32 32 30 29 30 30 29 29 29 28 67 100 100 100 99 100 100 100 90 90 86 84 80 74 70 75 80 87 92 84 82 68 46
68 76 76 63 52 51 56 56 45 41 42 41 40 39 39 36 30 30 32 30 30 30 29 29 30 29 31 77 89 92 94 98 98 100 100 95 83 88 87 84 76 68 80 86 93 83 78 57 45
77 78 74 68 56 54 60 54 45 36 35 36 36 36 35 37 38 35 33 34 31 31 29 28 28 28 30 38 77 99 95 95 95 99 98 100 87 85 83 84 79 70 67 77 88 83 79 54 43
93 68 60 59 63 71 60 67 52 41 40 45 45 47 48 49 46 45 40 36 35 34 28 28 29 29 30 32 78 95 91 90 92 95 95 100 100 91 90 88 84 79 71 68 80 84 77 64 48
90 57 61 63 70 63 63 65 45 38 39 41 43 46 50 53 54 51 48 42 43 40 38 28 27 28 29 33 41 82 92 88 88 95 98 99 98 99 97 91 91 83 80 75 73 82 75 67 60
68 61 68 72 70 75 61 65 40 39 40 38 40 46 49 56 60 57 55 50 48 40 38 39 38 30 29 31 36 66 94 94 99 95 98 95 92 93 99 100 99 96 88 85 79 78 77 70 63
58 71 86 68 83 70 72 75 51 40 39 41 45 46 46 55 62 62 59 57 53 48 44 40 41 40 39 37 33 33 47 85 96 96 93 100 100 100 97 96 99 99 97 94 90 81 78 74 63
67 66 83 55 65 62 69 74 43 43 36 41 44 46 49 50 61 65 64 63 60 54 51 46 45 47 45 45 42 40 38 39 48 72 91 96 97 90 96 100 100 100 100 99 93 85 86 79 67
68 80 61 85 81 84 63 55 34 44 44 46 44 50 53 51 62 67 66 64 66 62 60 55 54 54 57 54 54 54 50 44 39 38 48 66 88 95 96 98 100 100 100 100 100 94 88 82 72
60 63 78 85 76 55 42 48 31 44 46 38 45 49 54 63 70 70 69 72 72 73 68 65 63 60 58 60 65 69 71 66 60 53 50 62 79 96 100 100 100 100 100 100 99 94 88 79 62
74 82 77 71 69 61 47 31 42 39 42 45 48 48 60 76 75 72 70 77 82 83 79 74 68 65 63 64 69 74 73 79 80 84 86 87 94 99 100 99 100 100 100 100 97 87 74 57 42
62 73 67 75 76 88 84 49 38 42 44 47 48 53 79 75 69 63 66 80 78 79 81 77 74 75 77 80 84 90 99 99 96 96 98 98 99 98 100 100 100 98 94 89 81 65 52 44 43

GFSSGP_925_rhum_060.txt.gz
RH
64 49 39 30 31 27 25 22 21 25 23 18 18 19 18 20 23 29 67 69 59 67 72 82 78 71 77 79 85 88 84 81 87 95 94 99 91 89 92 81 94 90 90 89 96 94 92 84 84
61 42 34 29 30 31 22 20 24 20 19 19 19 20 25 23 34 52 62 75 65 69 73 79 77 66 82 84 86 87 83 81 85 88 96 95 85 88 90 92 89 89 89 91 98 92 75 73 84
55 40 29 31 31 30 23 20 17 20 20 19 18 19 20 27 38 48 66 73 69 69 70 80 74 70 83 89 86 88 85 82 79 80 87 91 88 96 95 93 89 87 99 99 96 76 70 79 88
41 32 30 35 34 27 22 21 20 22 19 19 17 19 26 41 42 53 70 68 68 68 70 88 74 78 88 86 88 88 85 79 74 78 82 89 89 97 96 96 87 90 91 94 83 79 81 89 95
42 30 37 40 32 25 24 21 23 23 21 17 17 18 22 46 62 67 71 70 67 68 70 89 76 80 86 87 87 86 83 79 77 76 82 90 86 93 95 89 83 81 81 87 85 84 79 83 96
40 33 39 42 33 26 24 22 22 22 19 16 17 18 23 55 63 76 75 70 70 71 72 77 76 75 78 78 84 84 81 75 77 78 82 90 86 88 96 85 81 82 84 87 92 90 92 93 92
40 41 38 30 31 32 28 20 25 20 18 16 16 19 25 41 76 97 83 71 75 74 72 70 83 81 79 78 79 80 86 83 78 78 83 88 82 85 94 89 84 83 89 89 86 88 87 93 84
40 38 36 31 32 32 24 24 19 19 16 17 17 19 23 44 88 99 96 74 76 76 70 68 71 80 84 88 80 80 80 88 87 77 82 87 66 72 88 75 78 89 91 94 94 94 96 88 72
44 40 38 38 34 26 23 24 21 20 17 18 19 24 43 54 97 97 95 93 88 78 72 69 68 71 73 74 86 85 80 81 85 88 92 85 69 74 77 73 77 89 91 93 93 89 87 75 72
36 38 29 27 29 27 26 21 24 24 23 21 24 30 65 79 92 88 86 87 89 91 80 73 73 71 72 74 74 72 71 70 66 87 91 82 68 65 65 78 85 87 86 85 86 84 82 72 67
36 35 32 41 35 30 28 28 28 24 26 20 22 31 56 77 85 83 81 82 87 87 83 88 77 75 75 70 67 68 69 65 64 76 80 75 73 74 73 72 80 81 85 80 85 92 78 70 61
50 35 35 44 41 41 36 28 30 27 21 24 29 30 34 60 74 79 78 78 73 84 89 94 95 82 78 72 72 69 69 68 63 69 71 73 74 72 70 73 71 72 72 70 72 71 74 74 63
50 45 41 39 44 42 39 37 30 32 28 29 28 32 29 28 50 68 75 76 80 83 86 91 95 94 90 81 75 74 73 71 67 70 71 72 73 71 69 74 83 73 68 69 71 72 72 71 60
46 44 42 38 41 41 43 40 39 31 28 27 28 26 24 26 27 30 47 60 67 69 77 87 90 94 98 99 86 82 77 71 69 70 74 76 73 73 70 72 79 87 81 70 70 69 68 66 59
48 53 43 44 40 36 38 42 45 29 25 26 24 22 24 26 26 28 28 29 33 46 59 70 81 93 96 99 99 92 84 77 73 74 75 79 78 77 73 70 75 77 87 82 72 70 68 60 51
51 46 54 36 40 42 39 28 33 31 28 29 26 23 24 24 25 25 26 29 28 28 36 48 67 79 86 96 99 99 98 89 80 74 74 78 78 79 77 72 73 78 80 90 79 74 68 60 50
52 45 43 50 42 34 40 30 27 31 32 29 27 26 27 26 25 25 26 26 26 26 27 30 46 62 73 89 98 99 99 99 85 84 77 77 80 81 78 74 72 74 78 90 85 77 66 61 52
55 52 47 41 46 48 47 36 34 34 34 31 27 25 25 26 25 24 28 29 29 28 27 26 29 41 56 74 98 100 100 98 98 88 84 79 79 82 82 76 74 72 78 88 88 80 71 64 58
40 47 44 44 43 44 44 45 40 34 32 31 28 24 23 24 24 26 26 26 27 28 29 30 30 31 40 57 95 100 100 100 99 98 98 86 86 82 87 81 79 76 75 78 89 84 74 66 60
46 43 45 55 46 44 44 46 37 33 33 32 31 28 26 25 23 23 24 25 26 27 27 28 30 31 32 40 63 80 83 94 99 100 100 99 93 93 90 89 82 80 78 76 83 86 77 68 58
50 46 55 50 48 43 45 42 39 31 29 30 29 30 32 33 30 28 26 28 30 29 30 32 32 34 35 36 44 62 73 80 84 94 96 97 100 99 95 96 87 88 84 78 81 86 76 68 60
64 54 53 53 54 52 46 33 39 33 39 37 38 40 40 39 34 34 33 34 37 44 45 38 37 37 38 41 42 53 66 72 74 70 79 87 98 98 99 100 97 94 95 87 84 87 81 73 61
72 56 53 52 52 50 47 46 36 32 38 39 37 38 42 44 43 39 39 42 43 48 51 48 40 34 37 39 43 48 62 60 62 69 75 77 91 100 98 99 99 99 99 96 90 87 83 79 67
49 50 50 50 54 66 44 48 31 32 30 36 34 35 40 44 45 43 44 45 46 51 51 48 43 43 43 39 42 45 51 62 67 74 80 83 89 99 99 98 100 100 100 100 95 92 88 83 78
70 58 81 77 80 59 54 50 29 30 29 30 40 41 40 43 47 49 47 47 50 53 53 50 47 45 47 48 45 40 45 56 69 73 77 80 85 99 98 99 100 99 99 100 100 99 96 88 83
59 58 69 54 43 41 57 50 31 31 29 32 34 39 43 47 50 52 51 53 55 57 56 55 52 50 56 57 57 54 50 48 48 54 63 68 71 78 95 99 98 100 100 100 99 100 100 96 89
62 72 49 65 62 56 36 39 34 34 33 35 34 38 46 53 54 54 53 55 59 60 61 62 57 57 58 62 64 63 64 66 61 59 59 65 69 78 84 98 98 100 100 100 100 100 100 99 96
53 48 67 79 66 47 33 30 27 38 37 34 37 42 47 55 54 51 52 61 64 63 66 65 63 60 62 69 71 75 80 84 84 82 77 73 73 82 98 100 99 99 100 100 100 100 100 100 100
60 64 59 48 48 44 24 21 25 35 33 36 38 42 56 57 52 51 56 60 60 63 66 66 67 68 72 75 78 86 92 99 99 99 98 98 98 99 98 99 97 100 100 100 100 100 100 96 93
52 54 47 55 63 64 62 28 25 27 32 36 38 50 58 53 51 54 54 55 58 63 66 67 66 66 70 77 81 83 87 89 92 97 96 96 98 98 99 100 100 100 100 100 100 95 86 84 75

GFSSGP_925_rhum_063.txt.gz
RH
54 51 31 26 29 24 25 19 14 17 17 14 15 15 14 17 18 32 52 51 49 59 77 86 74 72 76 85 85 87 87 81 85 90 95 96 96 97 94 94 90 90 90 94 95 93 88 88 87
51 39 29 25 30 29 22 16 19 14 16 16 16 16 16 17 25 44 48 56 50 55 70 77 74 69 73 81 85 87 84 76 83 90 96 93 84 85 93 92 89 91 88 93 96 88 86 88 87
64 36 29 30 30 27 22 15 14 16 16 16 17 16 16 24 33 38 53 54 52 56 63 76 76 69 82 83 85 84 81 79 79 79 85 90 87 92 95 93 88 90 96 96 82 71 86 86 92
47 32 30 35 32 24 18 15 14 16 16 16 16 18 20 33 34 45 56 53 52 55 59 79 73 68 87 89 85 84 84 80 78 78 82 90 92 95 97 90 85 95 93 91 75 72 82 78 87
39 30 38 38 32 22 17 15 16 16 17 16 15 18 23 43 47 52 53 51 51 51 65 83 72 75 85 89 86 86 82 77 79 78 77 90 91 97 97 86 81 86 91 94 84 81 84 92 90
47 34 41 40 31 23 18 17 17 18 15 15 15 16 29 46 50 55 54 52 52 52 65 84 82 88 91 85 86 83 82 79 79 77 81 85 87 98 88 92 84 80 82 88 89 85 92 95 88
44 40 41 32 26 24 20 16 18 18 16 15 13 17 26 42 64 62 55 53 54 55 58 70 81 79 75 76 81 82 77 84 76 77 78 82 70 86 94 88 86 82 81 81 77 83 80 87 83
38 37 39 32 28 25 18 19 15 17 17 13 12 17 23 41 74 83 65 55 56 58 56 58 73 86 81 79 80 79 82 86 82 78 77 82 55 60 73 81 82 76 77 76 74 82 90 87 74
34 44 41 34 29 22 17 21 18 14 14 14 13 19 36 53 80 83 68 58 57 59 55 53 59 72 76 82 81 80 81 86 86 85 76 81 67 66 58 66 65 71 77 75 78 81 86 67 68
42 45 36 26 23 24 19 20 18 20 18 14 16 25 44 57 79 80 81 79 70 60 56 54 54 55 57 58 80 79 80 85 82 83 92 79 60 58 56 76 64 81 83 80 86 84 80 68 72
37 32 26 21 28 29 22 21 15 20 17 14 16 18 38 50 72 73 74 74 80 65 61 57 57 57 57 59 58 58 57 60 55 59 85 78 61 61 63 76 84 89 87 86 89 88 84 69 56
42 29 22 29 33 32 26 19 24 20 17 15 20 24 31 44 51 62 62 59 63 69 73 67 64 62 61 58 56 53 56 57 51 58 71 64 62 61 60 59 65 69 74 68 75 74 68 64 60
44 31 28 31 39 35 24 23 24 22 21 22 23 26 24 26 39 57 61 56 56 60 73 83 85 79 66 64 60 59 59 59 56 55 59 59 61 61 59 61 62 62 59 60 62 61 61 64 57
40 36 35 32 40 39 38 27 28 25 20 23 22 22 21 22 24 32 50 53 55 60 63 73 86 90 84 75 66 65 64 62 60 58 60 60 60 62 62 59 67 70 62 58 60 60 60 60 58
41 43 40 35 34 37 37 39 36 25 23 23 20 20 18 19 22 25 27 34 42 47 50 59 71 86 89 90 90 75 68 66 63 62 62 65 64 63 63 60 61 71 76 70 61 59 58 58 56
54 44 54 38 36 32 37 36 27 25 24 23 20 18 16 16 16 18 23 26 28 28 32 45 55 67 79 82 92 94 79 72 67 66 64 66 67 67 66 64 62 62 68 76 72 63 61 60 53
50 50 43 35 33 36 41 30 23 24 25 22 19 18 18 18 18 17 18 22 25 27 27 27 34 49 61 68 80 93 99 94 79 70 67 66 68 69 70 68 64 63 65 75 76 70 65 60 55
49 46 31 31 40 35 36 34 24 24 28 24 20 19 19 20 19 18 18 20 21 22 23 24 25 28 38 51 63 85 94 99 98 76 68 68 67 70 72 72 66 64 66 68 77 79 68 61 57
26 36 30 26 38 39 34 33 27 25 28 26 23 20 18 17 16 20 23 24 24 24 25 25 25 25 27 34 44 88 96 97 99 99 78 74 72 69 74 76 72 68 66 68 78 81 71 68 59
35 36 38 38 35 38 31 35 30 28 28 25 23 23 21 20 21 20 21 22 22 22 23 25 25 26 26 28 32 59 83 93 96 99 98 95 83 76 75 78 79 72 71 69 72 80 76 72 64
36 37 35 40 45 38 36 40 34 28 28 26 25 23 24 25 24 24 24 26 28 28 30 28 27 28 29 29 29 34 62 68 76 91 94 97 100 93 84 82 82 79 77 73 72 77 79 76 67
45 32 31 49 50 40 35 23 34 31 33 30 30 30 31 30 29 30 29 32 35 43 48 39 34 33 33 36 36 36 40 55 62 63 68 75 82 91 95 92 88 86 84 83 77 75 83 80 71
56 43 46 48 51 48 46 43 34 31 38 35 34 36 37 36 35 34 36 38 42 50 50 46 39 33 33 35 36 37 37 42 52 58 59 60 64 78 89 97 99 94 90 91 87 83 81 86 73
51 50 50 48 52 71 40 39 36 32 31 33 32 32 35 38 37 38 40 41 43 49 51 47 41 39 41 39 37 38 40 42 49 54 59 63 68 74 84 90 97 99 95 93 93 91 91 91 84
56 60 90 92 87 63 38 43 27 23 24 29 32 33 35 37 40 42 42 44 47 51 51 48 46 42 44 47 45 40 38 42 47 54 60 63 66 73 82 86 93 94 95 97 96 100 97 94 91
72 68 76 68 54 48 45 46 28 24 22 30 32 36 38 41 43 46 46 48 49 52 53 53 51 48 50 50 51 49 49 46 43 42 46 52 57 59 62 83 92 98 96 98 100 100 100 99 97
95 94 47 56 44 42 33 31 32 30 28 30 31 36 41 46 46 46 44 46 53 53 55 58 56 52 52 55 56 56 58 65 65 63 58 54 53 58 64 74 82 91 95 99 99 100 100 100 100
51 44 64 80 69 41 34 26 26 35 36 31 34 38 42 48 47 44 45 53 53 54 58 57 57 58 59 62 63 66 72 79 82 84 82 82 79 74 74 83 92 89 94 94 100 100 100 100 100
54 58 51 46 41 45 22 21 22 29 28 34 35 39 47 50 47 46 49 50 53 56 59 58 58 58 61 66 68 71 75 78 80 85 86 88 93 94 95 94 95 96 92 100 100 100 100 100 100
45 46 42 53 50 50 56 33 22 28 30 31 35 42 50 49 47 48 48 48 50 54 56 57 56 56 58 62 66 70 74 76 76 74 76 82 86 89 94 96 100 100 100 100 100 100 100 100 100

GFSSGP_925_rhum_066.txt.gz
RH
34 41 46 37 50 41 40 29 16 18 17 16 16 15 20 19 45 73 45 48 64 77 87 79 76 74 78 85 86 83 81 78 78 77 82 86 96 97 92 92 88 93 92 95 93 90 91 89 87
46 49 37 46 48 47 34 22 21 17 20 18 17 17 18 41 46 52 53 50 64 78 87 82 74 75 79 86 85 85 83 76 75 73 78 81 89 92 94 92 92 89 88 97 86 81 84 85 88
59 56 48 47 47 44 34 20 20 19 17 17 17 16 15 41 39 47 53 49 61 74 80 80 74 74 82 83 84 82 76 74 74 76 81 76 90 93 96 91 80 86 97 80 74 74 90 90 91
51 45 44 51 42 35 27 18 17 19 17 16 16 21 34 40 41 51 53 49 57 65 75 74 72 76 81 84 84 81 75 71 76 79 81 78 91 96 95 90 94 97 90 88 73 76 90 92 90
50 48 53 49 43 30 22 18 15 17 18 18 15 23 50 45 49 52 51 50 55 68 74 74 72 82 84 83 81 80 78 75 76 75 75 85 94 98 91 84 88 90 90 84 75 75 86 80 75
72 50 61 62 42 30 24 18 17 17 17 15 15 25 52 47 51 50 50 49 53 72 83 73 74 81 85 86 84 83 78 75 77 79 76 80 95 94 94 87 83 84 88 85 81 82 92 75 72
90 70 66 51 43 31 25 18 20 19 18 18 13 21 56 62 57 52 50 50 50 69 76 78 81 86 83 83 82 83 80 79 76 77 81 64 81 93 94 93 87 83 78 76 72 85 81 76 71
59 78 70 51 42 35 22 20 18 18 19 14 13 34 72 70 72 61 51 52 52 56 71 76 80 78 75 75 76 80 80 75 77 73 76 80 54 70 93 91 88 78 72 64 60 67 69 71 70
39 66 83 70 49 32 20 21 18 15 17 14 14 43 54 72 75 71 56 54 56 56 59 68 73 76 72 72 74 79 78 83 84 82 77 78 61 46 54 68 81 69 65 61 60 58 66 58 62
46 62 56 40 31 30 24 22 22 20 20 18 20 39 54 71 75 75 70 64 57 57 54 63 70 71 72 72 73 73 77 82 86 86 80 77 66 58 60 59 69 54 63 65 68 72 70 60 62
46 56 41 32 32 32 27 22 19 22 26 19 19 34 48 63 70 74 76 75 73 59 54 53 57 66 66 78 76 80 82 76 82 84 78 74 68 58 59 68 64 60 70 65 72 81 71 65 73
50 40 35 29 35 33 27 22 22 21 22 22 31 31 46 51 70 69 68 72 75 67 62 56 56 56 56 58 59 59 61 62 61 61 73 66 72 59 63 68 63 69 73 73 73 76 64 65 64
52 40 31 28 38 36 29 29 27 24 25 25 27 27 24 31 49 55 58 56 64 66 68 70 65 66 60 58 56 53 55 57 54 53 64 65 67 61 63 61 63 64 75 67 73 72 71 68 64
42 41 34 32 41 34 33 31 28 25 21 24 24 24 24 24 25 47 57 56 55 59 69 74 75 75 69 65 60 59 59 59 58 54 59 63 61 62 63 60 63 62 63 60 64 63 63 64 64
42 47 43 35 44 43 38 41 38 26 23 25 26 25 23 22 21 24 31 51 50 54 59 70 76 79 78 79 75 67 65 64 62 60 58 59 60 61 63 60 60 65 63 65 59 60 61 61 62
62 49 61 41 40 41 42 52 36 29 30 30 26 22 23 21 20 19 22 26 28 30 34 59 70 77 84 86 83 79 76 71 67 64 62 62 63 62 63 64 61 65 70 64 67 63 60 60 59
67 73 62 49 38 38 42 45 33 27 30 31 27 25 22 20 18 17 17 17 23 26 28 28 34 63 73 81 81 83 85 81 76 70 67 64 65 66 65 66 65 62 67 74 69 70 66 61 60
73 68 47 46 40 40 48 49 31 28 26 28 26 22 21 21 21 18 18 20 22 23 24 26 27 28 35 63 73 77 81 82 90 80 78 70 66 67 69 69 69 67 63 66 76 72 72 65 64
42 47 47 36 36 44 46 45 36 28 32 34 30 25 23 22 19 20 22 23 23 24 24 25 25 25 26 29 36 74 85 86 82 87 84 79 73 68 70 72 72 70 65 64 68 76 70 73 63
45 44 44 33 40 42 42 41 31 29 33 32 31 29 25 23 23 23 22 22 22 22 23 24 26 26 25 26 28 38 75 80 76 75 91 92 85 78 74 71 74 77 71 67 69 75 79 76 68
43 44 39 43 44 39 39 42 39 31 28 28 28 28 26 27 26 28 28 29 33 42 37 30 28 28 28 30 31 30 42 80 79 87 89 88 92 84 91 80 76 79 80 75 72 75 84 82 75
61 33 33 47 56 58 42 42 38 35 35 31 30 31 32 32 32 34 37 37 42 49 49 44 37 31 29 30 33 35 37 52 73 74 80 78 80 80 78 72 86 82 82 82 78 75 83 85 83
47 39 45 52 57 50 50 58 37 37 40 38 37 41 41 36 38 41 41 41 48 52 51 45 40 38 35 34 35 35 38 37 38 46 61 64 64 67 81 87 80 81 92 87 85 83 83 88 88
51 54 54 51 60 90 54 53 49 43 38 39 41 44 43 43 44 44 41 42 48 51 51 48 46 41 43 44 40 38 38 39 41 44 56 57 60 65 70 75 85 82 85 83 87 83 88 89 97
67 68 94 96 96 88 44 53 44 33 32 36 38 41 42 44 50 51 53 51 51 53 54 53 51 48 48 49 50 49 44 40 41 44 49 58 64 66 69 72 77 79 81 87 87 86 88 96 97
72 71 94 76 87 73 44 62 39 30 31 33 38 43 43 47 54 53 50 50 53 54 55 57 56 53 52 54 56 55 58 62 62 61 59 53 51 53 56 65 81 85 84 86 91 93 88 88 96
96 94 51 70 45 78 57 39 34 28 42 38 38 43 49 52 54 50 48 54 53 53 56 57 56 56 57 61 61 64 68 66 71 70 71 71 69 68 67 69 81 81 81 86 88 92 97 99 99
88 63 74 93 74 62 47 45 43 42 42 38 41 44 52 52 52 52 55 52 54 56 59 58 58 60 63 66 67 71 76 80 82 85 86 85 81 81 78 79 82 88 93 87 87 90 96 100 100
94 92 68 56 54 80 48 40 30 37 37 38 40 43 52 55 53 55 54 50 55 57 58 57 56 57 60 65 69 73 76 77 76 76 78 82 86 88 89 89 89 89 90 88 95 98 100 100 100
52 52 53 87 61 71 82 50 29 32 36 39 41 46 56 53 52 54 50 49 52 54 56 57 57 58 61 65 69 72 74 76 78 77 75 75 75 76 78 82 85 86 88 94 99 100 100 100 100

GFSSGP_925_rhum_069.txt.gz
RH
35 31 48 51 55 58 54 41 20 21 19 20 18 21 21 34 56 64 51 57 72 78 80 76 74 76 82 85 82 77 78 79 75 78 81 81 97 93 90 88 95 96 96 92 91 92 90 89 78
34 39 52 55 61 60 50 31 22 24 21 19 18 19 30 61 57 59 74 69 73 74 80 82 75 77 83 85 79 80 82 76 75 73 77 82 92 94 92 92 95 95 98 91 90 89 90 90 68
32 55 70 62 67 62 48 26 24 22 19 19 19 18 35 50 57 55 65 72 70 78 82 80 75 82 83 82 80 78 77 74 73 74 77 78 96 96 95 89 90 97 80 78 87 86 87 76 51
46 55 61 67 65 48 40 32 22 22 19 18 18 48 50 52 53 53 67 74 76 81 80 80 76 81 83 82 81 78 73 76 76 78 72 90 91 96 88 90 90 88 80 77 71 71 72 64 53
48 69 73 66 59 47 36 25 18 22 21 19 17 41 64 58 55 52 66 74 78 82 76 78 77 78 80 82 80 78 72 76 72 71 65 92 95 96 89 96 87 71 83 78 79 85 72 64 56
84 80 84 70 59 43 33 21 18 20 20 18 30 57 66 55 53 52 61 70 73 78 73 72 78 79 80 84 83 80 74 73 73 69 63 92 98 97 93 87 87 86 84 80 75 82 68 66 58
80 76 84 60 53 47 37 22 20 21 19 18 18 67 77 71 57 55 58 66 73 73 71 69 77 85 82 81 83 81 75 75 75 74 69 83 89 92 89 79 76 77 76 74 69 77 64 64 62
90 88 72 67 63 49 32 22 20 20 19 15 21 69 83 74 66 55 63 71 74 76 71 70 74 82 81 83 83 81 76 76 75 75 76 60 81 88 89 89 80 76 71 62 58 63 53 57 61
60 93 91 77 66 51 36 37 20 18 19 23 43 62 79 70 68 63 56 76 79 78 70 66 84 81 74 73 77 78 75 78 76 76 77 78 51 59 78 88 86 76 67 58 56 52 51 50 58
61 81 67 50 52 54 42 30 32 20 21 30 66 82 76 72 75 75 67 67 63 81 75 68 66 68 74 76 73 74 75 76 74 80 78 74 62 40 54 61 77 65 59 57 56 50 54 52 58
56 64 54 47 44 57 44 30 26 25 24 22 54 86 84 80 78 81 77 72 65 59 73 72 67 66 72 72 73 73 74 76 81 82 78 76 69 64 57 59 64 52 56 58 64 67 62 55 61
55 46 44 40 42 55 50 27 23 23 29 35 32 62 76 85 87 80 77 70 68 65 60 68 67 68 72 73 76 72 75 75 77 78 79 71 80 66 63 61 64 51 50 56 59 60 61 64 70
63 48 39 37 40 40 33 30 29 26 33 31 30 35 64 77 77 74 70 64 60 64 65 64 68 70 70 74 68 64 68 73 60 75 75 73 73 64 61 62 62 54 54 56 64 66 65 60 69
53 51 47 39 43 38 34 33 28 27 27 31 29 27 27 40 66 66 64 68 69 64 61 62 64 63 61 60 59 56 59 59 59 60 60 62 68 73 62 63 61 63 63 67 68 68 69 70 68
60 58 53 45 45 44 36 38 36 31 30 28 28 28 24 23 25 58 58 57 60 66 67 63 61 65 69 66 64 57 58 60 58 57 57 68 67 68 63 64 61 63 64 64 66 68 69 70 70
67 55 70 47 48 44 36 49 39 33 34 34 32 29 30 24 21 22 27 38 49 56 65 70 67 60 67 70 70 69 69 68 65 63 60 58 59 62 64 65 62 62 64 66 63 61 64 63 64
76 89 73 53 47 49 43 51 37 33 36 36 36 33 30 26 22 21 20 20 24 28 32 59 74 72 69 67 69 71 70 74 70 67 65 65 62 62 62 63 65 63 63 68 66 65 62 62 63
92 82 67 65 49 47 52 51 39 30 36 37 35 31 30 27 25 19 19 21 22 25 27 28 34 59 62 74 78 74 68 70 73 73 74 72 66 65 65 65 64 66 64 64 72 68 69 69 63
68 71 59 52 44 49 50 50 44 39 32 36 35 34 28 26 22 24 23 22 22 23 23 24 25 26 38 77 82 87 85 81 75 70 68 73 76 73 69 68 68 67 69 66 64 74 73 72 73
59 66 63 44 38 47 50 51 46 40 37 36 35 34 31 27 28 26 24 24 26 28 26 24 25 26 27 28 32 61 69 74 70 71 72 67 64 73 82 78 71 71 72 71 67 68 77 76 76
65 71 61 47 47 43 45 55 48 40 34 36 33 31 27 32 34 38 40 42 39 39 37 33 29 28 28 29 31 33 40 83 79 82 85 77 66 60 65 70 78 82 77 77 74 70 72 83 85
74 51 47 54 60 72 44 66 43 40 40 35 33 32 33 38 39 44 44 46 45 47 46 43 39 32 29 30 30 32 38 44 64 80 79 72 72 75 77 72 70 74 72 84 79 79 76 80 92
69 49 44 55 60 56 54 60 47 39 47 41 38 37 43 40 44 48 46 48 51 52 51 45 44 41 42 39 34 35 36 38 39 40 45 62 78 72 71 67 75 74 78 81 89 90 89 90 92
83 61 57 61 69 91 66 65 55 52 40 42 44 53 50 51 52 49 45 52 55 54 54 52 49 48 48 49 49 47 41 40 41 42 43 50 64 69 69 70 76 77 79 78 80 83 90 98 99
89 88 98 94 95 92 58 66 50 37 38 42 53 54 53 56 60 60 60 59 59 58 57 57 55 54 53 52 55 56 58 58 61 65 60 53 53 58 64 71 77 78 77 79 77 80 85 90 90
97 79 88 87 97 85 50 77 52 37 35 42 45 49 53 64 64 62 58 62 58 57 57 58 56 57 58 58 62 64 63 65 70 71 72 70 69 69 68 69 74 89 89 90 79 82 78 77 81
98 96 63 71 59 81 65 46 35 45 47 46 50 52 62 65 63 60 64 58 57 58 60 59 60 63 64 66 69 74 75 74 77 77 75 78 78 75 75 77 76 80 84 95 83 84 80 79 82
95 72 79 92 76 72 66 54 54 52 51 46 49 56 62 63 62 65 63 58 59 60 60 58 60 62 66 72 75 78 78 80 81 80 77 78 79 78 76 78 81 82 81 79 83 84 84 83 89
97 98 80 63 69 81 59 52 37 41 45 44 46 52 64 67 64 68 61 58 59 59 59 57 58 60 64 68 71 72 75 77 75 72 71 72 76 76 77 82 83 81 81 83 83 85 92 100 100
71 83 74 85 65 73 87 64 33 39 43 40 48 54 64 60 63 64 57 58 58 59 59 59 60 63 68 71 72 74 75 78 80 81 82 80 79 79 78 78 79 80 81 83 88 92 98 99 100

GFSSGP_925_rhum_072.txt.gz
RH
33 31 37 46 56 62 60 48 28 21 21 20 20 36 49 45 55 48 66 78 78 89 86 82 82 82 81 82 81 79 80 80 74 80 90 97 97 91 93 95 96 95 90 90 92 92 89 76 51
35 32 46 60 67 66 56 37 30 23 23 22 22 24 54 68 61 88 86 86 73 85 84 79 81 82 82 81 80 82 82 76 78 75 75 84 92 91 89 96 97 97 93 91 88 86 78 51 51
34 39 63 63 74 66 52 30 30 22 22 20 21 31 49 62 64 68 65 86 78 82 78 79 80 83 83 79 77 81 82 75 74 75 75 91 96 94 94 94 99 90 74 75 78 71 52 48 60
46 53 64 75 73 54 42 39 32 24 20 20 35 63 57 59 56 64 78 82 79 80 79 82 79 84 84 78 76 77 77 74 76 77 65 90 96 93 93 90 93 78 72 79 78 59 51 57 68
50 66 74 75 70 56 44 37 33 24 21 20 26 63 70 61 64 71 84 79 77 82 81 81 79 84 82 80 78 79 73 74 72 74 84 91 95 90 89 90 86 77 76 79 70 50 46 54 67
84 72 86 82 66 46 44 36 24 22 21 26 69 72 72 67 75 82 79 74 72 79 79 78 80 84 82 81 80 78 72 75 61 68 93 98 98 95 96 86 79 78 82 79 68 49 48 47 62
72 69 80 70 62 48 41 32 24 24 21 20 55 80 78 70 67 83 78 77 77 75 75 77 80 82 81 82 82 79 74 71 63 58 86 95 94 86 91 88 88 86 80 70 58 50 46 50 55
85 72 72 66 67 56 55 44 31 22 20 18 49 88 89 72 71 75 84 87 83 77 73 71 77 80 80 82 82 80 75 76 72 72 56 81 89 86 84 77 80 84 72 63 56 55 42 55 54
88 90 81 68 75 57 60 66 36 24 31 48 66 73 69 74 70 90 97 98 91 85 75 73 85 80 78 83 84 80 77 78 77 74 71 47 58 78 86 81 76 69 70 66 64 64 51 56 58
90 96 78 55 56 75 66 63 47 28 40 74 94 85 78 78 72 84 96 99 96 90 81 70 79 80 75 80 80 80 78 81 80 77 76 73 58 48 67 80 82 78 61 57 61 66 62 58 60
66 78 58 50 47 76 72 67 54 38 29 59 90 90 87 87 86 83 84 89 86 76 74 74 78 80 75 75 76 79 77 82 81 78 79 74 71 49 54 53 78 70 61 56 56 54 59 55 58
67 53 52 54 78 73 81 74 55 32 31 31 76 86 86 90 93 86 82 78 83 83 71 70 76 72 74 74 75 76 76 81 80 78 80 79 76 66 67 59 56 56 46 52 57 58 55 52 59
65 52 46 41 61 68 72 78 59 31 35 44 75 78 86 85 84 79 76 74 72 75 74 75 74 71 75 77 73 75 74 76 72 73 73 78 76 78 66 64 63 61 53 49 51 52 60 58 65
64 56 50 42 43 42 68 65 53 30 32 35 37 61 81 85 79 76 77 72 68 69 72 71 76 75 75 75 76 71 66 63 71 65 60 69 76 77 71 64 65 61 57 49 53 59 65 60 61
66 65 63 55 49 45 37 54 55 29 31 32 31 30 33 54 75 76 67 66 66 66 66 72 70 70 73 72 75 70 64 62 66 64 61 60 69 75 74 66 65 63 61 64 66 67 70 72 72
76 72 78 52 51 45 37 51 36 34 33 33 31 31 30 27 40 61 61 64 65 64 61 60 66 69 69 66 64 62 60 61 61 63 60 57 62 70 72 71 65 65 62 64 66 67 68 70 71
81 88 74 58 50 50 42 46 38 32 37 35 36 34 31 29 24 24 33 36 37 62 68 67 65 65 66 72 72 68 64 67 66 63 62 61 60 65 68 67 66 65 64 66 66 68 69 66 70
95 84 70 66 55 53 55 53 42 38 37 38 38 37 33 30 30 21 22 22 24 30 37 57 73 72 70 66 69 73 75 72 76 73 70 66 64 63 62 62 64 65 66 65 66 70 72 68 64
77 71 70 60 48 52 58 55 47 39 38 41 41 37 32 27 29 27 27 25 24 25 25 26 30 54 74 80 79 78 76 73 73 76 76 76 75 71 67 66 66 66 67 67 66 68 71 73 74
78 79 71 51 43 52 54 55 47 43 42 37 38 37 34 28 30 29 30 30 28 29 27 26 27 28 30 38 80 87 87 81 75 70 69 70 71 73 77 73 73 72 74 72 70 70 72 76 77
75 74 65 58 50 47 54 62 58 48 42 36 38 35 34 34 35 43 46 42 38 37 37 33 29 29 29 30 32 38 59 81 82 70 68 70 80 77 72 68 71 78 83 80 77 74 75 83 80
83 58 57 52 61 80 46 79 51 53 46 43 40 38 36 38 43 47 49 49 43 44 42 42 38 36 34 32 31 31 34 56 69 79 75 78 81 78 74 75 76 77 81 84 83 84 83 86 93
69 74 56 57 65 59 56 68 58 38 54 45 45 40 40 48 52 53 53 54 54 52 49 48 45 46 48 45 38 36 37 37 39 40 41 45 43 71 83 83 75 70 70 77 81 89 93 98 98
86 58 66 68 79 93 65 68 65 48 43 42 40 41 48 51 55 55 55 58 60 57 55 53 52 53 53 52 52 50 48 46 44 46 47 47 58 70 75 78 77 78 84 82 81 81 83 89 98
81 77 98 98 98 93 64 71 46 42 39 38 46 57 61 60 63 67 70 67 63 59 58 57 55 56 58 57 57 61 65 66 63 64 64 60 61 63 67 72 77 83 84 86 86 84 79 81 85
94 88 92 89 96 83 58 82 54 39 37 39 45 54 63 69 70 71 71 67 61 60 58 58 58 61 62 62 65 67 68 68 72 76 77 75 76 76 73 72 78 88 95 94 92 83 78 77 80
96 99 75 73 71 88 69 58 40 48 50 56 55 57 68 72 70 70 70 62 61 61 61 61 64 67 68 72 76 74 76 76 77 77 76 78 80 79 78 77 76 77 79 83 89 86 78 81 89
91 84 98 92 83 79 68 64 56 58 60 54 55 63 69 70 67 73 67 64 64 63 61 62 63 66 73 76 77 78 77 77 76 74 70 71 74 75 76 77 78 79 78 77 76 75 80 84 90
96 100 89 70 72 83 68 59 44 52 53 53 55 60 68 70 70 73 67 65 64 62 59 59 61 64 69 72 73 74 76 77 76 75 76 76 75 74 74 77 79 78 77 79 82 86 90 92 99
76 89 76 91 83 77 86 56 39 43 50 48 50 57 66 64 68 68 66 67 64 62 61 61 63 66 72 74 74 76 79 82 82 83 83 83 82 82 80 80 79 79 80 82 85 91 98 100 100

GFSSGP_925_rhum_075.txt.gz
RH
41 39 34 40 53 65 63 50 36 26 23 21 22 33 38 63 46 48 75 82 82 91 84 81 82 80 83 84 85 84 83 80 82 96 98 97 94 94 96 98 95 90 89 92 93 92 85 80 86
44 44 41 61 64 69 60 42 35 26 22 26 37 40 63 68 70 96 92 96 80 89 85 85 82 80 83 83 84 83 81 79 86 94 89 86 90 89 97 98 97 93 84 83 85 84 72 76 80
51 46 54 63 76 68 54 35 36 28 23 24 28 49 58 70 81 87 80 100 88 87 86 84 82 83 81 81 80 80 83 87 81 75 74 86 92 89 96 97 92 72 62 55 45 55 55 72 79
60 53 62 74 74 58 44 37 38 38 23 23 49 68 65 66 69 65 94 99 85 87 84 82 82 84 80 79 81 84 84 78 76 76 64 92 95 94 95 100 86 70 69 62 48 43 49 70 77
56 59 75 80 75 60 50 44 40 34 28 23 43 76 75 71 66 82 94 92 82 86 82 84 84 84 80 82 83 88 77 72 76 74 79 87 91 96 90 94 85 74 75 70 41 40 59 72 75
72 72 86 86 70 50 45 41 39 29 24 50 73 79 78 81 91 94 86 84 79 85 83 83 83 85 81 82 82 78 73 72 62 64 83 91 92 95 93 96 85 79 83 74 51 46 57 72 72
76 71 76 70 56 54 41 51 34 32 26 27 67 86 82 84 94 89 87 82 84 85 82 84 84 84 84 83 80 78 72 73 55 74 93 85 94 92 100 96 92 87 88 80 67 52 50 59 69
85 68 73 69 55 61 60 60 50 32 26 31 60 88 89 84 90 91 90 87 86 83 80 79 82 85 85 84 82 78 75 69 57 63 90 81 78 79 89 92 93 95 84 80 78 68 57 53 62
82 84 70 67 69 64 66 70 56 45 35 64 85 77 78 83 88 97 100 100 99 96 96 86 83 82 81 82 83 80 75 72 70 64 61 82 83 85 81 73 66 62 62 59 55 72 62 63 61
92 81 73 55 57 59 69 67 65 60 50 65 94 92 88 95 95 98 99 100 100 100 100 97 82 82 81 83 84 82 77 76 75 73 70 56 64 76 82 81 76 70 65 64 59 54 39 51 61
83 79 60 54 78 81 74 69 69 63 40 39 89 96 93 93 98 99 96 100 90 86 92 82 87 89 84 83 84 83 79 78 78 79 79 77 69 59 60 60 64 69 68 63 60 57 49 48 53
75 62 58 69 85 80 75 72 71 66 49 50 47 90 94 92 94 97 100 97 90 85 78 76 88 88 85 80 79 77 79 81 81 81 82 82 76 62 46 47 43 54 58 53 53 52 50 53 50
64 59 53 81 78 72 68 68 70 72 57 47 63 86 94 94 92 92 90 89 83 83 76 72 79 85 84 79 75 76 77 79 80 81 83 84 80 71 62 62 58 59 61 51 49 51 55 56 53
70 55 69 71 77 61 75 70 81 63 54 40 88 84 86 89 90 88 86 84 83 81 78 74 80 82 80 76 76 75 77 77 81 79 80 80 79 74 74 70 64 64 65 61 48 50 51 52 60
69 70 68 57 59 67 71 94 88 63 53 42 55 86 79 82 81 82 78 79 77 76 73 77 76 74 74 75 75 76 76 76 74 71 70 69 73 76 76 76 68 64 66 64 60 59 62 70 74
78 70 84 58 52 55 65 76 78 69 62 40 35 33 38 44 73 69 73 71 71 72 75 69 73 76 77 76 76 77 75 72 68 64 66 67 67 68 72 74 74 69 66 67 66 66 68 70 73
86 90 82 64 52 51 48 52 66 60 59 39 36 37 31 30 28 53 65 66 65 67 70 74 74 72 72 75 76 77 79 70 63 62 62 63 63 62 66 70 73 74 70 68 67 67 69 70 69
98 87 73 67 59 55 55 50 44 39 42 44 40 40 39 31 30 24 28 38 40 55 63 69 77 79 78 77 76 75 73 76 74 72 69 64 63 64 64 68 73 74 72 68 68 69 69 69 69
77 70 71 59 51 57 58 53 47 40 43 42 47 44 42 34 28 28 27 28 30 35 40 53 68 73 80 84 83 85 83 80 76 74 77 78 75 71 68 68 71 72 73 71 70 72 72 71 75
75 77 72 55 46 53 57 58 50 45 47 44 41 46 42 32 32 33 32 29 31 32 29 28 31 38 52 67 78 83 80 79 80 80 80 80 85 82 76 76 74 73 74 74 75 77 79 80 81
76 78 70 59 51 49 53 59 54 46 49 43 41 40 39 37 36 44 47 42 41 40 38 33 30 28 29 31 38 57 79 86 84 77 74 77 83 85 88 86 83 80 77 83 84 85 83 91 87
87 63 60 54 61 74 52 86 58 49 49 49 46 44 43 39 38 49 52 51 46 45 43 42 39 36 33 31 32 33 38 58 69 75 73 70 78 81 87 87 82 81 83 85 85 91 93 95 98
75 71 63 60 66 65 59 74 64 43 60 51 45 45 43 43 47 53 55 54 56 52 48 47 48 49 50 44 37 36 37 38 40 43 42 43 48 50 60 76 82 83 83 81 84 85 84 92 99
76 62 70 83 80 93 70 72 73 53 45 40 46 48 40 51 56 57 59 61 61 58 54 53 52 54 55 55 54 51 46 47 49 52 49 48 56 64 68 76 83 86 85 84 90 88 89 92 97
72 87 98 98 98 93 68 71 54 45 40 40 40 47 49 57 65 72 76 71 64 61 59 57 56 59 60 60 61 63 64 64 64 66 67 64 65 65 69 76 83 88 92 96 94 92 96 90 90
86 75 92 89 96 84 72 85 61 45 42 40 41 45 62 69 73 78 78 70 64 62 59 59 62 63 63 65 67 70 72 71 72 75 78 78 79 78 76 75 79 86 97 99 100 100 95 92 82
93 99 71 77 75 91 74 62 43 42 46 47 58 66 73 76 79 79 77 66 64 62 61 62 65 68 71 73 75 75 77 77 75 75 75 75 77 78 78 78 78 79 80 81 84 90 88 87 87
84 81 94 96 95 87 72 71 53 45 52 63 70 68 72 74 75 79 72 68 66 64 63 64 66 70 77 78 78 78 77 77 75 73 70 70 71 72 74 76 76 76 74 75 78 79 80 85 93
98 98 98 95 81 80 74 60 50 45 48 64 66 70 71 70 72 79 74 68 66 63 62 62 64 69 73 74 74 75 76 77 77 77 78 78 78 76 75 75 76 75 75 76 80 83 86 97 99
73 78 88 96 87 84 86 66 38 45 50 59 66 67 70 69 74 75 73 72 68 64 63 62 65 68 72 74 74 77 80 83 83 83 83 84 83 83 82 82 82 81 81 84 86 90 99 98 100

GFSSGP_925_rhum_078.txt.gz
RH
47 51 54 39 46 65 59 46 41 34 24 23 23 27 33 56 49 48 83 89 75 85 86 84 84 88 86 87 88 88 87 84 88 94 98 97 96 95 98 95 91 88 90 93 94 88 84 92 95
55 53 47 58 60 62 53 47 36 33 26 38 41 50 61 72 80 97 97 98 79 89 85 83 84 86 85 85 87 86 82 84 91 92 96 87 92 97 97 97 95 91 90 92 94 87 84 90 76
64 62 52 63 75 65 46 39 41 39 38 26 38 58 65 74 92 93 83 97 86 89 85 82 83 83 84 83 82 81 80 91 86 82 78 93 86 96 95 98 83 68 58 64 78 80 81 73 77
56 59 62 70 71 57 44 40 43 42 30 26 45 67 69 72 82 76 99 100 95 92 84 83 83 84 83 80 78 83 85 84 83 78 69 97 92 97 98 98 75 70 66 51 55 64 76 80 77
60 65 73 80 72 62 51 44 42 41 32 26 48 73 79 78 72 86 98 97 92 92 85 85 84 84 84 78 82 85 78 76 76 72 87 94 96 91 96 94 78 74 74 51 53 67 78 79 74
84 76 79 75 72 52 46 50 42 38 34 32 71 81 82 95 100 100 100 98 94 86 86 85 86 84 80 81 85 84 77 73 65 61 77 83 85 89 90 93 83 77 81 67 53 62 74 76 77
79 74 73 58 59 54 46 62 48 48 43 26 67 84 88 95 99 100 99 92 88 85 86 87 86 84 82 85 85 81 76 72 59 76 78 79 90 99 98 97 85 82 88 78 64 59 68 74 75
83 71 75 66 53 58 65 60 52 58 49 44 68 83 92 87 99 100 100 93 88 88 86 86 85 86 86 84 82 78 74 72 58 86 81 76 85 88 89 85 86 88 80 64 50 48 66 71 75
82 80 82 74 63 55 68 63 62 55 47 46 91 91 84 92 100 100 100 100 100 99 99 100 89 87 86 84 82 78 76 67 54 75 91 84 79 83 90 90 91 89 78 67 57 50 46 58 64
89 83 70 57 64 69 70 67 76 64 64 58 63 79 98 99 100 95 96 96 97 98 99 97 97 89 85 86 84 80 77 72 69 64 61 79 83 81 81 78 75 72 68 61 54 49 47 54 65
85 78 63 84 85 74 71 72 70 70 55 58 69 57 78 95 99 91 92 91 95 96 99 99 99 90 86 84 83 83 79 77 76 72 72 67 62 61 68 73 75 76 74 62 54 46 45 44 51
82 68 66 88 84 72 75 65 70 73 62 59 58 52 70 91 93 91 91 96 100 100 100 100 94 88 87 84 83 82 81 78 79 77 79 80 77 70 62 50 52 58 65 58 49 45 46 44 48
62 64 72 84 73 69 66 73 75 70 56 55 50 70 95 97 98 98 98 100 98 95 92 86 83 89 90 88 85 84 80 79 78 81 82 82 83 78 67 55 56 53 59 59 49 46 46 48 52
65 59 80 83 72 70 74 80 73 50 57 57 54 49 92 97 97 100 100 94 90 86 82 80 81 91 92 90 86 80 78 78 80 82 83 83 83 80 75 70 66 64 65 65 62 52 51 52 53
66 87 80 84 80 78 79 81 86 61 57 63 58 47 78 92 93 92 92 92 86 81 75 77 72 79 87 87 83 78 76 78 80 78 81 80 79 76 77 76 76 73 66 68 68 65 61 61 60
74 75 91 78 81 81 75 87 75 65 74 70 57 47 41 74 86 83 83 83 81 80 79 77 76 76 82 83 77 76 78 78 78 74 74 77 76 72 75 77 74 73 74 68 69 68 67 68 68
86 94 83 82 74 86 79 72 65 81 78 74 61 47 37 38 38 73 77 79 78 78 75 75 76 78 77 76 75 77 79 80 79 75 72 71 74 73 72 72 70 73 76 75 72 71 70 71 72
91 85 80 76 67 77 87 56 74 81 82 75 66 47 39 37 33 27 39 66 75 76 78 78 77 76 77 81 83 84 85 85 84 79 68 66 68 69 69 67 69 73 78 79 79 76 73 73 72
78 76 78 62 56 62 74 59 72 70 85 84 64 50 42 41 31 27 27 33 42 46 65 74 80 81 82 83 85 85 81 78 76 72 77 81 77 73 69 69 71 74 76 76 74 76 75 75 76
76 78 75 59 52 62 63 61 51 50 62 62 54 40 46 42 32 33 33 32 32 35 41 46 58 74 82 86 87 87 83 84 84 85 85 87 89 91 91 85 79 76 76 76 77 82 85 87 85
78 82 74 64 53 58 59 63 60 49 44 45 43 43 42 45 39 38 45 38 38 36 33 31 31 33 36 40 50 66 85 92 90 87 86 85 84 88 90 91 91 92 93 90 87 88 93 96 92
82 66 65 60 64 80 53 84 62 48 51 50 44 44 46 43 40 42 51 53 46 42 39 35 32 30 29 29 30 32 38 57 71 76 79 79 70 74 82 88 95 98 97 89 85 89 92 100 99
72 68 66 62 72 68 64 78 61 48 54 45 38 44 49 46 44 49 56 52 53 50 47 44 42 41 40 36 33 32 34 36 40 47 53 49 50 56 60 66 76 90 93 92 91 89 88 94 100
72 70 77 84 78 90 75 77 74 57 46 40 42 45 43 46 47 54 55 64 64 59 56 54 52 54 54 52 50 46 42 43 44 46 44 44 48 58 64 69 75 86 98 100 97 96 94 92 98
71 78 98 97 98 90 70 82 57 48 41 39 36 38 48 47 57 66 80 75 68 63 59 58 58 61 62 60 60 62 64 65 65 67 66 65 65 67 69 75 85 93 100 100 100 100 100 100 100
81 80 92 88 96 89 72 89 60 45 42 40 39 41 44 59 71 80 81 74 68 64 61 61 62 64 66 68 68 70 71 72 75 78 80 77 76 76 75 75 78 83 93 97 98 99 99 100 97
97 96 63 85 80 91 76 67 47 44 44 43 46 51 58 67 77 86 84 72 68 64 63 62 65 70 74 74 76 76 76 75 73 73 73 72 73 74 75 76 76 76 77 80 86 93 94 93 95
83 80 92 96 97 91 74 70 60 40 38 44 56 65 69 74 85 89 83 73 68 65 65 66 67 70 76 78 78 78 78 77 75 74 71 70 70 70 71 72 73 73 73 73 76 79 82 86 94
97 98 92 83 82 87 78 62 51 45 40 43 55 70 80 84 84 87 80 73 69 66 66 66 68 70 74 76 76 76 76 76 76 76 78 78 78 77 75 75 75 75 76 78 83 86 97 100 99
73 76 85 94 86 87 89 60 37 42 48 50 65 76 81 77 83 83 80 77 72 67 66 65 68 69 71 73 73 75 78 80 81 82 82 82 82 83 83 83 83 83 84 86 89 96 98 98 98

GFSSGP_925_rhum_081.txt.gz
RH
78 53 53 41 42 46 42 39 40 34 26 24 29 27 31 47 42 39 86 86 76 86 97 91 85 86 86 87 89 89 89 88 86 95 97 96 96 97 95 90 88 89 93 93 90 89 94 95 90
80 54 47 52 46 45 40 44 37 33 28 30 44 50 52 56 77 91 91 94 79 92 97 98 84 84 87 88 88 88 84 88 89 95 94 94 97 98 97 95 91 90 93 95 89 90 96 83 77
73 59 47 52 57 43 35 40 43 39 36 30 35 58 62 67 87 87 88 98 97 96 96 93 84 84 86 84 82 80 78 89 80 81 79 89 97 94 98 91 80 73 74 84 87 86 86 84 77
61 58 53 49 57 50 40 41 42 37 31 25 50 62 68 81 86 88 95 100 99 96 95 86 86 84 85 83 80 78 89 80 79 75 90 83 95 96 97 81 73 68 56 75 80 89 82 73 73
61 58 62 66 59 53 48 43 42 37 34 27 47 62 76 83 79 97 99 99 100 96 91 93 84 85 82 79 80 86 78 76 76 69 85 96 96 94 89 83 75 78 61 66 77 74 74 77 74
78 62 62 64 63 52 44 51 41 43 38 28 60 72 78 97 97 95 99 100 100 96 92 94 85 84 81 80 85 82 73 73 70 64 77 82 89 95 85 86 77 77 72 68 83 87 81 77 74
81 76 64 56 57 48 46 51 49 49 38 36 66 72 81 91 97 98 99 99 97 99 91 96 91 85 80 82 86 80 78 74 62 80 80 80 79 92 89 86 80 80 78 54 49 70 78 79 76
81 80 65 60 55 48 59 54 54 55 44 39 70 67 73 85 100 99 100 99 100 100 93 92 89 88 87 85 84 80 75 69 67 82 80 81 84 89 92 84 84 84 80 69 61 56 61 68 71
75 85 74 62 55 54 62 55 58 54 49 54 66 79 89 98 99 99 100 99 98 99 100 96 92 87 84 84 83 80 77 68 72 86 81 74 84 89 91 88 86 85 75 62 60 63 64 62 66
83 84 69 56 57 67 65 63 67 53 43 50 48 45 50 98 99 97 97 97 96 97 97 99 97 91 87 86 82 79 77 64 58 74 84 82 77 78 78 78 75 67 64 63 60 61 62 61 64
84 77 69 84 74 64 66 68 64 58 49 60 61 54 52 85 96 90 90 89 91 92 92 94 96 96 91 86 82 80 78 74 71 63 58 62 66 67 68 73 75 73 69 66 59 55 54 51 54
84 71 70 84 77 69 73 63 62 63 55 55 54 52 61 61 92 87 92 90 91 92 92 93 95 98 94 86 85 81 80 78 76 73 73 74 71 65 64 59 59 59 60 62 57 52 50 50 50
64 72 77 78 67 68 66 73 66 63 56 52 52 52 52 80 87 91 92 92 94 96 97 96 98 99 93 90 87 86 83 80 79 79 79 78 79 78 75 64 52 52 53 60 60 50 47 49 51
59 72 83 71 71 71 69 77 68 60 55 52 53 52 52 62 89 94 95 96 99 100 99 99 99 92 89 88 87 86 85 81 81 80 81 82 82 82 80 74 65 63 63 66 67 64 56 51 51
66 86 80 82 74 79 57 64 70 61 61 59 62 55 51 41 85 95 97 100 97 96 89 86 78 86 91 91 90 87 84 80 80 80 81 84 84 82 80 78 75 74 73 68 69 70 68 64 61
72 79 89 83 77 84 56 70 56 68 64 65 62 56 54 43 46 89 94 97 89 90 84 80 77 78 89 88 87 85 82 80 79 80 80 79 80 78 78 77 74 73 78 79 74 71 73 71 69
80 90 82 92 74 87 71 72 54 71 71 62 59 58 55 48 35 35 81 88 86 87 83 81 80 76 76 82 86 86 82 81 80 82 81 76 75 76 79 77 73 74 78 80 80 77 75 74 73
92 86 77 86 84 87 84 83 66 72 73 63 59 58 58 53 40 31 48 76 85 86 85 82 81 81 81 82 85 84 83 82 82 82 80 79 76 74 76 77 75 75 78 79 79 80 80 79 77
70 70 65 66 63 81 85 76 68 76 74 77 65 60 57 53 38 30 29 45 71 79 83 80 81 80 80 82 87 88 86 82 82 81 81 82 73 78 78 76 74 73 76 76 78 83 83 80 79
72 77 76 62 60 70 74 82 62 74 73 70 67 57 54 46 35 32 31 32 41 47 60 77 81 82 82 83 84 86 83 83 82 81 81 80 85 89 92 92 84 80 81 79 79 81 85 87 84
79 79 74 70 57 57 66 72 65 57 65 66 64 57 49 42 37 35 32 35 40 40 42 50 62 75 84 87 90 92 92 93 90 87 88 93 92 91 94 96 97 98 97 92 90 89 92 98 91
82 68 65 62 69 85 56 84 65 57 68 57 56 45 40 41 39 38 37 42 40 43 41 38 36 36 38 40 42 47 54 63 71 79 87 90 85 81 86 92 96 99 100 100 100 98 93 99 98
71 68 66 63 70 69 67 74 62 52 59 51 46 43 38 41 39 37 39 42 45 45 45 42 40 38 36 34 32 32 34 36 39 46 54 59 57 61 64 66 70 79 96 100 100 98 99 99 99
70 72 75 79 74 90 74 70 68 56 44 40 40 38 36 36 40 38 41 49 56 54 50 48 46 44 44 43 41 40 39 41 44 48 50 50 52 58 62 64 67 70 88 99 98 100 100 99 100
66 76 92 94 95 90 73 80 57 45 45 39 37 36 38 37 42 44 59 71 64 60 56 55 53 54 54 52 52 54 56 58 60 61 62 64 66 68 68 71 79 88 99 98 99 99 100 99 100
81 77 87 93 92 83 72 79 57 46 43 41 38 38 40 46 47 54 63 69 70 64 62 61 60 61 62 62 61 62 63 64 66 68 70 71 71 71 70 72 74 78 88 99 97 100 100 100 99
87 89 65 83 80 84 67 62 44 41 38 39 40 42 45 45 57 61 75 76 73 68 66 64 65 67 69 68 68 70 70 70 69 69 69 68 67 68 69 70 72 72 74 78 89 92 99 100 100
80 74 86 95 97 92 71 64 49 38 33 35 36 43 50 56 68 81 79 78 72 68 68 68 69 70 73 73 73 73 73 73 73 72 71 70 69 69 69 70 70 71 72 74 79 85 95 98 100
95 93 89 78 78 82 75 53 46 44 37 37 38 41 58 68 79 83 78 76 70 69 68 69 71 71 74 76 76 76 76 76 75 75 76 77 78 78 76 75 74 74 75 78 83 87 98 99 99
73 81 78 86 84 86 76 61 37 39 42 47 47 57 71 75 80 78 78 80 74 71 69 69 70 71 72 74 74 75 76 78 80 81 82 82 82 81 82 82 82 82 82 84 90 98 98 98 98

GFSSGP_925_rhum_084.txt.gz
RH
80 60 53 38 27 25 20 22 26 23 18 18 20 16 22 30 28 34 67 67 60 69 80 93 85 85 88 90 90 90 88 88 91 96 96 97 96 94 88 88 90 92 91 91 95 96 94 89 87
72 53 42 32 26 27 21 22 24 24 22 24 30 30 27 28 46 65 66 75 66 70 78 83 85 85 88 89 89 89 82 83 88 89 93 97 98 96 93 90 91 94 94 91 95 96 88 75 68
67 51 32 28 24 26 20 24 28 27 23 28 28 37 38 44 58 58 62 72 66 71 73 82 88 85 87 88 88 82 77 86 82 84 89 96 98 97 98 94 85 82 90 91 91 88 87 81 80
50 39 32 30 27 23 23 29 31 26 22 22 27 39 50 66 62 60 70 70 67 70 74 87 84 85 87 86 81 75 80 72 72 72 72 91 95 93 91 76 65 62 78 91 92 86 82 76 83
48 38 33 31 27 28 29 32 31 27 25 24 32 43 54 66 71 72 75 74 65 67 72 89 86 85 84 82 75 80 76 75 71 65 75 93 97 91 82 75 73 51 69 88 95 94 87 79 85
52 37 36 34 30 35 32 33 30 28 24 29 36 42 56 85 81 85 89 84 82 68 78 85 88 86 83 80 80 80 75 73 70 70 71 88 94 92 82 78 80 72 52 57 77 82 82 79 77
54 42 36 30 33 35 34 32 30 30 23 34 46 42 64 78 90 98 90 85 89 71 76 79 90 94 83 80 86 76 74 71 71 81 78 78 91 84 82 79 82 85 72 61 65 70 69 71 70
57 47 36 34 37 31 37 38 39 34 33 40 57 57 64 75 98 100 96 94 90 74 74 75 81 86 88 95 83 77 73 63 78 82 84 81 92 88 88 80 83 85 75 63 59 69 70 69 71
60 73 55 42 40 32 41 37 44 40 39 43 41 49 56 75 98 100 99 99 94 90 82 73 78 80 82 85 91 82 76 66 83 84 83 85 81 87 86 89 83 84 72 64 64 62 64 62 67
73 72 50 33 33 34 41 35 41 36 40 41 37 38 57 96 99 98 94 93 93 88 92 84 78 80 82 86 87 80 82 79 76 80 82 72 77 77 81 87 79 65 61 62 62 64 60 61 70
56 77 48 42 35 36 42 45 46 33 43 44 44 41 54 85 97 94 89 93 87 86 91 94 95 84 83 82 81 77 76 70 70 74 76 73 76 80 76 76 78 78 74 76 71 77 70 68 65
69 52 51 56 56 47 45 43 43 44 42 42 42 38 50 61 89 89 84 83 83 85 89 93 91 90 83 80 81 76 76 76 72 71 68 70 71 75 72 70 69 72 68 69 70 62 62 66 66
57 55 57 64 55 51 50 49 37 44 43 42 39 37 39 51 78 85 84 78 81 84 86 91 98 92 88 86 79 78 77 79 77 78 76 74 76 74 75 74 68 66 69 71 68 66 56 58 58
51 52 56 55 55 51 50 54 52 40 42 40 40 38 38 38 51 80 79 76 86 88 88 93 97 98 93 85 83 80 80 80 82 80 82 82 78 79 79 76 72 69 72 72 74 68 66 61 59
45 59 63 61 54 55 46 51 58 36 42 40 38 37 36 39 37 60 72 81 87 97 97 96 98 100 92 84 85 81 83 82 82 82 83 86 86 84 82 78 75 74 75 74 74 75 76 73 70
51 46 60 56 59 56 50 52 34 38 39 35 34 34 36 37 38 33 67 73 81 87 89 84 92 95 84 86 87 83 82 81 81 81 82 84 85 88 86 82 78 77 78 80 78 75 75 75 72
60 54 50 68 57 56 55 47 35 41 43 37 32 30 33 36 38 35 32 73 77 83 88 88 89 85 87 88 86 84 84 82 80 82 83 84 83 85 87 83 81 80 82 81 82 80 78 75 72
70 51 49 50 60 59 54 50 41 46 48 38 30 28 33 36 36 38 32 51 79 85 90 88 92 84 85 89 92 92 92 84 82 82 82 84 83 85 87 85 84 83 83 83 83 82 78 79 75
47 51 51 47 51 56 51 49 42 39 46 43 38 31 30 34 32 38 31 30 62 90 94 96 93 88 85 88 90 90 91 92 91 90 89 87 89 88 84 84 84 87 86 80 81 78 80 81 82
49 46 48 51 49 59 49 53 42 39 43 41 38 37 30 32 33 36 30 29 39 64 75 92 95 93 94 90 84 83 84 86 85 93 91 92 94 95 91 93 92 93 92 87 86 86 87 87 87
50 44 49 48 48 53 54 50 47 42 42 41 40 42 34 32 34 35 31 29 34 42 52 60 75 90 94 96 96 92 91 91 93 94 96 98 97 98 99 100 100 100 100 98 93 92 94 89 90
61 52 50 54 54 59 50 50 43 37 41 43 39 39 39 38 37 36 32 31 36 41 50 49 56 68 79 86 76 81 78 78 83 92 94 92 96 94 93 96 99 96 99 99 99 100 99 100 95
51 54 53 54 53 55 56 63 36 37 40 39 37 36 37 38 35 34 32 33 39 49 52 50 48 45 43 43 44 44 45 49 52 49 55 64 67 68 68 70 74 85 99 98 99 97 100 100 99
57 57 55 53 51 66 41 53 37 35 31 31 32 32 36 36 33 32 30 34 44 56 53 50 58 55 44 38 36 40 45 47 50 58 59 64 67 62 60 61 66 71 85 99 97 99 99 99 100
56 57 78 77 82 59 51 53 34 26 30 28 28 26 28 33 33 30 32 40 46 58 61 62 63 64 62 58 56 59 57 62 65 68 70 71 74 76 71 66 72 80 93 96 96 94 96 99 99
55 50 56 67 56 44 58 53 30 27 28 28 28 27 29 29 32 34 31 37 48 56 60 60 62 68 70 71 69 71 72 72 72 73 72 70 72 75 68 69 69 71 78 94 93 93 97 100 100
70 86 52 70 61 63 42 42 33 25 28 28 29 31 31 29 32 39 38 44 48 57 59 60 64 70 73 72 65 63 63 64 66 65 67 68 66 66 66 67 69 70 71 74 87 97 100 100 100
65 49 76 86 81 66 48 45 29 26 25 23 22 24 25 32 34 37 46 55 58 59 63 66 66 69 73 73 71 71 70 69 69 69 70 69 68 67 66 66 66 67 69 72 82 97 100 100 100
83 74 70 55 55 60 47 34 26 30 26 27 25 30 36 38 42 45 53 62 63 66 69 68 70 72 72 72 74 74 74 73 73 74 74 73 72 72 72 72 72 72 72 75 90 94 95 95 97
60 57 57 67 67 59 59 41 28 26 27 30 31 40 48 52 50 53 57 62 65 66 68 67 68 68 72 74 75 76 78 77 78 78 77 78 81 79 80 80 81 81 81 84 93 93 96 96 98

GFSSGP_925_rhum_087.txt.gz
RH
70 56 41 38 34 23 22 19 15 18 16 15 14 16 25 30 28 51 43 41 55 63 76 90 80 83 88 90 90 89 87 87 87 95 96 95 91 88 90 90 88 87 90 92 89 91 89 88 88
56 45 38 27 33 25 20 15 21 17 14 17 17 23 22 36 41 50 48 46 54 60 77 79 80 82 87 86 90 89 86 89 89 92 98 98 94 92 89 90 93 93 94 96 95 91 86 76 78
66 40 30 29 26 24 18 15 15 20 19 19 19 23 23 44 43 45 46 49 53 60 68 76 82 86 88 87 88 84 86 91 82 84 97 99 97 92 93 87 92 95 95 95 95 93 88 91 93
49 35 30 31 27 19 16 17 21 21 18 18 17 23 42 50 45 46 54 49 52 56 60 78 86 88 89 87 81 76 72 66 64 70 92 98 90 92 77 54 60 88 92 96 94 95 87 88 85
46 31 33 33 26 18 19 22 24 19 18 19 22 34 48 58 57 54 54 49 51 52 74 92 87 89 89 83 72 78 71 72 57 64 88 97 90 81 70 66 49 55 77 94 95 93 78 89 77
52 36 39 33 26 20 22 24 23 21 20 23 28 31 60 66 60 56 55 49 50 54 73 89 88 88 86 78 76 81 76 70 60 56 86 95 93 82 74 77 59 58 72 80 77 72 70 67 72
64 41 39 29 26 28 26 24 22 23 19 31 34 31 65 75 91 85 74 66 50 62 72 82 93 93 83 77 82 78 71 69 73 66 74 88 83 80 81 76 75 59 60 72 74 76 73 69 69
51 47 35 27 28 32 25 27 28 26 33 38 44 39 68 75 98 89 84 70 56 63 77 78 86 88 89 94 83 75 72 65 80 80 72 90 90 86 85 74 81 72 59 51 57 67 66 66 66
54 69 50 29 28 29 27 32 33 32 36 36 35 40 51 66 97 98 92 87 65 55 73 75 79 78 80 86 90 79 72 68 82 84 81 78 88 91 83 92 78 80 68 60 53 50 52 56 60
72 68 43 23 22 29 31 25 30 30 35 39 35 39 72 85 96 94 90 88 85 66 73 67 74 76 82 87 88 77 81 81 82 81 85 73 66 71 70 85 74 65 63 58 55 53 48 47 67
56 63 34 38 48 32 38 30 30 25 35 36 41 40 71 89 91 90 88 79 84 69 72 78 77 73 80 84 72 64 69 64 64 66 66 59 61 74 71 78 79 80 63 79 69 72 74 60 56
67 47 54 39 56 38 37 30 32 25 34 33 35 37 58 82 88 93 76 83 77 83 76 85 80 78 75 73 72 58 60 60 59 62 61 58 58 62 58 58 59 63 61 58 60 54 53 58 57
59 65 47 50 45 37 32 36 30 34 36 34 33 34 41 64 77 87 87 75 72 75 69 78 79 79 78 73 68 58 59 64 63 63 58 59 62 62 62 62 58 55 57 60 58 58 50 50 49
44 73 52 57 48 42 43 37 44 30 34 35 35 33 36 40 55 76 78 77 76 77 82 81 82 83 73 76 74 61 60 64 64 67 68 66 64 66 66 65 62 59 63 63 65 60 59 55 52
35 57 56 47 56 47 40 43 51 27 33 32 35 33 32 36 39 57 64 63 74 82 82 82 86 86 85 80 76 74 68 70 65 66 69 72 71 71 69 68 67 66 65 64 64 67 67 66 64
40 45 71 57 46 42 44 43 33 29 31 33 28 28 30 33 36 36 50 58 62 73 81 83 88 91 92 81 74 74 71 69 64 65 65 69 71 75 74 71 70 68 69 72 70 69 68 68 67
47 50 50 50 41 41 49 42 28 27 34 35 28 24 26 29 33 33 34 49 59 64 71 74 83 85 84 77 80 72 72 62 62 64 65 69 71 74 77 74 73 71 72 72 73 72 71 69 68
54 39 32 38 48 45 50 44 28 32 39 36 29 24 23 26 32 33 33 32 61 64 71 75 77 75 72 81 85 82 76 72 69 65 66 70 72 73 75 74 73 73 74 77 75 75 74 74 74
30 34 29 27 35 48 47 40 35 29 35 38 31 26 22 23 27 33 32 28 46 72 71 74 74 80 78 82 85 86 86 82 76 73 73 72 75 76 78 78 76 75 76 75 75 75 76 76 76
42 35 37 38 38 42 36 37 31 29 29 30 31 28 24 21 24 33 32 28 28 60 74 76 78 76 80 79 80 81 81 81 81 82 87 88 86 85 87 83 81 82 83 82 80 78 80 80 81
41 38 47 42 41 41 40 44 36 29 28 28 30 28 28 29 22 27 32 32 28 41 58 74 81 83 86 88 86 87 89 89 89 88 88 90 91 93 94 95 95 93 91 91 89 85 83 84 84
47 34 33 40 48 50 39 38 23 24 29 30 30 30 28 32 27 24 31 32 32 31 46 52 66 82 92 96 94 88 89 87 78 79 87 92 89 92 96 99 98 99 96 94 93 92 91 91 97
42 42 43 45 47 47 47 53 31 24 30 28 27 28 26 29 32 28 32 34 35 38 52 49 50 58 63 70 73 79 81 68 69 68 67 66 71 70 72 74 77 90 99 98 98 95 93 88 89
47 47 44 47 52 87 44 46 35 26 28 24 22 23 24 26 30 32 32 34 35 47 55 49 49 51 52 51 50 48 45 44 46 50 52 55 63 69 61 60 64 71 84 95 98 98 95 95 98
47 47 73 77 85 64 33 34 33 21 20 21 22 21 22 23 27 30 32 31 33 49 58 58 52 56 57 55 52 50 50 52 51 57 59 60 62 72 75 63 69 76 85 90 97 98 94 93 99
48 46 54 59 47 39 42 44 30 19 19 16 21 23 24 24 26 31 33 31 35 49 60 58 55 56 60 61 63 64 65 64 65 67 65 64 66 70 71 71 69 71 72 78 94 100 90 91 99
56 67 39 58 47 49 35 32 23 20 23 25 24 25 26 24 25 30 36 37 36 48 54 53 54 59 61 64 65 64 64 65 65 66 66 66 65 66 65 69 70 72 70 73 80 96 98 99 98
75 46 71 75 69 53 28 34 27 21 21 20 20 21 21 22 25 26 33 43 40 46 52 53 55 61 63 64 61 64 66 67 67 68 68 69 68 68 69 71 71 73 72 74 81 95 99 98 98
68 70 61 52 40 49 35 31 22 22 21 25 24 29 32 31 28 28 32 47 49 50 55 57 58 61 63 63 66 66 68 70 69 70 70 71 72 72 74 74 76 76 77 78 84 86 90 91 95
54 53 50 65 59 51 49 44 21 23 23 25 30 35 38 41 39 38 38 49 55 59 62 60 63 63 63 64 64 67 70 71 70 72 73 73 76 76 75 77 78 80 82 83 83 84 87 87 90

GFSSGP_925_rhum_093.txt.gz
RH
50 43 59 55 54 65 51 34 23 23 22 21 24 53 80 72 65 65 72 75 83 89 86 84 80 83 85 84 77 76 74 86 86 86 90 92 94 95 96 96 88 85 91 90 88 88 84 48 43
47 59 64 58 64 55 44 30 22 23 22 31 29 62 72 80 52 74 88 84 78 85 80 81 83 85 85 84 81 78 74 91 87 87 88 89 90 86 89 90 86 91 91 91 90 88 64 54 67
55 77 61 70 52 60 38 24 24 25 22 21 34 43 74 71 55 58 82 91 81 86 81 84 85 85 85 82 81 80 77 91 92 85 88 88 89 91 92 95 88 94 94 94 95 87 76 63 73
76 78 63 56 60 41 30 29 22 25 20 19 51 75 72 70 58 70 79 82 78 89 86 86 85 88 86 80 81 82 77 89 94 88 73 88 83 92 94 95 95 88 90 95 95 76 73 67 74
84 87 81 70 50 33 25 27 27 24 22 22 42 72 86 73 60 69 76 73 85 90 84 86 87 88 85 79 76 67 62 83 93 92 82 62 67 77 90 89 87 85 93 92 92 65 73 74 75
92 84 67 72 51 33 28 22 26 26 24 33 68 84 90 82 66 66 70 75 82 84 81 88 86 86 82 80 73 68 49 74 87 94 86 70 56 38 46 57 61 79 88 79 76 65 65 64 60
94 85 78 55 48 36 31 26 26 28 40 58 55 88 86 81 70 64 68 70 76 79 82 87 88 88 78 83 80 72 49 65 83 95 83 75 67 58 42 48 61 75 64 63 59 56 58 56 52
85 84 70 59 47 46 31 36 35 40 47 39 53 97 92 82 80 72 80 83 81 80 80 87 93 86 83 90 82 69 57 64 86 95 92 77 76 62 59 48 44 53 52 55 54 54 55 55 53
82 89 84 65 50 48 36 41 35 37 47 56 59 71 82 87 74 74 80 92 90 86 80 88 91 83 84 90 80 70 69 64 86 91 93 79 80 70 66 63 50 44 40 42 45 46 48 47 47
89 89 73 58 57 41 40 37 38 45 46 76 94 80 87 88 74 80 82 84 90 98 87 79 85 81 79 84 76 67 67 75 75 81 86 82 78 73 78 72 58 50 44 40 37 36 35 43 63
84 81 66 72 60 50 43 37 35 48 50 48 96 98 98 94 84 85 81 79 83 88 90 81 82 81 74 80 75 70 60 76 78 73 78 88 92 82 86 71 56 47 45 48 52 52 48 59 60
83 72 75 73 73 51 58 47 36 40 47 47 83 89 91 94 88 86 86 78 78 84 84 84 84 76 68 73 73 74 71 77 73 64 75 90 88 77 78 67 63 66 62 67 62 60 60 57 58
86 69 70 80 79 64 59 66 54 51 45 49 78 82 89 86 86 76 80 71 74 78 75 78 77 64 64 66 71 77 71 73 72 69 65 72 74 63 62 66 65 60 62 62 62 60 55 53 51
78 76 73 72 73 73 62 65 72 48 43 42 71 83 89 88 89 88 79 78 70 78 78 78 77 70 68 62 64 73 67 64 68 68 66 61 59 62 62 64 62 58 58 60 62 61 59 54 50
64 84 76 65 80 79 66 76 78 47 45 44 47 64 80 81 85 86 85 78 71 70 76 79 80 77 76 64 59 64 65 61 61 62 62 58 64 65 64 65 64 59 61 64 66 67 63 62 62
82 76 85 76 78 69 83 78 72 49 49 51 47 52 52 57 77 78 79 77 71 75 76 76 79 79 80 78 68 60 67 60 60 59 66 63 63 69 69 68 70 68 65 64 65 67 68 69 69
69 94 88 80 79 81 72 76 54 44 48 49 52 50 52 52 50 61 71 72 75 74 73 69 74 76 70 80 80 67 68 59 61 64 68 70 70 70 72 72 71 71 70 71 72 72 73 72 71
74 78 85 83 78 76 84 76 55 41 44 50 50 47 46 53 51 39 61 68 71 71 69 68 67 70 74 74 81 81 66 63 58 64 65 66 69 72 75 77 76 73 70 72 73 74 75 75 74
50 51 54 61 68 71 78 70 55 43 44 50 50 45 43 43 44 38 39 62 62 70 71 77 79 83 78 80 80 83 76 73 72 70 67 66 66 64 73 75 77 75 72 72 71 73 74 74 76
48 48 53 68 64 70 73 71 53 46 48 50 49 48 45 40 47 45 35 37 53 62 73 80 81 81 83 83 83 86 79 75 75 72 68 71 76 75 76 77 77 75 76 78 81 79 80 76 76
51 56 53 71 63 68 73 76 52 41 39 48 47 44 42 41 44 51 40 33 48 65 71 75 76 77 80 83 83 84 82 76 70 69 69 70 71 75 75 74 78 80 76 76 76 82 84 86 76
63 49 55 61 70 84 52 81 55 42 43 38 45 49 43 40 44 47 41 34 37 62 69 74 76 74 76 79 79 74 71 75 70 66 68 72 70 64 58 57 60 59 84 81 83 86 88 93 80
54 52 59 68 59 64 58 76 66 41 45 39 41 44 44 40 39 48 41 32 30 51 62 74 82 86 81 80 77 70 70 66 64 66 69 72 72 74 69 45 58 95 94 91 91 89 86 82 87
48 54 56 56 67 91 72 76 73 48 37 40 39 36 39 42 39 43 41 36 33 36 55 69 69 83 91 89 77 72 65 66 74 83 86 88 84 73 57 50 49 62 73 76 80 82 87 89 88
55 69 95 94 95 88 60 75 60 43 35 30 36 38 35 41 42 48 56 48 42 46 52 53 58 70 79 82 92 89 87 73 80 84 77 67 60 56 51 46 50 60 64 68 73 77 85 89 87
73 75 88 81 94 72 51 68 48 35 30 28 30 34 33 34 40 51 51 47 44 44 44 46 50 55 58 60 67 61 66 64 59 54 47 50 54 58 61 57 56 58 60 60 64 72 83 89 98
68 81 57 86 78 84 64 49 36 31 28 31 30 32 32 33 37 52 54 48 46 45 45 47 51 54 53 51 51 54 54 51 52 56 56 56 60 63 62 57 56 55 57 57 58 63 78 92 90
72 65 76 97 94 78 54 48 46 28 31 34 40 42 39 33 35 46 52 51 47 48 48 51 52 54 59 59 60 60 60 60 58 55 55 55 54 55 56 53 56 61 58 59 60 63 83 95 88
91 93 84 76 74 74 60 49 33 35 40 47 50 51 50 49 46 43 46 49 54 56 55 54 56 60 61 61 62 61 61 59 56 55 55 57 59 56 54 62 64 62 63 64 65 71 83 92 94
65 83 80 92 84 78 80 62 33 37 42 50 52 50 48 46 51 51 53 55 54 58 57 56 61 62 65 62 55 65 60 57 57 60 63 61 58 61 66 67 65 68 69 70 72 79 86 86 90

GFSSGP_925_rhum_096.txt.gz
RH
81 69 64 68 61 68 56 45 26 40 30 25 37 56 68 75 68 69 94 94 83 91 90 84 80 86 84 78 72 80 78 87 90 97 100 100 98 98 95 94 94 91 88 84 82 80 80 72 71
78 66 72 69 60 64 54 34 26 53 23 54 58 65 71 73 76 98 98 88 84 91 86 82 85 84 82 77 72 78 82 78 89 93 96 96 96 95 88 89 92 92 91 92 76 69 65 73 78
79 61 76 78 74 44 38 28 26 30 28 28 52 66 68 70 83 83 97 100 89 90 84 83 86 85 82 79 78 77 86 89 88 91 93 91 90 87 81 93 94 94 90 78 62 63 71 76 77
75 84 86 73 65 44 28 30 22 29 31 31 62 85 75 74 63 73 100 98 87 91 87 86 85 84 82 82 79 76 93 96 90 90 90 93 92 98 90 95 95 93 91 84 68 64 74 75 72
81 92 83 83 62 39 31 28 28 27 27 35 50 81 84 79 71 93 99 94 84 92 88 86 87 87 82 80 83 81 91 94 80 79 85 92 95 95 95 95 94 88 84 70 71 68 73 75 70
93 87 84 85 61 37 27 27 28 25 38 52 65 75 89 92 87 96 96 92 83 88 90 88 89 88 78 75 71 86 89 91 86 76 74 84 93 95 91 82 59 57 70 80 67 70 70 72 71
99 88 67 70 56 40 32 24 30 36 56 60 65 66 95 89 93 90 90 80 86 88 90 90 90 82 77 70 64 68 90 91 91 80 64 48 53 74 82 77 54 51 51 57 58 63 61 54 62
92 77 75 57 52 43 33 39 41 46 51 48 65 92 96 92 88 86 92 86 86 87 91 93 91 83 79 81 67 54 82 89 96 82 74 67 52 42 48 53 53 51 54 56 54 52 52 50 49
88 90 84 66 50 42 39 39 37 45 62 78 68 79 81 89 84 89 98 100 100 98 92 95 89 87 86 82 70 55 71 89 98 92 76 77 63 57 47 46 48 50 50 50 52 51 50 50 49
95 87 75 65 58 42 40 39 45 50 70 94 94 95 96 93 84 92 96 99 100 100 99 94 85 85 88 80 69 60 59 87 90 95 82 79 75 61 61 58 50 44 42 41 40 40 44 48 57
88 84 78 83 77 62 41 44 41 52 53 83 89 98 98 96 90 90 96 96 97 100 100 95 84 79 85 78 70 62 62 68 83 88 86 83 78 76 74 66 53 48 44 42 42 40 36 60 62
92 80 78 85 80 67 63 46 50 45 47 71 88 88 95 96 93 88 91 95 100 100 100 93 82 79 78 77 69 60 69 69 70 75 86 84 90 82 82 67 55 50 52 60 60 61 61 61 59
90 92 78 80 75 75 60 75 64 54 55 85 92 91 94 95 95 90 87 89 93 99 96 91 82 77 76 72 72 70 61 68 64 72 80 88 85 80 76 69 66 64 66 65 65 61 59 56 54
84 92 78 78 82 74 64 73 54 48 54 88 91 97 94 91 91 91 86 87 90 91 86 87 83 76 73 66 69 72 72 69 66 69 71 77 76 72 67 66 69 64 60 62 62 63 62 56 53
80 88 85 78 88 85 77 64 65 58 47 74 86 93 91 91 87 91 80 79 80 81 86 85 80 74 68 63 66 72 72 72 68 66 70 68 69 67 65 64 66 63 59 61 66 67 67 63 61
84 81 95 87 88 82 76 76 65 68 60 54 66 82 89 85 86 81 79 74 71 75 82 82 78 76 68 64 66 67 73 69 66 63 65 62 62 63 66 65 66 65 61 63 66 68 70 69 70
75 98 90 86 85 88 78 85 58 64 62 59 56 63 69 76 80 77 79 76 74 69 77 82 80 80 78 72 68 65 71 66 63 63 63 63 61 65 69 69 69 70 69 68 67 68 69 71 72
84 94 85 79 88 86 90 82 74 66 61 56 59 58 59 59 64 73 74 72 66 72 73 74 80 81 82 80 75 77 77 69 66 62 60 60 63 68 69 72 72 73 73 72 73 74 74 76 76
57 76 75 67 70 77 76 81 75 74 65 51 59 58 54 55 50 48 63 72 73 70 68 75 77 78 80 83 78 81 82 80 72 68 67 64 66 70 71 75 76 75 70 70 70 74 76 74 73
56 59 63 68 64 71 66 66 60 70 60 49 55 54 53 47 46 48 44 65 73 71 72 74 68 66 67 70 73 82 81 81 74 72 68 70 70 71 73 76 79 80 79 79 79 82 83 84 80
56 57 67 71 76 72 72 74 67 55 48 48 52 49 48 47 46 53 48 42 64 76 66 70 70 71 73 73 80 84 87 83 82 73 77 72 76 74 74 74 77 76 81 80 81 83 90 83 81
64 52 51 69 80 94 72 90 58 56 47 46 48 56 51 49 44 49 50 43 41 60 70 71 70 75 76 81 86 84 91 91 82 73 68 70 70 72 74 78 74 73 57 62 58 85 87 88 83
57 52 62 70 68 63 71 72 68 52 52 43 45 51 52 49 48 49 52 43 36 41 70 84 87 86 88 82 83 83 81 74 74 75 71 72 73 76 78 72 59 62 52 58 69 88 87 85 86
48 61 64 80 89 94 68 71 70 61 45 37 38 39 40 44 47 50 42 40 37 34 46 75 85 87 86 84 89 85 71 73 76 77 78 79 79 77 67 76 81 72 73 77 67 76 78 84 89
59 89 99 98 98 92 67 81 62 47 43 34 34 40 42 43 46 49 57 51 42 36 34 57 72 84 92 96 94 83 68 78 77 76 79 89 86 87 79 67 57 48 47 46 50 60 72 76 79
73 91 92 83 92 78 65 84 56 40 37 38 32 37 41 43 48 50 56 50 44 40 42 58 68 71 83 88 92 95 93 91 88 83 86 89 84 70 57 51 48 45 54 46 56 66 73 79 85
74 87 60 83 81 88 63 52 39 35 30 33 36 38 35 34 41 48 60 50 47 44 49 51 55 60 66 65 65 74 82 87 86 81 75 71 68 66 56 51 46 49 49 52 57 60 63 78 89
68 64 89 98 97 85 63 62 48 32 38 36 41 43 37 35 42 59 66 55 53 46 44 47 49 51 53 54 56 59 61 65 68 67 64 62 61 62 61 54 57 60 59 59 59 57 62 78 94
86 92 81 71 68 82 61 54 36 36 35 44 48 49 49 46 45 49 61 55 49 52 51 53 53 53 57 58 59 59 61 60 60 59 56 54 55 56 57 59 58 56 58 59 57 61 66 77 93
80 77 70 83 83 78 77 56 37 41 47 53 57 54 50 51 50 52 57 56 60 61 59 57 57 58 61 62 61 59 58 56 52 52 55 56 51 48 54 56 56 58 56 60 64 66 72 81 87

GFSSGP_925_rhum_102.txt.gz
RH
90 88 77 82 95 86 89 64 45 57 66 62 44 56 57 55 54 61 96 92 85 92 92 90 87 91 86 72 69 95 95 91 86 88 96 99 99 94 95 93 89 87 85 86 88 95 95 96 79
82 87 81 94 95 97 85 48 51 46 46 63 67 65 65 66 96 96 98 92 87 92 92 86 90 85 74 54 68 94 93 90 90 91 98 97 98 96 93 90 86 85 89 92 95 96 94 88 83
79 85 94 98 80 80 57 44 38 43 60 58 67 68 73 89 87 91 96 100 94 96 89 86 88 78 73 64 83 93 89 89 90 91 95 91 96 96 94 91 90 90 93 96 96 96 82 75 80
89 93 99 97 80 58 39 33 28 48 48 56 67 80 85 86 82 94 90 100 98 95 87 88 85 75 68 65 83 95 94 97 97 93 89 94 98 94 94 96 96 96 96 96 97 89 75 77 78
86 98 98 93 74 50 33 28 33 41 50 51 68 81 96 91 88 100 98 100 100 92 89 88 83 78 70 73 68 91 99 100 100 95 93 97 96 95 95 94 95 96 96 98 98 84 74 76 79
96 91 97 97 73 50 35 30 46 44 38 36 55 82 95 98 100 100 100 99 99 89 93 89 83 82 73 76 84 74 92 97 98 93 91 96 95 95 95 94 100 99 95 94 94 83 76 73 72
94 94 98 93 64 49 36 32 53 53 45 41 66 90 95 99 99 100 100 100 98 91 93 89 85 81 76 79 89 75 70 82 92 90 92 91 90 93 94 92 96 100 94 84 82 79 76 72 70
87 99 84 91 61 50 37 38 42 50 50 55 60 82 98 97 100 100 100 100 97 94 93 92 88 86 80 75 96 84 63 59 78 90 90 90 89 94 93 89 97 97 75 71 73 74 72 71 70
87 95 92 86 68 41 41 51 53 57 65 79 73 79 83 100 98 100 100 100 100 99 96 93 91 86 80 76 97 92 80 69 55 67 82 82 79 78 73 67 56 57 61 64 65 61 56 57 62
86 96 85 60 70 50 43 48 67 71 93 90 89 92 100 100 100 97 96 95 99 99 100 96 98 85 70 75 91 98 92 87 69 51 47 54 54 52 54 53 52 53 54 55 55 55 55 54 53
91 95 77 68 88 76 47 54 49 74 82 82 71 97 97 94 85 90 92 93 93 97 100 100 98 77 75 66 84 97 99 98 80 69 56 50 47 49 47 45 45 44 46 46 45 45 44 46 56
83 78 88 86 83 70 54 49 57 53 60 73 89 88 91 92 80 69 88 96 98 99 99 100 91 76 79 64 65 92 97 100 89 76 74 63 60 56 54 50 46 45 44 43 42 41 37 52 59
89 87 83 91 84 75 64 66 64 72 82 87 87 88 89 88 85 82 93 96 96 98 100 100 91 80 81 73 62 76 93 100 96 87 80 74 62 64 65 63 55 49 50 51 59 61 61 61 59
89 87 86 88 84 79 71 68 57 67 72 97 89 85 83 86 88 88 92 85 77 90 99 99 98 82 82 78 71 62 80 91 94 93 82 77 69 72 75 72 67 63 63 63 66 68 67 64 59
83 85 86 88 81 80 81 81 89 80 80 98 98 92 90 80 82 79 81 63 44 40 85 86 95 85 88 84 72 66 63 77 88 88 84 80 81 82 76 70 70 68 67 65 65 66 67 67 67
86 92 100 84 83 76 71 96 76 74 70 71 81 96 98 96 83 77 75 57 82 57 76 64 95 93 80 86 79 69 65 68 71 70 74 82 83 82 79 74 69 70 72 68 65 67 71 72 70
87 99 100 94 82 78 77 90 76 71 71 69 69 72 86 99 99 91 83 76 79 67 50 55 88 99 86 90 81 75 68 63 69 70 73 74 74 75 75 70 68 70 71 67 65 68 70 72 72
96 96 94 97 86 74 81 84 72 70 77 73 73 63 64 72 91 98 95 80 63 66 77 76 95 80 94 83 88 82 81 72 73 73 73 74 74 71 69 67 68 70 70 69 70 70 72 74 75
76 84 88 86 85 81 84 77 71 74 76 80 69 62 55 56 62 76 99 92 79 70 70 72 73 60 77 99 100 90 90 82 78 76 73 73 73 72 66 68 71 72 73 71 72 72 75 76 78
72 82 83 85 85 80 86 74 67 69 76 71 72 66 59 54 51 49 65 94 99 90 82 71 74 73 76 87 80 82 77 81 74 72 72 72 70 71 67 67 72 72 74 74 76 76 77 83 81
61 70 70 83 88 78 88 87 83 75 77 68 66 66 58 56 53 50 51 58 80 89 65 64 75 80 73 70 71 79 90 79 79 81 76 70 70 70 68 68 71 74 76 76 80 85 82 66 78
65 56 58 88 86 91 73 72 83 74 74 69 64 69 64 58 56 54 48 50 52 64 74 76 70 78 75 67 68 65 66 71 72 73 68 68 75 77 75 77 78 79 70 70 73 78 77 70 69
63 63 68 85 81 85 88 85 65 69 75 64 57 58 66 59 57 54 53 41 40 44 48 71 82 83 85 88 66 64 64 82 81 81 82 88 90 87 87 89 91 94 94 88 82 84 75 70 86
60 76 84 90 83 98 82 84 74 70 59 52 48 52 58 53 54 54 45 41 38 38 42 50 76 82 84 65 80 84 78 84 87 89 90 91 98 98 97 100 100 100 95 98 92 73 70 76 85
70 74 96 98 99 93 75 92 69 53 49 45 44 47 50 47 46 53 55 53 42 37 37 44 55 75 81 91 94 92 89 94 93 93 95 96 100 100 100 99 100 95 86 86 89 80 73 72 75
82 77 89 88 97 94 80 95 74 48 40 42 43 38 37 39 42 45 52 50 43 38 38 42 47 57 72 80 86 93 100 99 98 99 96 93 95 100 100 97 95 85 79 73 55 48 51 55 59
84 97 74 90 80 92 86 71 44 37 38 35 39 39 39 39 49 53 54 49 45 42 37 38 45 52 67 88 98 99 99 99 98 99 100 99 99 99 94 87 79 71 59 48 50 48 49 49 55
77 75 96 99 96 95 76 68 56 34 34 34 41 41 38 42 56 65 61 52 53 48 46 47 47 48 58 79 89 90 85 83 86 92 95 99 100 94 87 87 79 68 62 54 50 49 51 54 56
95 100 90 87 84 92 77 58 47 42 39 35 40 42 42 44 51 65 72 66 61 58 55 53 53 59 70 73 72 69 70 76 86 94 98 100 98 95 87 74 63 55 52 53 52 53 54 54 58
80 97 96 92 97 83 83 68 40 46 58 50 40 49 47 47 52 61 72 73 70 66 62 60 63 62 60 59 59 62 66 74 81 84 87 90 85 76 65 56 52 55 55 53 57 59 62 64 66

GFSSGP_925_rhum_105.txt.gz
RH
80 84 98 88 89 99 76 66 46 50 51 54 46 49 47 46 50 46 98 95 95 99 99 96 92 93 85 69 86 88 82 80 85 88 90 94 99 96 92 91 87 87 84 85 83 88 95 98 99
81 85 100 92 94 97 79 55 51 46 40 58 62 62 60 52 86 89 97 99 97 99 99 96 89 84 69 87 91 90 85 86 88 88 90 93 97 96 93 89 86 87 87 93 93 97 96 89 91
81 85 100 98 87 86 66 50 42 38 50 54 60 64 63 69 81 85 95 100 100 100 98 98 88 81 49 90 92 90 86 86 87 93 94 92 95 95 90 87 90 89 92 97 99 92 85 87 90
91 92 99 98 89 67 52 36 33 48 58 61 79 72 83 85 81 89 98 98 100 100 97 96 83 74 46 90 92 88 90 88 88 91 90 90 96 92 90 92 88 91 90 98 90 78 86 77 77
87 96 86 81 83 60 47 29 37 49 57 64 72 83 86 89 85 96 97 98 100 100 99 97 78 72 49 88 88 84 87 90 93 86 88 95 94 95 95 98 99 92 98 92 82 77 87 77 73
94 91 87 95 83 64 45 33 33 47 59 64 68 84 80 90 99 100 98 97 100 99 99 97 77 72 56 70 90 90 94 95 91 88 95 96 96 96 95 99 98 95 97 97 85 76 76 77 73
92 89 96 92 82 68 50 30 37 46 53 58 59 78 83 98 94 98 95 96 100 100 99 94 93 82 76 58 72 98 99 99 96 92 94 93 93 94 94 98 99 100 90 89 79 74 72 70 68
83 91 88 95 84 68 40 33 39 42 40 48 53 80 86 93 97 98 98 98 100 98 95 88 90 95 95 96 68 65 86 97 93 97 92 92 94 95 97 100 100 99 96 85 79 74 71 69 68
85 92 98 75 85 62 38 36 54 56 60 68 57 73 82 99 98 100 100 99 100 100 96 90 87 81 78 97 87 64 67 88 92 95 91 92 95 96 97 93 100 94 76 75 75 71 67 67 66
86 82 88 75 61 71 68 42 59 63 80 75 67 74 83 86 100 96 96 97 99 100 100 95 89 85 77 99 95 80 71 74 88 93 91 83 79 79 75 76 68 67 69 68 64 58 57 57 58
83 77 88 78 65 71 74 58 56 66 76 70 66 77 92 91 99 96 95 95 94 99 100 100 95 86 81 83 99 96 84 68 60 75 74 69 67 68 68 66 64 60 58 57 55 54 54 51 52
83 73 84 85 86 77 78 56 62 63 64 61 67 75 81 76 97 92 98 92 98 100 100 98 92 78 64 74 90 99 96 88 71 55 58 64 63 61 58 54 52 50 48 46 44 43 42 44 59
83 83 73 74 83 92 68 65 69 76 68 69 72 80 87 81 88 92 71 88 99 99 99 99 95 72 65 60 84 96 100 97 82 75 63 54 49 48 49 49 47 45 44 44 46 52 47 58 59
79 79 78 74 82 84 77 68 70 76 69 78 64 82 85 81 85 89 92 90 100 99 100 99 98 80 70 63 56 86 96 98 97 82 79 70 59 60 61 60 56 51 53 55 62 63 64 63 59
75 76 80 84 88 86 70 72 79 72 77 79 65 82 82 74 79 85 85 88 95 99 100 100 99 90 82 72 60 54 80 95 99 93 85 82 73 70 78 76 69 65 66 67 67 68 69 69 66
84 83 98 79 87 78 79 77 74 69 71 83 84 64 68 88 81 82 84 92 96 89 88 96 94 97 92 87 74 67 61 82 93 94 92 84 80 80 83 77 71 72 71 68 67 68 70 71 71
79 91 99 84 84 90 81 86 68 65 70 74 78 82 71 73 88 89 89 81 83 90 86 81 81 88 98 93 85 76 71 69 72 87 88 84 81 84 85 76 71 72 73 73 68 66 70 72 71
93 95 89 91 87 86 83 73 63 64 68 76 68 71 81 95 80 79 79 75 66 73 73 64 50 64 95 99 97 87 84 78 75 68 69 68 80 82 81 75 72 73 72 73 70 68 70 71 73
76 81 88 86 81 91 91 76 60 60 60 61 65 63 66 78 85 93 84 77 77 76 48 47 45 52 81 98 100 100 92 90 77 70 66 70 73 73 77 75 74 74 72 70 70 71 73 77 83
77 84 88 84 83 80 84 76 56 65 61 60 61 62 62 57 65 81 99 90 70 70 69 70 49 54 77 90 81 78 82 90 85 76 74 79 78 74 76 74 71 71 72 73 75 75 80 83 85
69 77 84 77 84 83 83 79 68 63 67 59 58 62 60 55 48 53 73 99 97 84 72 68 60 67 75 73 75 67 84 94 94 86 96 88 85 76 72 74 72 73 74 76 78 79 86 94 84
66 58 60 86 90 93 80 75 67 63 59 55 45 55 56 57 52 52 58 59 86 95 83 68 67 76 73 79 92 73 85 92 92 78 72 89 80 88 81 73 75 76 80 84 91 98 85 81 82
62 65 77 83 80 85 87 88 74 66 69 56 52 52 54 56 52 49 50 44 45 62 79 84 91 69 74 99 98 97 96 86 83 65 97 82 80 85 84 81 82 82 88 96 95 90 91 90 86
69 77 82 86 81 94 77 82 67 72 67 55 48 49 53 53 53 50 45 43 44 44 50 62 82 85 69 75 76 97 94 91 90 77 78 73 75 93 94 96 97 99 100 100 100 90 86 90 89
69 77 95 97 97 89 75 91 66 54 48 44 44 43 48 49 47 49 48 49 44 44 42 47 52 75 74 63 77 87 75 62 71 78 86 100 100 100 99 99 98 98 99 100 96 90 83 86 90
86 82 86 91 94 87 83 92 65 53 45 45 41 42 39 46 46 46 47 47 40 37 40 44 52 60 79 85 89 88 88 83 88 95 97 98 94 98 100 100 100 100 100 99 92 90 85 69 61
84 99 74 86 82 82 77 68 44 37 44 40 36 39 41 39 48 45 45 46 42 38 36 37 46 58 70 82 97 100 97 99 99 100 99 96 92 97 100 99 99 100 93 82 67 53 51 54 55
85 83 99 98 96 94 74 69 52 39 35 34 36 40 42 44 57 64 56 52 50 44 41 43 45 52 62 76 92 99 100 100 98 94 94 98 98 100 100 99 91 79 66 56 54 51 51 54 55
95 98 94 95 82 83 72 53 44 43 42 45 37 44 43 47 56 70 72 70 58 54 50 48 50 54 59 72 85 91 88 84 84 88 96 100 100 100 95 86 80 70 64 57 53 52 52 52 55
83 100 100 95 97 77 73 57 40 46 57 61 46 49 50 49 54 64 74 77 75 66 61 59 60 59 64 71 74 72 71 76 86 95 100 99 100 96 92 87 74 62 57 55 53 55 58 57 57

GFSSGP_925_rhum_108.txt.gz
RH
68 74 89 100 98 71 56 48 32 35 39 33 30 32 33 31 41 45 69 63 61 68 88 92 93 94 89 94 88 76 89 86 82 87 93 96 98 96 92 96 95 90 79 88 94 95 89 92 98
62 64 97 98 96 87 52 34 38 33 32 32 37 44 37 37 45 71 80 70 67 75 87 86 94 91 90 97 89 75 85 85 85 86 91 96 96 94 91 91 84 84 79 85 85 89 95 98 98
76 67 97 97 87 70 47 32 31 30 28 35 40 41 40 39 56 62 70 76 70 79 81 86 91 81 92 95 87 75 82 86 88 90 93 93 95 92 87 87 79 84 85 87 90 86 88 92 93
72 73 98 96 85 63 36 28 30 30 31 31 34 49 60 65 60 63 76 78 74 78 80 93 86 67 92 91 85 81 85 85 89 90 90 88 89 90 88 84 82 86 89 88 87 86 84 83 72
75 90 84 93 56 62 35 27 30 31 35 33 35 64 57 66 76 74 82 83 76 78 80 93 82 58 92 93 89 84 86 87 88 91 88 89 92 91 96 82 85 86 86 88 87 88 81 72 52
77 70 74 92 79 46 52 32 26 26 27 37 44 55 62 73 77 78 90 85 75 74 85 91 82 55 91 93 88 87 86 89 90 90 87 91 92 94 96 92 88 86 81 82 84 79 72 68 62
74 72 74 61 88 66 58 33 26 25 27 33 36 52 76 75 82 86 91 85 74 74 84 89 84 72 93 90 88 92 91 91 87 85 90 94 88 91 96 98 92 90 84 78 76 73 70 67 64
63 66 68 78 89 76 57 53 33 29 27 26 35 48 58 70 85 94 93 87 77 79 82 83 77 65 85 94 88 89 92 91 88 90 97 92 88 92 98 98 98 89 89 78 75 73 70 66 66
55 67 68 83 85 60 43 56 45 26 39 36 37 32 39 68 87 97 97 93 84 82 85 79 70 67 61 77 97 98 98 98 96 94 97 89 78 87 97 86 98 95 89 80 76 73 69 67 67
65 64 74 81 86 71 67 65 51 34 38 44 43 58 76 88 100 97 93 91 88 87 88 78 67 67 73 73 76 81 94 90 85 84 86 65 69 75 76 94 98 98 93 84 77 68 63 64 64
55 61 61 82 87 88 70 60 50 47 38 39 46 53 66 71 85 98 90 88 86 91 91 81 72 74 93 84 67 65 68 69 72 73 70 67 70 84 82 91 95 94 84 84 79 66 64 60 58
58 68 78 81 89 81 83 56 63 52 39 34 35 44 68 72 76 98 100 94 89 96 91 91 81 76 82 91 82 74 64 67 73 74 73 73 74 76 74 73 77 76 74 72 68 61 60 60 62
63 69 73 72 78 72 66 66 69 48 43 56 38 54 62 77 77 90 96 95 89 94 90 91 84 79 79 93 95 99 75 67 65 74 76 73 73 73 72 71 70 67 66 59 56 53 50 52 60
66 66 66 67 72 73 85 70 66 44 47 53 50 50 58 70 79 89 93 90 74 93 93 93 90 78 75 80 88 96 86 79 76 70 70 67 63 62 64 62 62 62 62 56 56 58 57 60 60
65 70 62 70 67 75 81 73 75 46 50 54 57 54 71 68 80 90 89 94 87 98 93 99 91 80 67 67 84 96 100 93 88 83 79 73 70 70 72 67 69 66 64 63 66 67 68 65 62
60 62 84 71 70 73 86 78 56 51 53 55 46 52 75 76 74 88 89 87 100 92 97 99 97 88 78 72 71 84 95 99 98 98 84 86 83 79 85 83 78 76 75 73 70 69 68 66 66
62 65 87 55 78 82 84 84 56 50 56 69 56 57 64 77 79 84 92 89 88 97 98 99 99 93 90 89 83 76 80 88 97 99 99 89 88 83 85 83 78 80 78 77 73 70 66 68 68
60 62 47 52 70 74 83 83 54 49 56 61 65 76 72 71 71 80 91 93 86 94 94 98 100 99 98 100 99 94 82 78 76 83 88 87 86 86 93 90 82 80 80 78 78 69 71 68 67
56 53 34 64 64 79 84 84 67 46 54 56 65 73 83 73 86 90 96 97 91 86 76 100 88 96 100 100 99 100 92 85 83 78 76 79 86 87 89 86 83 83 78 75 75 71 72 76 82
58 57 64 64 66 82 73 77 60 46 48 48 57 61 69 74 87 92 96 98 93 92 90 81 84 98 88 99 99 100 100 98 94 90 85 85 86 88 93 90 84 83 78 75 76 75 76 79 82
61 56 63 60 70 76 71 64 57 50 45 46 46 51 52 68 72 77 75 88 77 91 79 79 81 97 98 97 94 79 78 87 93 99 99 91 90 95 99 97 92 90 89 82 82 87 86 79 82
53 49 55 67 72 82 60 51 64 50 49 44 42 46 51 52 52 58 74 86 84 92 76 69 61 85 94 85 85 84 71 80 92 72 78 76 66 79 80 94 94 99 89 77 84 89 92 85 85
53 58 53 61 64 63 71 64 43 44 49 44 41 38 42 46 50 50 48 61 90 65 71 82 69 80 64 65 48 67 96 83 88 91 82 68 59 72 66 85 94 100 95 90 88 93 96 87 77
60 60 63 62 65 73 46 61 30 44 40 38 38 37 38 39 44 43 50 54 59 84 86 81 76 77 79 87 76 86 91 91 94 84 91 69 71 63 70 84 98 100 100 93 94 97 94 92 81
62 61 77 78 87 61 59 72 36 35 37 34 34 33 32 37 39 40 41 43 44 56 66 86 91 89 76 77 89 73 88 94 92 89 88 86 96 94 95 99 100 100 100 95 98 100 99 91 84
58 67 61 61 59 55 68 68 36 39 36 32 34 31 31 31 35 35 35 38 42 47 51 56 65 76 94 98 92 88 72 83 100 97 89 97 94 95 100 100 100 100 98 100 100 100 99 92 90
96 92 62 71 60 63 50 47 34 26 31 31 31 29 31 30 34 35 35 36 39 40 45 47 55 61 78 100 99 100 82 100 100 100 100 100 100 100 100 100 99 100 100 100 100 98 90 86 72
71 77 98 94 88 62 48 48 36 33 32 29 29 31 34 38 42 42 43 35 35 37 41 47 50 61 71 91 100 100 100 99 100 100 100 99 100 100 100 100 100 100 100 98 91 81 67 63 63
64 76 86 99 90 58 46 37 30 36 40 41 33 34 34 40 47 50 51 51 47 46 48 50 52 60 74 94 100 99 99 100 100 100 100 99 100 100 100 100 99 94 82 69 60 58 56 65 67
63 87 100 94 86 91 60 39 33 41 46 43 36 39 38 42 48 50 54 56 56 54 55 56 59 63 71 85 94 97 97 94 94 92 98 99 99 100 100 96 86 75 65 62 58 58 63 67 70

GFSSGP_925_rhum_111.txt.gz
RH
71 63 74 94 97 96 59 43 25 26 23 24 23 25 27 23 25 44 53 46 45 64 83 93 88 93 88 85 64 78 86 84 86 93 98 96 96 92 95 95 92 84 94 94 87 86 92 92 97
64 67 71 96 93 90 61 35 32 24 20 20 25 29 28 29 33 56 48 49 50 70 86 88 87 92 86 82 74 80 86 83 86 88 92 97 96 94 96 96 82 82 97 98 95 86 89 94 91
58 60 94 91 85 86 54 30 27 22 18 20 28 28 29 30 31 51 53 50 53 82 81 87 87 83 86 85 82 81 87 86 86 91 92 93 89 93 97 85 79 73 80 84 83 87 88 88 65
50 54 74 98 75 64 49 29 22 22 19 23 29 37 35 47 40 47 58 53 73 79 81 87 89 80 94 87 73 82 88 84 86 92 93 89 88 90 96 75 81 77 82 81 82 88 87 60 43
48 62 64 74 83 51 41 35 25 23 22 24 38 40 38 50 54 56 62 60 75 78 82 93 88 83 88 87 70 81 87 85 90 92 90 86 85 85 83 78 80 84 82 87 89 90 69 42 42
61 51 65 67 47 64 41 36 34 27 24 23 38 40 46 54 60 64 67 68 78 78 87 86 84 83 87 86 74 81 87 86 90 92 87 85 85 89 81 81 84 83 84 87 94 80 68 52 53
67 53 61 50 40 38 65 49 50 49 36 27 24 39 52 58 64 70 72 71 78 80 77 80 80 95 93 91 83 87 84 88 91 89 82 89 88 89 83 89 85 82 94 88 92 82 69 64 64
56 63 53 45 46 39 46 57 52 45 54 29 27 35 61 59 71 78 80 76 78 82 80 78 68 92 98 98 90 88 89 92 91 88 88 92 87 89 90 89 86 82 92 91 84 76 69 64 63
46 75 72 46 44 44 49 78 48 44 60 34 30 33 35 60 81 88 89 84 81 81 83 73 59 69 89 98 95 91 93 94 86 85 93 88 82 92 87 90 88 84 88 83 77 71 65 63 64
71 73 55 34 56 80 61 75 75 69 59 36 41 32 59 80 87 90 91 85 84 82 78 70 52 54 69 92 98 98 97 91 88 90 89 67 72 76 77 91 87 88 87 84 76 71 66 65 65
53 78 39 55 76 82 72 71 71 84 74 39 50 74 55 79 84 90 90 90 77 83 79 68 52 45 58 83 92 95 94 88 87 80 66 54 62 75 82 92 90 88 91 91 78 65 60 58 51
62 45 50 62 70 73 83 84 82 72 55 47 76 85 56 78 86 95 98 100 99 87 81 69 50 56 54 61 73 80 80 72 67 66 52 54 62 68 69 84 82 81 86 70 69 63 56 56 53
58 54 61 65 73 75 74 75 79 61 44 42 64 80 59 70 78 85 97 96 98 98 85 70 52 73 65 54 54 58 60 59 59 60 57 60 66 65 66 66 68 66 64 61 59 54 50 47 48
47 57 58 60 67 73 75 63 67 64 46 48 54 62 54 54 67 88 86 82 89 94 99 77 59 78 77 60 61 56 54 57 63 64 64 63 65 65 65 64 62 59 57 50 47 45 43 43 51
53 63 66 60 58 64 58 55 68 58 49 47 44 50 56 55 62 77 76 60 74 92 88 88 69 56 78 78 64 59 57 55 58 62 63 61 60 60 59 55 55 54 54 49 51 51 52 53 53
60 65 77 53 59 66 59 78 59 48 53 45 40 49 57 59 67 77 83 83 98 85 89 92 80 62 61 81 73 78 66 66 64 61 61 58 60 61 63 61 62 57 58 59 61 62 63 61 58
50 56 81 50 58 65 60 61 56 62 51 43 40 45 59 65 68 72 82 94 76 93 81 97 85 69 55 57 70 81 84 80 76 75 72 72 70 70 71 72 67 66 67 67 63 62 60 60 61
56 51 44 54 59 59 58 64 66 63 47 42 46 38 54 71 71 79 90 96 96 90 98 89 81 80 68 63 63 67 79 82 93 98 93 77 76 73 75 75 71 69 71 69 69 64 63 61 61
49 43 38 30 52 59 53 63 65 54 49 46 49 63 58 63 72 80 88 96 94 88 100 100 98 87 87 89 84 78 70 71 72 81 84 82 75 77 77 78 74 72 70 70 70 69 64 68 70
47 41 39 47 50 60 51 56 57 50 44 45 51 63 63 82 77 83 93 96 94 90 95 100 99 84 94 96 95 90 80 78 74 72 71 73 76 78 75 80 78 76 74 73 72 70 68 68 77
44 46 43 48 53 54 65 59 63 49 41 42 46 56 64 78 85 90 96 98 99 96 96 93 87 92 94 96 99 96 95 97 96 90 84 81 81 81 85 84 86 90 88 84 81 76 75 82 82
50 42 46 50 54 52 46 75 62 54 49 46 45 56 61 67 76 87 87 96 98 81 73 83 82 89 91 95 95 92 88 87 89 87 85 82 81 86 82 84 87 84 89 98 93 82 82 84 85
51 48 47 45 48 46 43 51 50 49 52 47 43 47 53 66 76 74 78 86 92 91 73 84 86 92 83 75 73 78 70 64 78 70 77 84 84 86 79 82 76 67 83 89 97 96 94 97 88
48 51 45 45 53 66 39 45 46 48 49 42 37 39 46 54 61 62 70 81 82 86 98 96 90 90 83 80 80 78 80 78 92 95 82 77 79 81 72 79 80 77 69 67 90 95 99 100 91
50 57 76 75 78 56 48 49 34 30 32 39 38 35 36 44 51 52 57 62 80 92 87 85 91 91 88 83 76 80 90 88 84 84 61 58 77 84 74 70 81 70 60 73 98 100 100 100 95
59 57 73 82 60 41 50 51 45 30 30 29 30 30 30 34 39 44 46 51 59 76 85 76 78 82 85 92 78 70 86 73 60 68 69 62 89 97 88 60 88 69 78 97 100 100 100 100 97
75 77 55 70 44 46 37 36 26 25 28 29 29 28 31 27 28 37 37 40 41 51 63 71 75 72 75 82 84 77 78 84 90 88 84 94 94 87 78 88 100 99 100 100 99 100 100 100 100
57 65 81 76 78 54 37 36 40 36 35 28 28 28 29 33 33 34 34 34 36 38 45 48 52 57 68 79 90 86 74 83 89 97 99 97 99 97 100 100 100 100 100 100 100 100 99 98 90
54 74 73 97 88 90 58 50 35 42 40 38 29 32 34 41 43 42 44 42 38 37 38 43 44 51 58 75 96 99 100 98 97 96 100 99 100 99 100 99 99 100 100 100 100 91 85 74 70
50 60 76 76 95 69 71 71 33 37 35 32 35 36 37 40 42 46 48 45 44 44 45 45 47 50 59 75 88 97 99 99 98 99 99 98 99 99 100 99 100 100 97 86 74 67 58 60 65

GFSSGP_925_rhum_114.txt.gz
RH
63 63 70 75 98 99 86 62 39 34 31 25 26 27 28 26 31 43 52 48 71 82 76 80 67 69 74 69 78 86 80 81 89 92 94 97 95 95 96 96 89 93 85 86 94 97 97 99 97
62 59 71 89 98 88 63 45 43 34 25 20 24 25 28 30 53 55 51 47 79 87 83 87 72 70 74 65 72 86 82 82 88 90 90 90 90 95 97 90 91 94 86 90 95 91 96 73 68
60 62 86 94 81 79 53 36 38 29 23 22 22 24 26 33 49 49 46 50 77 88 91 95 79 69 79 65 69 84 82 82 88 90 90 88 86 96 95 79 95 94 86 83 82 93 78 54 39
48 52 78 97 78 60 52 43 36 33 24 21 21 25 29 46 46 48 48 56 78 85 88 90 85 74 79 77 69 82 86 84 87 89 89 86 90 95 88 77 87 85 85 81 89 91 59 43 32
46 62 77 86 81 57 44 35 36 40 37 31 22 30 40 51 52 54 50 72 80 83 89 88 85 79 82 82 72 85 87 84 87 87 88 84 86 89 79 73 75 80 79 81 88 82 45 37 37
64 58 76 77 57 45 48 39 37 35 48 39 35 39 40 54 56 55 56 74 79 85 90 87 87 85 82 85 70 87 87 89 88 88 90 84 89 86 74 77 77 79 81 86 90 73 46 44 46
68 71 74 64 51 42 35 33 50 53 56 63 43 59 59 67 59 58 65 72 79 83 93 93 88 84 84 83 72 87 89 88 87 90 86 81 84 78 79 82 81 78 87 84 87 73 56 56 57
62 75 78 68 55 48 31 26 35 46 50 46 46 74 70 67 64 64 70 77 84 86 89 91 90 84 87 85 76 86 88 87 90 89 84 90 81 81 86 82 79 80 87 82 85 69 62 62 60
64 94 92 69 60 46 27 57 40 41 63 63 56 63 62 64 68 75 79 85 89 81 80 80 91 94 94 91 87 88 88 91 93 87 88 91 85 87 87 82 77 81 82 85 81 70 62 58 59
84 86 70 49 42 42 48 62 66 57 63 71 69 57 53 60 71 82 83 91 90 85 75 68 83 92 98 96 90 93 94 97 92 88 90 90 88 86 88 82 77 79 85 80 73 67 62 58 55
62 79 54 49 46 59 77 73 67 77 74 68 74 66 68 87 76 94 85 90 90 86 77 62 70 92 97 100 98 96 100 98 92 86 81 79 88 87 87 82 80 78 79 74 71 67 61 62 66
63 52 52 50 62 73 67 70 70 66 64 57 55 58 60 82 92 88 87 98 88 94 79 57 59 87 93 100 100 100 97 89 82 78 72 70 78 86 86 86 82 83 87 78 71 56 56 57 53
67 53 50 53 62 68 64 66 72 67 49 53 59 55 64 74 86 88 94 98 92 81 85 96 48 60 84 97 98 96 89 86 85 59 65 63 71 81 80 86 85 82 76 82 68 62 59 54 52
58 60 52 56 65 62 66 54 60 48 40 52 54 63 64 81 89 98 99 100 98 91 82 91 76 50 63 80 83 88 82 69 68 57 56 63 68 68 74 79 78 74 65 63 60 55 47 43 46
54 70 62 63 63 65 60 58 46 37 47 61 65 64 68 77 84 92 89 88 89 86 86 93 88 66 55 59 60 64 61 59 63 60 61 65 66 66 65 66 66 63 59 51 47 46 46 45 52
62 62 88 56 62 58 70 55 33 64 52 68 74 72 66 79 88 89 73 72 75 50 70 91 88 80 58 60 56 56 58 63 65 65 64 65 66 66 63 60 56 54 53 50 51 55 55 57 56
62 83 85 70 59 62 77 71 49 56 63 66 72 57 74 89 90 83 81 85 78 78 69 92 82 82 70 67 60 59 55 59 62 65 65 60 60 60 58 57 58 57 56 60 60 63 63 62 60
97 95 60 68 65 65 69 71 49 53 67 74 72 52 70 88 84 76 83 76 80 78 72 67 85 86 71 71 66 69 68 64 64 62 61 60 63 66 66 73 68 65 68 68 66 63 62 61 62
57 55 54 38 58 60 63 56 53 56 52 56 49 48 82 90 78 80 88 78 77 92 99 82 79 89 62 73 78 78 78 76 75 76 76 73 72 71 73 75 71 70 71 71 69 68 64 64 67
50 56 53 48 56 63 60 59 49 53 56 52 53 62 74 87 94 88 93 95 97 94 95 97 89 84 60 66 73 81 82 83 82 78 80 78 76 76 75 77 74 74 70 71 71 71 68 68 71
52 68 52 52 49 56 63 68 59 56 53 47 48 55 67 82 90 95 97 98 96 96 97 98 98 87 75 73 73 74 73 74 74 74 79 81 79 79 76 72 76 77 77 77 76 75 70 72 77
66 57 50 44 51 85 56 79 60 58 58 58 54 71 85 86 91 93 90 99 99 97 87 91 90 100 94 83 86 84 87 90 82 75 75 76 77 76 78 81 80 79 76 72 76 84 82 82 83
59 50 53 51 50 57 48 63 91 57 61 56 57 70 87 85 88 92 86 90 87 92 82 89 86 92 99 88 74 73 89 87 88 90 88 88 88 88 84 79 77 75 71 80 67 88 85 85 82
46 55 54 51 55 84 50 52 97 61 58 57 54 59 71 84 91 84 82 97 93 71 84 94 79 80 92 95 84 72 65 68 69 83 82 79 75 70 65 64 78 73 64 75 84 79 77 85 89
55 68 93 94 95 86 45 50 53 39 37 58 64 62 60 82 82 83 84 94 98 85 82 95 88 94 85 92 88 78 75 71 73 77 78 79 76 66 63 68 66 68 68 72 82 87 98 88 96
67 80 97 95 94 91 47 79 48 35 35 50 62 48 50 65 68 75 75 86 93 90 89 97 100 85 72 70 78 82 84 77 86 83 76 73 65 58 65 63 58 50 58 81 85 72 72 94 97
68 85 66 96 59 70 50 42 38 36 37 33 43 39 37 36 52 61 62 65 72 85 94 93 90 84 94 94 85 82 87 96 87 78 75 76 78 74 93 81 74 85 68 86 90 89 81 98 99
64 63 85 88 94 69 57 58 63 54 48 39 40 44 43 45 45 48 49 49 51 55 72 85 82 82 83 86 80 72 98 96 86 85 77 76 55 62 75 57 80 86 88 99 99 98 100 100 100
74 79 71 94 92 97 96 97 47 52 45 44 47 50 55 55 56 56 54 44 39 41 51 63 75 79 73 69 77 86 96 92 87 80 72 60 68 81 89 86 88 94 97 100 100 100 100 100 99
53 58 88 94 89 88 99 98 42 48 48 46 46 46 45 47 55 58 57 48 46 42 45 46 46 52 59 65 76 90 90 93 93 97 98 95 99 100 97 98 98 100 99 100 100 100 98 93 84

GFSSGP_925_rhum_117.txt.gz
RH
64 64 72 71 92 98 85 68 52 46 41 34 32 34 37 33 37 52 62 63 68 81 75 65 62 69 81 84 84 83 84 88 93 87 91 93 95 97 96 92 97 92 90 97 96 93 98 98 92
65 66 68 89 93 96 46 49 51 44 36 28 28 31 30 31 54 57 63 70 71 86 81 71 57 63 72 84 84 79 81 86 89 85 90 87 93 97 90 79 91 87 96 97 99 99 96 82 75
58 61 81 94 92 80 54 44 39 40 37 36 30 25 30 36 52 58 59 80 75 95 93 78 57 57 62 80 83 81 82 85 87 88 87 86 89 95 80 93 87 79 92 90 96 86 59 62 52
53 58 80 96 92 67 58 50 43 42 36 36 41 47 32 50 53 50 72 77 81 87 94 93 70 55 57 72 85 80 82 86 88 89 87 84 88 88 81 95 90 76 79 78 93 58 41 30 48
56 68 91 96 83 68 58 48 44 44 38 36 52 57 48 42 48 65 82 86 89 93 88 84 78 61 56 67 84 80 81 86 89 88 86 82 90 85 78 91 86 75 76 91 88 46 32 37 57
71 69 96 91 72 56 48 44 48 48 40 47 56 63 60 63 56 73 76 86 87 94 87 86 87 84 65 60 80 83 85 86 88 87 86 84 93 82 75 83 82 79 76 86 82 41 37 44 58
75 83 81 81 78 64 50 35 40 44 44 46 51 65 56 50 76 85 83 84 90 89 88 88 84 86 80 61 80 85 88 85 88 88 87 85 87 79 72 77 78 76 82 83 58 47 45 46 56
69 80 83 79 75 67 44 38 32 35 45 43 47 69 76 71 72 77 91 90 94 98 94 88 81 88 85 81 82 88 90 87 89 89 86 84 81 81 78 78 76 85 80 72 60 57 57 55 56
69 98 91 81 76 68 47 48 41 47 52 45 46 56 57 60 60 66 84 99 99 100 90 85 84 82 84 86 85 88 89 90 93 88 81 82 79 78 79 79 79 88 79 78 64 60 60 56 53
90 95 75 63 59 58 49 54 60 70 60 60 51 46 51 56 72 82 90 95 96 99 97 86 83 80 89 88 90 88 91 95 92 87 86 82 80 81 82 76 78 86 83 80 68 61 56 54 50
85 85 66 57 53 54 64 63 67 78 84 66 59 49 53 64 72 84 94 83 92 91 88 89 82 81 98 98 98 98 98 98 90 87 88 85 85 83 81 80 78 81 80 74 68 62 57 59 53
72 67 63 56 54 54 65 60 80 74 66 50 53 53 54 74 75 74 82 96 94 86 80 89 93 91 99 99 100 100 100 98 92 89 86 90 86 84 82 79 80 78 75 70 66 59 58 58 57
80 73 58 53 58 56 68 73 73 59 49 46 50 50 67 75 72 64 78 86 99 97 82 80 98 91 99 99 100 100 100 96 92 87 82 84 85 85 82 80 78 81 76 67 60 50 57 57 55
69 74 75 67 58 69 76 76 71 58 50 50 49 53 74 71 70 74 84 71 100 92 78 71 93 99 98 100 100 99 98 93 86 77 83 85 86 86 83 84 84 84 74 73 65 62 60 54 50
66 80 64 62 59 69 65 80 76 51 42 47 42 54 71 67 78 86 84 92 100 95 73 71 68 86 100 99 99 100 94 86 80 75 77 76 78 81 81 82 83 73 73 72 66 60 49 44 44
72 69 87 57 65 70 72 76 53 53 68 61 66 66 70 73 85 83 95 94 100 100 90 70 61 63 82 96 99 95 90 83 64 67 70 72 77 77 71 77 78 73 66 57 52 48 46 49 53
79 95 86 78 54 69 74 85 62 52 64 70 72 73 72 78 89 84 83 79 91 100 100 90 72 80 71 78 86 88 75 78 58 66 66 69 68 70 70 72 66 61 57 50 50 57 55 58 58
98 92 84 86 61 70 84 90 67 57 61 80 80 77 76 90 95 90 95 95 97 99 97 100 86 70 78 75 68 66 71 66 63 65 67 67 67 66 66 62 56 55 53 56 56 60 62 62 62
84 68 78 67 66 74 78 78 65 51 62 62 72 71 84 86 97 98 97 95 98 100 95 86 87 94 86 76 62 63 74 67 67 66 64 64 64 64 58 56 58 58 62 64 63 65 64 64 66
56 64 85 81 63 68 69 69 58 56 61 60 58 60 81 98 97 95 98 97 96 90 86 92 93 94 88 88 69 68 66 66 64 65 62 60 60 59 63 74 69 67 69 71 69 67 66 65 68
57 69 74 66 49 63 71 70 69 55 54 51 49 69 77 86 97 96 98 100 100 95 95 97 84 97 99 97 81 78 79 76 75 66 64 63 64 68 75 78 76 71 72 73 73 72 71 70 72
77 57 57 62 69 79 63 84 64 71 60 52 60 88 86 84 88 94 98 99 100 100 95 91 93 100 86 93 95 84 80 84 86 84 81 78 76 73 73 77 78 78 76 75 75 77 82 80 83
72 59 60 65 71 64 59 83 94 75 76 71 73 92 92 86 91 90 98 98 100 98 91 87 100 100 97 86 87 85 72 82 87 82 86 83 83 82 80 74 75 76 76 76 72 70 72 81 94
57 64 65 64 69 87 64 74 70 55 74 80 70 71 91 93 90 89 92 94 100 100 95 94 98 100 95 90 77 74 60 74 66 84 87 86 86 83 82 82 80 78 76 74 72 76 75 79 86
59 80 95 91 94 89 59 66 62 46 72 82 78 72 83 95 92 94 98 95 92 100 100 90 95 100 99 94 81 68 59 57 62 70 81 85 85 82 78 68 72 77 66 64 68 67 63 71 84
75 80 98 96 91 93 69 68 64 44 45 83 83 74 62 79 94 95 94 89 86 87 97 99 91 97 92 98 92 78 68 63 61 62 58 60 79 70 67 64 68 71 71 65 67 73 78 77 76
73 90 67 97 93 90 77 67 51 46 45 53 78 83 67 56 61 75 88 97 90 90 91 98 90 90 99 86 95 87 81 84 76 74 71 71 72 73 76 74 74 69 68 77 80 98 83 73 85
67 66 79 91 94 95 88 97 83 66 61 56 58 66 61 64 62 59 57 60 75 89 95 92 87 84 92 86 81 80 82 74 80 77 80 74 74 81 81 76 82 85 96 96 85 82 81 90 97
75 83 84 87 96 97 96 98 59 64 62 62 59 55 58 64 65 63 60 50 44 51 65 89 98 97 92 90 94 86 88 89 77 79 70 79 86 89 82 91 89 99 98 96 90 85 92 100 100
58 67 84 94 91 97 98 99 70 77 58 56 57 50 50 56 65 64 66 62 58 48 57 72 86 95 81 81 81 85 90 94 97 92 86 85 85 83 73 97 83 72 78 83 90 99 100 99 100

GFSSGP_925_rhum_120.txt.gz
RH
66 66 68 70 91 92 87 69 58 50 48 42 38 40 44 40 40 57 66 78 76 84 95 91 90 83 84 85 75 75 75 79 89 91 93 95 89 95 98 97 86 93 96 88 93 95 88 96 99
64 73 68 92 90 92 58 64 62 50 42 40 36 37 35 35 31 70 80 78 72 97 97 94 90 92 88 88 74 81 83 83 85 88 87 89 92 94 98 93 80 96 93 84 95 93 95 94 72
57 61 80 92 99 64 69 56 51 40 40 39 44 40 38 39 44 71 60 72 78 97 100 96 90 92 91 79 77 83 86 86 86 88 84 87 93 91 96 89 85 92 92 98 99 88 78 60 68
54 62 82 93 91 71 56 55 54 50 40 40 50 49 43 38 58 54 65 70 82 91 99 95 92 91 92 86 76 79 86 85 85 86 83 89 90 86 91 86 85 87 82 81 78 76 64 55 65
58 78 91 89 83 71 60 56 46 48 50 44 49 51 49 37 75 90 86 81 81 90 90 94 92 92 92 89 78 77 85 87 87 84 86 88 89 84 94 83 78 79 70 48 44 40 39 59 63
76 76 94 92 67 57 54 45 47 45 42 39 48 60 56 36 41 85 95 100 84 82 87 90 92 79 90 90 84 79 85 88 88 85 86 88 88 84 93 85 76 70 61 44 36 32 56 61 65
77 83 89 83 68 62 57 41 45 45 43 41 41 53 51 49 60 70 81 88 100 99 90 97 93 79 85 88 90 88 89 88 88 87 84 91 86 87 91 81 74 69 73 40 34 36 56 62 64
70 82 88 81 62 61 46 44 37 40 42 30 44 68 53 67 51 47 59 69 84 100 99 95 93 85 81 87 86 87 88 88 90 90 86 95 84 87 84 82 79 79 74 46 43 43 50 61 61
67 94 92 78 72 65 51 58 44 39 49 49 51 46 41 48 41 48 55 76 71 100 100 100 91 91 77 83 89 83 88 90 91 91 88 93 83 78 80 79 80 80 72 47 50 50 49 57 62
87 94 71 57 57 66 60 58 56 70 62 57 51 47 44 42 50 68 66 72 88 90 100 100 100 99 77 86 86 86 89 92 96 93 89 87 81 80 78 78 85 81 72 59 56 55 52 55 63
87 87 65 65 60 61 62 62 61 74 72 61 53 40 45 53 64 71 78 84 80 79 100 100 100 100 92 97 92 94 97 98 99 92 88 81 83 79 79 81 90 82 78 67 57 54 52 50 57
88 77 70 57 56 60 61 53 63 76 63 46 52 55 56 60 62 72 75 78 68 63 89 100 97 99 100 99 98 99 100 100 100 94 82 81 79 79 78 78 88 86 82 67 58 54 54 52 54
80 70 65 64 63 63 59 65 64 62 54 52 53 53 54 61 59 66 66 71 61 78 68 100 99 98 100 94 97 100 100 99 95 88 83 81 83 80 78 78 82 82 74 63 59 58 60 58 57
70 76 74 69 72 67 66 63 74 60 53 59 54 52 52 56 58 68 72 67 71 66 88 100 100 100 99 89 96 100 100 96 94 92 87 85 84 85 81 79 80 76 69 63 59 52 56 56 54
73 89 78 69 68 76 66 83 78 56 54 56 53 50 49 52 55 69 71 79 70 92 95 100 98 100 98 96 99 96 98 95 93 91 91 89 84 86 81 80 81 78 70 64 61 60 61 56 52
85 75 91 58 62 67 77 83 54 48 58 60 56 51 49 52 70 70 75 82 88 93 99 100 100 100 100 100 99 99 100 96 93 89 88 88 80 83 83 83 80 77 73 73 67 66 57 52 46
82 92 92 78 58 62 79 83 59 52 63 68 62 60 58 59 69 85 90 90 83 86 82 99 100 100 100 100 100 100 100 97 90 86 86 86 82 82 83 83 76 76 74 74 67 63 49 47 50
92 84 75 79 64 66 76 84 66 56 61 62 58 66 87 82 78 84 90 90 86 87 79 96 100 100 100 100 100 100 97 93 86 80 82 85 84 79 82 79 70 75 74 58 54 51 57 57 57
92 95 91 67 67 78 77 73 66 58 58 55 62 84 93 89 88 92 98 98 90 91 89 95 99 98 95 100 100 98 99 87 79 79 75 76 79 80 72 70 74 71 63 54 50 59 61 62 64
72 86 75 72 70 71 75 74 64 65 56 52 74 81 84 97 98 97 98 100 92 95 85 96 97 96 97 94 97 96 96 86 72 72 72 76 74 73 71 72 65 59 55 54 57 61 65 66 69
68 70 72 69 58 60 74 70 75 63 67 64 62 70 85 96 96 97 97 98 100 92 90 96 98 95 98 85 85 90 92 94 86 73 71 70 69 68 67 64 57 56 56 61 63 66 65 69 82
88 60 61 64 78 91 59 91 72 62 72 79 79 90 96 97 94 94 96 96 99 92 90 95 97 91 100 89 81 85 88 90 88 74 66 67 66 65 62 57 60 63 67 69 70 70 70 68 83
71 61 70 70 81 73 63 94 68 65 84 84 84 86 97 96 95 93 93 96 100 99 94 88 94 99 87 94 94 86 84 83 85 86 74 63 62 61 60 76 75 70 72 74 74 76 76 75 77
56 69 68 71 80 95 70 95 85 73 91 81 80 81 95 95 93 98 96 100 100 100 99 96 92 99 94 86 89 92 90 84 80 78 82 80 66 67 67 80 82 80 77 79 77 78 78 77 76
66 79 91 91 94 97 70 81 100 62 85 91 89 82 72 96 95 98 98 98 100 100 100 96 99 100 100 100 98 91 81 78 79 69 78 92 92 79 74 77 80 82 80 82 73 77 78 76 68
76 80 97 97 97 96 69 96 93 52 65 74 78 82 66 87 98 95 98 97 98 99 100 94 99 100 100 98 99 100 95 87 81 78 63 78 75 88 79 84 84 82 71 70 67 68 72 74 77
77 87 84 99 99 91 97 74 56 55 55 64 74 80 66 68 83 97 98 100 92 94 95 91 95 99 98 95 98 98 89 89 82 69 71 67 57 57 60 61 66 70 70 75 75 78 81 88 89
66 67 77 90 92 96 93 97 98 81 66 58 56 64 66 65 63 62 70 69 91 93 99 94 90 96 95 99 93 87 92 92 86 80 79 72 65 66 82 82 80 74 73 82 84 84 84 91 98
68 78 85 83 94 96 99 98 85 74 62 71 63 54 55 65 71 67 67 64 53 58 73 97 100 97 99 94 92 90 92 85 83 88 90 84 84 80 77 79 80 74 74 82 93 95 93 98 99
56 63 87 87 89 91 93 98 69 68 63 69 70 62 53 54 61 70 71 73 76 68 68 70 99 100 100 94 89 96 91 91 91 97 95 88 89 85 89 86 81 78 86 99 100 99 98 99 100

GFSSGP_925_rhum_123.txt.gz
RH
61 48 62 72 96 80 92 73 64 54 53 46 45 47 49 46 47 58 70 73 74 77 81 82 88 89 89 89 92 80 82 94 95 92 85 84 93 97 95 94 91 96 85 93 88 94 89 92 96
65 76 67 92 91 96 81 70 68 55 47 43 41 42 43 43 35 58 82 80 72 82 94 94 88 90 89 90 94 77 82 95 93 89 70 78 98 97 96 90 97 92 88 96 86 86 89 91 89
58 67 83 95 90 92 66 59 63 51 46 40 48 42 43 43 53 78 68 72 81 88 97 90 87 90 90 91 92 78 83 91 89 87 74 71 96 98 95 88 91 88 84 92 90 86 90 80 76
54 62 82 93 90 82 54 66 55 50 44 47 49 48 42 49 82 98 92 91 89 90 99 87 87 88 90 92 92 83 82 90 84 86 84 73 90 94 84 89 93 85 85 98 90 76 71 77 71
52 79 86 97 88 73 60 56 46 48 46 47 46 52 45 32 40 54 89 100 100 100 98 86 87 88 88 91 91 87 83 86 86 87 87 88 83 93 86 88 88 86 83 91 79 61 68 73 68
78 78 90 90 66 57 53 47 48 46 44 41 41 55 52 48 36 50 65 90 98 100 99 96 84 86 88 89 89 92 89 88 88 86 87 90 78 87 83 81 84 72 61 68 67 54 67 68 69
76 81 87 84 68 54 57 42 48 46 47 42 35 47 41 47 41 43 43 74 85 89 98 98 96 84 85 87 88 89 88 88 88 87 88 91 84 90 91 80 81 66 49 42 38 52 65 68 67
81 84 93 86 72 68 45 48 41 44 48 33 36 55 57 55 45 41 40 35 59 77 99 91 99 98 87 88 84 86 89 89 88 88 91 91 86 92 91 75 73 57 45 35 37 60 64 67 67
65 92 97 88 72 65 53 58 49 42 48 43 43 42 38 32 41 38 42 38 32 45 72 97 98 100 98 98 89 87 87 90 89 88 92 91 88 95 87 72 75 62 38 34 38 56 63 64 67
86 94 78 67 60 65 56 62 61 62 58 58 54 45 42 37 41 50 58 57 57 48 56 70 99 99 98 98 96 91 88 90 91 91 95 98 92 94 84 81 78 66 41 40 44 50 59 63 68
82 93 65 62 63 66 64 64 59 63 70 60 61 50 46 46 55 60 61 58 69 62 56 53 92 99 96 99 99 97 98 97 94 92 100 98 92 89 86 88 82 78 47 49 52 54 56 63 66
96 84 79 64 59 63 67 59 63 62 60 46 48 50 55 58 65 70 72 63 69 65 57 56 52 99 99 99 99 99 99 100 100 98 100 93 90 88 86 98 88 76 60 54 56 53 52 62 63
85 72 64 65 67 68 65 72 68 63 49 46 50 55 58 60 62 59 56 56 64 66 52 57 61 99 98 99 99 99 97 99 100 100 99 87 84 85 85 89 87 77 66 54 53 52 50 51 58
70 74 74 69 72 71 78 74 68 59 50 54 56 61 59 61 61 56 63 67 66 57 58 60 56 98 97 94 96 96 98 98 100 99 93 83 84 83 83 89 88 78 70 60 54 52 55 55 57
78 85 79 74 74 79 73 88 82 58 52 56 56 56 58 58 55 59 56 70 59 67 63 67 69 73 96 94 96 97 100 97 94 98 88 81 82 82 80 87 87 82 72 63 59 58 58 57 57
88 90 93 62 63 66 67 82 56 50 61 64 60 58 58 56 54 54 54 61 64 77 85 76 98 99 100 95 98 97 100 95 94 96 88 81 75 83 79 80 82 78 69 64 62 54 58 60 57
80 92 85 82 60 64 73 84 61 56 61 63 56 54 56 60 58 53 55 67 81 90 80 81 82 100 98 94 92 98 97 98 97 94 90 84 79 83 84 82 78 74 67 65 62 64 67 61 53
86 95 68 82 68 65 79 84 68 61 68 66 67 61 61 58 63 65 72 78 90 92 81 77 81 92 99 100 98 100 100 99 99 95 91 90 86 84 85 84 78 77 74 72 74 70 68 52 48
84 97 87 81 65 72 82 81 78 81 74 73 63 66 68 79 82 75 78 82 99 88 76 79 78 70 100 100 100 100 100 100 99 94 91 90 92 87 86 83 82 78 77 74 76 71 57 59 62
86 83 88 74 63 63 66 78 75 79 85 87 88 90 91 88 88 81 77 97 100 93 73 72 74 84 100 100 98 96 98 99 96 95 88 88 91 86 87 86 82 78 79 77 67 59 66 66 66
73 80 76 74 65 62 68 72 80 63 67 67 75 80 89 88 87 92 91 96 100 100 89 79 73 90 96 100 100 99 100 99 93 92 90 94 93 88 81 79 77 74 77 73 56 58 60 68 82
84 62 66 68 82 86 61 96 83 74 75 74 77 82 92 96 97 96 95 95 98 100 97 86 86 92 93 98 100 100 98 98 95 94 89 86 87 84 81 77 70 73 72 63 56 56 60 65 81
73 61 72 72 82 83 72 97 74 82 93 84 89 85 95 97 96 98 96 94 98 98 99 95 83 81 88 98 99 100 100 97 98 90 91 88 84 79 78 72 72 68 62 57 54 62 68 68 70
60 69 71 77 85 96 86 88 90 96 88 84 81 82 92 98 96 97 97 99 100 100 100 93 100 97 99 100 96 97 97 97 100 100 99 94 94 86 71 70 68 60 57 59 64 67 71 72 70
68 78 94 92 97 96 80 85 100 69 60 68 90 86 92 93 98 98 98 98 100 100 99 97 94 98 100 100 100 95 94 94 94 94 97 98 100 95 70 65 61 64 65 66 72 77 78 82 86
79 95 96 94 96 96 75 97 97 66 53 58 72 77 87 92 94 95 96 99 100 100 99 98 99 99 97 99 100 98 90 95 97 93 91 82 89 83 69 62 65 81 77 75 80 92 84 78 70
75 95 92 98 82 91 95 84 62 72 62 60 59 73 90 93 91 92 91 94 98 93 93 96 91 94 98 100 100 100 96 86 83 88 89 81 85 83 71 68 71 88 82 88 88 80 74 66 79
64 64 83 92 90 99 90 97 96 88 76 69 66 65 68 85 87 90 88 82 70 79 98 95 98 96 98 100 99 100 100 98 92 86 83 87 85 73 64 71 76 76 96 82 84 75 77 80 82
66 78 86 86 90 94 99 99 94 81 73 84 71 65 60 63 67 82 81 80 80 78 81 92 99 99 99 98 100 100 99 93 90 86 87 91 88 81 72 69 64 69 88 95 90 80 78 78 82
54 65 88 92 88 82 92 99 84 69 67 73 72 71 65 62 64 64 72 73 81 85 92 100 100 100 98 100 92 91 97 99 97 98 89 93 94 96 94 90 84 84 85 88 90 85 86 92 97